<?xml version='1.0' encoding='UTF-8'?>
<gpx version="1.1" creator="https://www.komoot.de" xmlns="http://www.topografix.com/GPX/1/1" xmlns:xsi="http://www.w3.org/2001/XMLSchema-instance" xsi:schemaLocation="http://www.topografix.com/GPX/1/1 http://www.topografix.com/GPX/1/1/gpx.xsd">
  <metadata>
    <name>RTCN Rondje Krimpen 100</name>
    <author>
      <link href="https://www.komoot.de">
        <text>komoot</text>
        <type>text/html</type>
      </link>
    </author>
  </metadata>
  <trk>
    <name>RTCN Rondje Krimpen 100</name>
    <trkseg>
      <trkpt lat="52.132640" lon="4.762831">
        <ele>-0.708731</ele>
        <time>2026-03-03T14:54:32.190Z</time>
      </trkpt>
      <trkpt lat="52.132551" lon="4.762695">
        <ele>-0.708731</ele>
        <time>2026-03-03T14:54:34.660Z</time>
      </trkpt>
      <trkpt lat="52.132495" lon="4.762599">
        <ele>-0.708731</ele>
        <time>2026-03-03T14:54:36.273Z</time>
      </trkpt>
      <trkpt lat="52.132380" lon="4.762353">
        <ele>-0.708731</ele>
        <time>2026-03-03T14:54:39.988Z</time>
      </trkpt>
      <trkpt lat="52.132219" lon="4.761967">
        <ele>-0.708731</ele>
        <time>2026-03-03T14:54:45.421Z</time>
      </trkpt>
      <trkpt lat="52.132129" lon="4.761750">
        <ele>-0.708731</ele>
        <time>2026-03-03T14:54:48.476Z</time>
      </trkpt>
      <trkpt lat="52.132068" lon="4.761606">
        <ele>-0.739252</ele>
        <time>2026-03-03T14:54:50.482Z</time>
      </trkpt>
      <trkpt lat="52.131913" lon="4.761236">
        <ele>-0.912548</ele>
        <time>2026-03-03T14:54:55.525Z</time>
      </trkpt>
      <trkpt lat="52.131736" lon="4.760815">
        <ele>-1.109958</ele>
        <time>2026-03-03T14:55:01.202Z</time>
      </trkpt>
      <trkpt lat="52.131684" lon="4.760692">
        <ele>-1.167736</ele>
        <time>2026-03-03T14:55:02.854Z</time>
      </trkpt>
      <trkpt lat="52.131623" lon="4.760546">
        <ele>-1.236061</ele>
        <time>2026-03-03T14:55:04.796Z</time>
      </trkpt>
      <trkpt lat="52.131576" lon="4.760434">
        <ele>-1.288547</ele>
        <time>2026-03-03T14:55:06.306Z</time>
      </trkpt>
      <trkpt lat="52.131498" lon="4.760249">
        <ele>-1.375374</ele>
        <time>2026-03-03T14:55:08.760Z</time>
      </trkpt>
      <trkpt lat="52.131442" lon="4.760116">
        <ele>-1.437769</ele>
        <time>2026-03-03T14:55:10.496Z</time>
      </trkpt>
      <trkpt lat="52.131376" lon="4.759961">
        <ele>-1.510748</ele>
        <time>2026-03-03T14:55:12.539Z</time>
      </trkpt>
      <trkpt lat="52.130923" lon="4.759967">
        <ele>-1.796253</ele>
        <time>2026-03-03T14:55:20.635Z</time>
      </trkpt>
      <trkpt lat="52.130284" lon="4.759698">
        <ele>-1.971719</ele>
        <time>2026-03-03T14:55:32.908Z</time>
      </trkpt>
      <trkpt lat="52.129296" lon="4.759162">
        <ele>-2.201345</ele>
        <time>2026-03-03T14:55:53.603Z</time>
      </trkpt>
      <trkpt lat="52.128032" lon="4.758361">
        <ele>-2.308662</ele>
        <time>2026-03-03T14:56:21.598Z</time>
      </trkpt>
      <trkpt lat="52.127825" lon="4.758263">
        <ele>-2.321341</ele>
        <time>2026-03-03T14:56:25.897Z</time>
      </trkpt>
      <trkpt lat="52.125397" lon="4.756862">
        <ele>-3.034668</ele>
        <time>2026-03-03T14:57:14.844Z</time>
      </trkpt>
      <trkpt lat="52.124999" lon="4.756649">
        <ele>-3.118909</ele>
        <time>2026-03-03T14:57:22.940Z</time>
      </trkpt>
      <trkpt lat="52.124840" lon="4.756611">
        <ele>-3.151224</ele>
        <time>2026-03-03T14:57:26.079Z</time>
      </trkpt>
      <trkpt lat="52.124118" lon="4.756225">
        <ele>-3.304027</ele>
        <time>2026-03-03T14:57:41.032Z</time>
      </trkpt>
      <trkpt lat="52.122993" lon="4.755552">
        <ele>-3.535050</ele>
        <time>2026-03-03T14:58:04.328Z</time>
      </trkpt>
      <trkpt lat="52.120402" lon="4.753470">
        <ele>-3.799343</ele>
        <time>2026-03-03T14:59:00.244Z</time>
      </trkpt>
      <trkpt lat="52.119562" lon="4.752656">
        <ele>-3.267008</ele>
        <time>2026-03-03T14:59:23.528Z</time>
      </trkpt>
      <trkpt lat="52.119360" lon="4.752421">
        <ele>-3.131810</ele>
        <time>2026-03-03T14:59:29.561Z</time>
      </trkpt>
      <trkpt lat="52.119231" lon="4.752168">
        <ele>-3.036357</ele>
        <time>2026-03-03T14:59:34.348Z</time>
      </trkpt>
      <trkpt lat="52.119023" lon="4.751823">
        <ele>-2.981678</ele>
        <time>2026-03-03T14:59:41.064Z</time>
      </trkpt>
      <trkpt lat="52.118419" lon="4.751222">
        <ele>-2.851315</ele>
        <time>2026-03-03T14:59:55.702Z</time>
      </trkpt>
      <trkpt lat="52.117937" lon="4.750760">
        <ele>-2.748308</ele>
        <time>2026-03-03T15:00:06.746Z</time>
      </trkpt>
      <trkpt lat="52.113439" lon="4.746142">
        <ele>-2.812313</ele>
        <time>2026-03-03T15:01:53.646Z</time>
      </trkpt>
      <trkpt lat="52.112015" lon="4.744580">
        <ele>-2.526561</ele>
        <time>2026-03-03T15:02:29.913Z</time>
      </trkpt>
      <trkpt lat="52.110816" lon="4.743337">
        <ele>-2.167834</ele>
        <time>2026-03-03T15:02:59.278Z</time>
      </trkpt>
      <trkpt lat="52.109294" lon="4.741829">
        <ele>-1.647137</ele>
        <time>2026-03-03T15:03:38.507Z</time>
      </trkpt>
      <trkpt lat="52.109102" lon="4.741628">
        <ele>-1.577161</ele>
        <time>2026-03-03T15:03:43.564Z</time>
      </trkpt>
      <trkpt lat="52.108960" lon="4.741480">
        <ele>-1.525474</ele>
        <time>2026-03-03T15:03:47.224Z</time>
      </trkpt>
      <trkpt lat="52.107173" lon="4.739788">
        <ele>-1.432966</ele>
        <time>2026-03-03T15:04:28.870Z</time>
      </trkpt>
      <trkpt lat="52.107042" lon="4.739630">
        <ele>-1.439675</ele>
        <time>2026-03-03T15:04:32.063Z</time>
      </trkpt>
      <trkpt lat="52.106943" lon="4.739444">
        <ele>-1.451011</ele>
        <time>2026-03-03T15:04:35.016Z</time>
      </trkpt>
      <trkpt lat="52.106895" lon="4.739257">
        <ele>-1.460345</ele>
        <time>2026-03-03T15:04:37.471Z</time>
      </trkpt>
      <trkpt lat="52.106881" lon="4.739003">
        <ele>-1.472090</ele>
        <time>2026-03-03T15:04:40.561Z</time>
      </trkpt>
      <trkpt lat="52.106915" lon="4.738789">
        <ele>-1.482270</ele>
        <time>2026-03-03T15:04:43.255Z</time>
      </trkpt>
      <trkpt lat="52.107227" lon="4.738135">
        <ele>-1.520409</ele>
        <time>2026-03-03T15:04:53.384Z</time>
      </trkpt>
      <trkpt lat="52.107476" lon="4.737217">
        <ele>-1.566626</ele>
        <time>2026-03-03T15:05:05.721Z</time>
      </trkpt>
      <trkpt lat="52.107587" lon="4.736580">
        <ele>-1.525227</ele>
        <time>2026-03-03T15:05:13.873Z</time>
      </trkpt>
      <trkpt lat="52.107633" lon="4.736101">
        <ele>-1.491292</ele>
        <time>2026-03-03T15:05:19.859Z</time>
      </trkpt>
      <trkpt lat="52.107635" lon="4.735669">
        <ele>-1.461053</ele>
        <time>2026-03-03T15:05:25.234Z</time>
      </trkpt>
      <trkpt lat="52.107611" lon="4.735120">
        <ele>-1.422528</ele>
        <time>2026-03-03T15:05:32.157Z</time>
      </trkpt>
      <trkpt lat="52.107512" lon="4.734156">
        <ele>-1.323698</ele>
        <time>2026-03-03T15:05:44.868Z</time>
      </trkpt>
      <trkpt lat="52.107444" lon="4.733098">
        <ele>-1.010592</ele>
        <time>2026-03-03T15:05:59.600Z</time>
      </trkpt>
      <trkpt lat="52.107459" lon="4.731361">
        <ele>-0.499670</ele>
        <time>2026-03-03T15:06:23.527Z</time>
      </trkpt>
      <trkpt lat="52.107444" lon="4.731211">
        <ele>-0.462270</ele>
        <time>2026-03-03T15:06:25.592Z</time>
      </trkpt>
      <trkpt lat="52.107356" lon="4.731007">
        <ele>-0.400923</ele>
        <time>2026-03-03T15:06:28.972Z</time>
      </trkpt>
      <trkpt lat="52.107274" lon="4.731076">
        <ele>-0.363939</ele>
        <time>2026-03-03T15:06:30.463Z</time>
      </trkpt>
      <trkpt lat="52.107169" lon="4.731140">
        <ele>-0.319017</ele>
        <time>2026-03-03T15:06:32.283Z</time>
      </trkpt>
      <trkpt lat="52.107124" lon="4.731172">
        <ele>-0.299342</ele>
        <time>2026-03-03T15:06:33.029Z</time>
      </trkpt>
      <trkpt lat="52.106934" lon="4.731240">
        <ele>-0.221396</ele>
        <time>2026-03-03T15:06:36.090Z</time>
      </trkpt>
      <trkpt lat="52.106828" lon="4.731272">
        <ele>-0.178200</ele>
        <time>2026-03-03T15:06:37.760Z</time>
      </trkpt>
      <trkpt lat="52.106581" lon="4.731333">
        <ele>-0.078101</ele>
        <time>2026-03-03T15:06:41.693Z</time>
      </trkpt>
      <trkpt lat="52.106497" lon="4.731306">
        <ele>-0.043795</ele>
        <time>2026-03-03T15:06:43.031Z</time>
      </trkpt>
      <trkpt lat="52.106452" lon="4.731213">
        <ele>-0.014659</ele>
        <time>2026-03-03T15:06:44.194Z</time>
      </trkpt>
      <trkpt lat="52.106373" lon="4.730824">
        <ele>0.086169</ele>
        <time>2026-03-03T15:06:48.303Z</time>
      </trkpt>
      <trkpt lat="52.106237" lon="4.730502">
        <ele>0.182340</ele>
        <time>2026-03-03T15:06:52.382Z</time>
      </trkpt>
      <trkpt lat="52.106209" lon="4.730446">
        <ele>0.200110</ele>
        <time>2026-03-03T15:06:53.156Z</time>
      </trkpt>
      <trkpt lat="52.105960" lon="4.729960">
        <ele>0.379950</ele>
        <time>2026-03-03T15:07:00.050Z</time>
      </trkpt>
      <trkpt lat="52.105674" lon="4.729401">
        <ele>0.590513</ele>
        <time>2026-03-03T15:07:07.759Z</time>
      </trkpt>
      <trkpt lat="52.105588" lon="4.729316">
        <ele>0.637919</ele>
        <time>2026-03-03T15:07:09.485Z</time>
      </trkpt>
      <trkpt lat="52.105610" lon="4.729141">
        <ele>0.689618</ele>
        <time>2026-03-03T15:07:11.380Z</time>
      </trkpt>
      <trkpt lat="52.105816" lon="4.728624">
        <ele>0.867977</ele>
        <time>2026-03-03T15:07:17.874Z</time>
      </trkpt>
      <trkpt lat="52.105902" lon="4.728284">
        <ele>0.974398</ele>
        <time>2026-03-03T15:07:21.543Z</time>
      </trkpt>
      <trkpt lat="52.105914" lon="4.728097">
        <ele>1.028814</ele>
        <time>2026-03-03T15:07:23.349Z</time>
      </trkpt>
      <trkpt lat="52.105888" lon="4.727862">
        <ele>1.060893</ele>
        <time>2026-03-03T15:07:25.592Z</time>
      </trkpt>
      <trkpt lat="52.105900" lon="4.727600">
        <ele>1.047121</ele>
        <time>2026-03-03T15:07:27.975Z</time>
      </trkpt>
      <trkpt lat="52.105930" lon="4.727423">
        <ele>1.037496</ele>
        <time>2026-03-03T15:07:29.620Z</time>
      </trkpt>
      <trkpt lat="52.106020" lon="4.727176">
        <ele>1.022442</ele>
        <time>2026-03-03T15:07:32.160Z</time>
      </trkpt>
      <trkpt lat="52.106027" lon="4.727144">
        <ele>1.020662</ele>
        <time>2026-03-03T15:07:32.581Z</time>
      </trkpt>
      <trkpt lat="52.106305" lon="4.726778">
        <ele>0.990151</ele>
        <time>2026-03-03T15:07:39.578Z</time>
      </trkpt>
      <trkpt lat="52.106375" lon="4.726673">
        <ele>0.982028</ele>
        <time>2026-03-03T15:07:41.439Z</time>
      </trkpt>
      <trkpt lat="52.106310" lon="4.726449">
        <ele>0.969042</ele>
        <time>2026-03-03T15:07:43.598Z</time>
      </trkpt>
      <trkpt lat="52.106108" lon="4.725710">
        <ele>0.926642</ele>
        <time>2026-03-03T15:07:50.647Z</time>
      </trkpt>
      <trkpt lat="52.106032" lon="4.725305">
        <ele>0.882751</ele>
        <time>2026-03-03T15:07:54.316Z</time>
      </trkpt>
      <trkpt lat="52.106061" lon="4.725169">
        <ele>0.856226</ele>
        <time>2026-03-03T15:07:55.566Z</time>
      </trkpt>
      <trkpt lat="52.106044" lon="4.724812">
        <ele>0.790251</ele>
        <time>2026-03-03T15:07:58.662Z</time>
      </trkpt>
      <trkpt lat="52.106113" lon="4.724412">
        <ele>0.713699</ele>
        <time>2026-03-03T15:08:02.182Z</time>
      </trkpt>
      <trkpt lat="52.106081" lon="4.724322">
        <ele>0.694538</ele>
        <time>2026-03-03T15:08:03.065Z</time>
      </trkpt>
      <trkpt lat="52.106037" lon="4.724248">
        <ele>0.675561</ele>
        <time>2026-03-03T15:08:03.916Z</time>
      </trkpt>
      <trkpt lat="52.105977" lon="4.724168">
        <ele>0.652296</ele>
        <time>2026-03-03T15:08:04.972Z</time>
      </trkpt>
      <trkpt lat="52.105904" lon="4.724227">
        <ele>0.627848</ele>
        <time>2026-03-03T15:08:06.512Z</time>
      </trkpt>
      <trkpt lat="52.105835" lon="4.724193">
        <ele>0.606221</ele>
        <time>2026-03-03T15:08:07.877Z</time>
      </trkpt>
      <trkpt lat="52.105693" lon="4.724002">
        <ele>0.550967</ele>
        <time>2026-03-03T15:08:10.393Z</time>
      </trkpt>
      <trkpt lat="52.105586" lon="4.723755">
        <ele>0.495276</ele>
        <time>2026-03-03T15:08:12.903Z</time>
      </trkpt>
      <trkpt lat="52.105513" lon="4.723725">
        <ele>0.472690</ele>
        <time>2026-03-03T15:08:13.914Z</time>
      </trkpt>
      <trkpt lat="52.105327" lon="4.723034">
        <ele>0.370954</ele>
        <time>2026-03-03T15:08:22.662Z</time>
      </trkpt>
      <trkpt lat="52.105167" lon="4.722419">
        <ele>0.363075</ele>
        <time>2026-03-03T15:08:30.575Z</time>
      </trkpt>
      <trkpt lat="52.105042" lon="4.722016">
        <ele>0.357749</ele>
        <time>2026-03-03T15:08:36.079Z</time>
      </trkpt>
      <trkpt lat="52.104946" lon="4.721636">
        <ele>0.352901</ele>
        <time>2026-03-03T15:08:41.340Z</time>
      </trkpt>
      <trkpt lat="52.104905" lon="4.721589">
        <ele>0.351938</ele>
        <time>2026-03-03T15:08:42.412Z</time>
      </trkpt>
      <trkpt lat="52.104807" lon="4.721268">
        <ele>0.347709</ele>
        <time>2026-03-03T15:08:47.177Z</time>
      </trkpt>
      <trkpt lat="52.104644" lon="4.720731">
        <ele>0.340643</ele>
        <time>2026-03-03T15:08:55.058Z</time>
      </trkpt>
      <trkpt lat="52.104492" lon="4.720200">
        <ele>0.241252</ele>
        <time>2026-03-03T15:09:02.487Z</time>
      </trkpt>
      <trkpt lat="52.104413" lon="4.719954">
        <ele>0.180023</ele>
        <time>2026-03-03T15:09:05.812Z</time>
      </trkpt>
      <trkpt lat="52.104342" lon="4.719725">
        <ele>0.123441</ele>
        <time>2026-03-03T15:09:08.912Z</time>
      </trkpt>
      <trkpt lat="52.104290" lon="4.719631">
        <ele>0.095538</ele>
        <time>2026-03-03T15:09:10.436Z</time>
      </trkpt>
      <trkpt lat="52.104150" lon="4.719167">
        <ele>-0.018490</ele>
        <time>2026-03-03T15:09:16.528Z</time>
      </trkpt>
      <trkpt lat="52.103970" lon="4.718888">
        <ele>-0.107739</ele>
        <time>2026-03-03T15:09:21.202Z</time>
      </trkpt>
      <trkpt lat="52.103835" lon="4.718839">
        <ele>-0.157408</ele>
        <time>2026-03-03T15:09:23.704Z</time>
      </trkpt>
      <trkpt lat="52.103717" lon="4.718908">
        <ele>-0.202433</ele>
        <time>2026-03-03T15:09:25.951Z</time>
      </trkpt>
      <trkpt lat="52.103606" lon="4.719164">
        <ele>-0.271553</ele>
        <time>2026-03-03T15:09:29.397Z</time>
      </trkpt>
      <trkpt lat="52.103032" lon="4.720477">
        <ele>-0.912659</ele>
        <time>2026-03-03T15:09:46.621Z</time>
      </trkpt>
      <trkpt lat="52.102967" lon="4.720535">
        <ele>-0.963029</ele>
        <time>2026-03-03T15:09:47.949Z</time>
      </trkpt>
      <trkpt lat="52.102877" lon="4.720540">
        <ele>-1.024224</ele>
        <time>2026-03-03T15:09:49.533Z</time>
      </trkpt>
      <trkpt lat="52.102799" lon="4.720478">
        <ele>-1.083209</ele>
        <time>2026-03-03T15:09:51.094Z</time>
      </trkpt>
      <trkpt lat="52.102408" lon="4.719929">
        <ele>-1.434084</ele>
        <time>2026-03-03T15:10:00.718Z</time>
      </trkpt>
      <trkpt lat="52.102354" lon="4.719837">
        <ele>-1.487200</ele>
        <time>2026-03-03T15:10:02.243Z</time>
      </trkpt>
      <trkpt lat="52.102184" lon="4.719546">
        <ele>-1.546352</ele>
        <time>2026-03-03T15:10:06.999Z</time>
      </trkpt>
      <trkpt lat="52.101910" lon="4.718523">
        <ele>-1.609899</ele>
        <time>2026-03-03T15:10:20.820Z</time>
      </trkpt>
      <trkpt lat="52.101667" lon="4.717611">
        <ele>-1.666505</ele>
        <time>2026-03-03T15:10:33.579Z</time>
      </trkpt>
      <trkpt lat="52.101480" lon="4.716910">
        <ele>-1.752564</ele>
        <time>2026-03-03T15:10:42.800Z</time>
      </trkpt>
      <trkpt lat="52.100771" lon="4.714331">
        <ele>-2.376691</ele>
        <time>2026-03-03T15:11:14.857Z</time>
      </trkpt>
      <trkpt lat="52.099796" lon="4.710659">
        <ele>-2.550426</ele>
        <time>2026-03-03T15:12:04.466Z</time>
      </trkpt>
      <trkpt lat="52.099732" lon="4.710530">
        <ele>-2.547851</ele>
        <time>2026-03-03T15:12:06.519Z</time>
      </trkpt>
      <trkpt lat="52.099561" lon="4.710366">
        <ele>-2.542835</ele>
        <time>2026-03-03T15:12:10.531Z</time>
      </trkpt>
      <trkpt lat="52.099339" lon="4.711205">
        <ele>-2.528650</ele>
        <time>2026-03-03T15:12:21.952Z</time>
      </trkpt>
      <trkpt lat="52.099225" lon="4.711556">
        <ele>-2.520835</ele>
        <time>2026-03-03T15:12:26.867Z</time>
      </trkpt>
      <trkpt lat="52.098925" lon="4.712299">
        <ele>-2.490421</ele>
        <time>2026-03-03T15:12:38.012Z</time>
      </trkpt>
      <trkpt lat="52.098578" lon="4.712964">
        <ele>-2.460574</ele>
        <time>2026-03-03T15:12:49.096Z</time>
      </trkpt>
      <trkpt lat="52.098309" lon="4.713397">
        <ele>-2.439508</ele>
        <time>2026-03-03T15:12:56.863Z</time>
      </trkpt>
      <trkpt lat="52.098058" lon="4.713734">
        <ele>-2.420222</ele>
        <time>2026-03-03T15:13:03.411Z</time>
      </trkpt>
      <trkpt lat="52.097549" lon="4.714278">
        <ele>-2.369152</ele>
        <time>2026-03-03T15:13:15.751Z</time>
      </trkpt>
      <trkpt lat="52.097129" lon="4.714627">
        <ele>-2.329601</ele>
        <time>2026-03-03T15:13:25.436Z</time>
      </trkpt>
      <trkpt lat="52.095104" lon="4.715906">
        <ele>-2.100950</ele>
        <time>2026-03-03T15:14:10.899Z</time>
      </trkpt>
      <trkpt lat="52.094251" lon="4.712050">
        <ele>-2.230906</ele>
        <time>2026-03-03T15:15:00.696Z</time>
      </trkpt>
      <trkpt lat="52.093667" lon="4.709403">
        <ele>-2.199643</ele>
        <time>2026-03-03T15:15:36.117Z</time>
      </trkpt>
      <trkpt lat="52.093585" lon="4.708828">
        <ele>-2.194864</ele>
        <time>2026-03-03T15:15:43.729Z</time>
      </trkpt>
      <trkpt lat="52.093566" lon="4.708709">
        <ele>-2.193868</ele>
        <time>2026-03-03T15:15:45.363Z</time>
      </trkpt>
      <trkpt lat="52.093236" lon="4.707122">
        <ele>-2.184487</ele>
        <time>2026-03-03T15:16:06.023Z</time>
      </trkpt>
      <trkpt lat="52.093189" lon="4.706948">
        <ele>-2.217573</ele>
        <time>2026-03-03T15:16:08.316Z</time>
      </trkpt>
      <trkpt lat="52.093009" lon="4.706681">
        <ele>-2.286571</ele>
        <time>2026-03-03T15:16:12.965Z</time>
      </trkpt>
      <trkpt lat="52.092731" lon="4.706443">
        <ele>-2.375565</ele>
        <time>2026-03-03T15:16:18.800Z</time>
      </trkpt>
      <trkpt lat="52.091519" lon="4.705440">
        <ele>-2.677022</ele>
        <time>2026-03-03T15:16:44.641Z</time>
      </trkpt>
      <trkpt lat="52.091390" lon="4.705412">
        <ele>-2.670212</ele>
        <time>2026-03-03T15:16:46.579Z</time>
      </trkpt>
      <trkpt lat="52.091074" lon="4.705163">
        <ele>-2.651840</ele>
        <time>2026-03-03T15:16:51.898Z</time>
      </trkpt>
      <trkpt lat="52.090361" lon="4.704572">
        <ele>-2.609970</ele>
        <time>2026-03-03T15:17:04.663Z</time>
      </trkpt>
      <trkpt lat="52.088232" lon="4.702825">
        <ele>-2.399669</ele>
        <time>2026-03-03T15:17:40.827Z</time>
      </trkpt>
      <trkpt lat="52.086151" lon="4.701026">
        <ele>-2.298565</ele>
        <time>2026-03-03T15:18:16.606Z</time>
      </trkpt>
      <trkpt lat="52.085381" lon="4.700394">
        <ele>-2.322408</ele>
        <time>2026-03-03T15:18:28.793Z</time>
      </trkpt>
      <trkpt lat="52.085154" lon="4.700279">
        <ele>-2.324128</ele>
        <time>2026-03-03T15:18:32.160Z</time>
      </trkpt>
      <trkpt lat="52.084857" lon="4.700194">
        <ele>-2.324206</ele>
        <time>2026-03-03T15:18:36.488Z</time>
      </trkpt>
      <trkpt lat="52.084293" lon="4.700013">
        <ele>-2.324353</ele>
        <time>2026-03-03T15:18:44.939Z</time>
      </trkpt>
      <trkpt lat="52.083729" lon="4.699836">
        <ele>-2.324500</ele>
        <time>2026-03-03T15:18:53.766Z</time>
      </trkpt>
      <trkpt lat="52.082435" lon="4.699408">
        <ele>-2.469939</ele>
        <time>2026-03-03T15:19:13.337Z</time>
      </trkpt>
      <trkpt lat="52.082363" lon="4.699329">
        <ele>-2.480920</ele>
        <time>2026-03-03T15:19:14.535Z</time>
      </trkpt>
      <trkpt lat="52.081356" lon="4.699016">
        <ele>-2.652556</ele>
        <time>2026-03-03T15:19:28.540Z</time>
      </trkpt>
      <trkpt lat="52.079815" lon="4.698505">
        <ele>-2.966307</ele>
        <time>2026-03-03T15:19:51.017Z</time>
      </trkpt>
      <trkpt lat="52.075464" lon="4.697154">
        <ele>-3.859254</ele>
        <time>2026-03-03T15:20:55.058Z</time>
      </trkpt>
      <trkpt lat="52.075035" lon="4.697031">
        <ele>-4.085655</ele>
        <time>2026-03-03T15:21:00.306Z</time>
      </trkpt>
      <trkpt lat="52.074816" lon="4.696957">
        <ele>-4.201905</ele>
        <time>2026-03-03T15:21:02.990Z</time>
      </trkpt>
      <trkpt lat="52.074040" lon="4.696682">
        <ele>-4.844039</ele>
        <time>2026-03-03T15:21:12.431Z</time>
      </trkpt>
      <trkpt lat="52.073987" lon="4.696693">
        <ele>-4.888728</ele>
        <time>2026-03-03T15:21:13.067Z</time>
      </trkpt>
      <trkpt lat="52.073910" lon="4.696771">
        <ele>-4.964595</ele>
        <time>2026-03-03T15:21:14.172Z</time>
      </trkpt>
      <trkpt lat="52.073853" lon="4.696633">
        <ele>-5.050071</ele>
        <time>2026-03-03T15:21:15.434Z</time>
      </trkpt>
      <trkpt lat="52.073727" lon="4.696509">
        <ele>-5.173239</ele>
        <time>2026-03-03T15:21:17.262Z</time>
      </trkpt>
      <trkpt lat="52.073359" lon="4.696307">
        <ele>-5.498085</ele>
        <time>2026-03-03T15:21:22.248Z</time>
      </trkpt>
      <trkpt lat="52.073307" lon="4.696173">
        <ele>-5.579555</ele>
        <time>2026-03-03T15:21:23.567Z</time>
      </trkpt>
      <trkpt lat="52.073317" lon="4.695986">
        <ele>-5.676055</ele>
        <time>2026-03-03T15:21:25.121Z</time>
      </trkpt>
      <trkpt lat="52.070853" lon="4.695224">
        <ele>-6.081182</ele>
        <time>2026-03-03T15:22:01.078Z</time>
      </trkpt>
      <trkpt lat="52.070748" lon="4.695190">
        <ele>-6.078607</ele>
        <time>2026-03-03T15:22:02.639Z</time>
      </trkpt>
      <trkpt lat="52.070355" lon="4.695069">
        <ele>-6.068988</ele>
        <time>2026-03-03T15:22:08.495Z</time>
      </trkpt>
      <trkpt lat="52.068992" lon="4.694648">
        <ele>-5.916957</ele>
        <time>2026-03-03T15:22:30.238Z</time>
      </trkpt>
      <trkpt lat="52.068626" lon="4.694535">
        <ele>-5.847073</ele>
        <time>2026-03-03T15:22:36.137Z</time>
      </trkpt>
      <trkpt lat="52.068375" lon="4.694361">
        <ele>-5.795891</ele>
        <time>2026-03-03T15:22:40.349Z</time>
      </trkpt>
      <trkpt lat="52.068231" lon="4.694141">
        <ele>-5.758832</ele>
        <time>2026-03-03T15:22:43.352Z</time>
      </trkpt>
      <trkpt lat="52.068162" lon="4.693925">
        <ele>-5.730762</ele>
        <time>2026-03-03T15:22:45.621Z</time>
      </trkpt>
      <trkpt lat="52.068140" lon="4.693773">
        <ele>-5.714569</ele>
        <time>2026-03-03T15:22:47.087Z</time>
      </trkpt>
      <trkpt lat="52.068148" lon="4.693416">
        <ele>-5.699055</ele>
        <time>2026-03-03T15:22:50.375Z</time>
      </trkpt>
      <trkpt lat="52.068173" lon="4.693187">
        <ele>-5.688954</ele>
        <time>2026-03-03T15:22:52.504Z</time>
      </trkpt>
      <trkpt lat="52.069445" lon="4.687318">
        <ele>-5.040507</ele>
        <time>2026-03-03T15:23:50.312Z</time>
      </trkpt>
      <trkpt lat="52.069572" lon="4.686959">
        <ele>-4.876671</ele>
        <time>2026-03-03T15:23:54.892Z</time>
      </trkpt>
      <trkpt lat="52.069934" lon="4.686293">
        <ele>-4.525024</ele>
        <time>2026-03-03T15:24:05.119Z</time>
      </trkpt>
      <trkpt lat="52.070068" lon="4.685845">
        <ele>-4.327958</ele>
        <time>2026-03-03T15:24:11.017Z</time>
      </trkpt>
      <trkpt lat="52.070096" lon="4.685621">
        <ele>-4.238964</ele>
        <time>2026-03-03T15:24:13.686Z</time>
      </trkpt>
      <trkpt lat="52.070103" lon="4.685563">
        <ele>-4.216516</ele>
        <time>2026-03-03T15:24:14.404Z</time>
      </trkpt>
      <trkpt lat="52.069305" lon="4.685323">
        <ele>-3.715114</ele>
        <time>2026-03-03T15:24:34.099Z</time>
      </trkpt>
      <trkpt lat="52.069026" lon="4.685272">
        <ele>-3.541648</ele>
        <time>2026-03-03T15:24:40.524Z</time>
      </trkpt>
      <trkpt lat="52.067964" lon="4.684956">
        <ele>-3.216187</ele>
        <time>2026-03-03T15:25:02.627Z</time>
      </trkpt>
      <trkpt lat="52.063500" lon="4.683500">
        <ele>-3.674461</ele>
        <time>2026-03-03T15:26:31.949Z</time>
      </trkpt>
      <trkpt lat="52.061500" lon="4.682900">
        <ele>-3.257748</ele>
        <time>2026-03-03T15:27:14.636Z</time>
      </trkpt>
      <trkpt lat="52.059963" lon="4.682383">
        <ele>-2.536042</ele>
        <time>2026-03-03T15:27:50.685Z</time>
      </trkpt>
      <trkpt lat="52.059114" lon="4.682097">
        <ele>-2.454148</ele>
        <time>2026-03-03T15:28:08.438Z</time>
      </trkpt>
      <trkpt lat="52.058950" lon="4.682047">
        <ele>-2.486641</ele>
        <time>2026-03-03T15:28:11.679Z</time>
      </trkpt>
      <trkpt lat="52.058092" lon="4.681792">
        <ele>-2.656491</ele>
        <time>2026-03-03T15:28:28.595Z</time>
      </trkpt>
      <trkpt lat="52.057129" lon="4.681466">
        <ele>-3.141636</ele>
        <time>2026-03-03T15:28:41.407Z</time>
      </trkpt>
      <trkpt lat="52.057064" lon="4.681757">
        <ele>-3.256440</ele>
        <time>2026-03-03T15:28:43.786Z</time>
      </trkpt>
      <trkpt lat="52.056908" lon="4.682480">
        <ele>-3.540560</ele>
        <time>2026-03-03T15:28:49.641Z</time>
      </trkpt>
      <trkpt lat="52.056054" lon="4.686507">
        <ele>-4.210869</ele>
        <time>2026-03-03T15:29:25.514Z</time>
      </trkpt>
      <trkpt lat="52.055959" lon="4.686938">
        <ele>-4.115549</ele>
        <time>2026-03-03T15:29:30.061Z</time>
      </trkpt>
      <trkpt lat="52.055859" lon="4.687377">
        <ele>-4.018083</ele>
        <time>2026-03-03T15:29:34.765Z</time>
      </trkpt>
      <trkpt lat="52.055809" lon="4.687614">
        <ele>-3.965918</ele>
        <time>2026-03-03T15:29:37.320Z</time>
      </trkpt>
      <trkpt lat="52.055796" lon="4.687673">
        <ele>-3.952870</ele>
        <time>2026-03-03T15:29:37.950Z</time>
      </trkpt>
      <trkpt lat="52.055689" lon="4.688173">
        <ele>-3.842650</ele>
        <time>2026-03-03T15:29:43.626Z</time>
      </trkpt>
      <trkpt lat="52.055543" lon="4.688846">
        <ele>-3.624370</ele>
        <time>2026-03-03T15:29:51.623Z</time>
      </trkpt>
      <trkpt lat="52.055465" lon="4.689205">
        <ele>-3.419794</ele>
        <time>2026-03-03T15:29:56.041Z</time>
      </trkpt>
      <trkpt lat="52.055372" lon="4.689669">
        <ele>-3.157580</ele>
        <time>2026-03-03T15:30:01.947Z</time>
      </trkpt>
      <trkpt lat="52.055336" lon="4.689823">
        <ele>-3.069059</ele>
        <time>2026-03-03T15:30:03.956Z</time>
      </trkpt>
      <trkpt lat="52.055219" lon="4.690333">
        <ele>-2.776588</ele>
        <time>2026-03-03T15:30:10.537Z</time>
      </trkpt>
      <trkpt lat="52.055182" lon="4.690496">
        <ele>-2.683232</ele>
        <time>2026-03-03T15:30:12.579Z</time>
      </trkpt>
      <trkpt lat="52.055152" lon="4.690631">
        <ele>-2.606105</ele>
        <time>2026-03-03T15:30:14.237Z</time>
      </trkpt>
      <trkpt lat="52.055064" lon="4.690819">
        <ele>-2.479156</ele>
        <time>2026-03-03T15:30:16.916Z</time>
      </trkpt>
      <trkpt lat="52.054447" lon="4.690621">
        <ele>-2.201093</ele>
        <time>2026-03-03T15:30:30.915Z</time>
      </trkpt>
      <trkpt lat="52.053302" lon="4.690287">
        <ele>-2.349409</ele>
        <time>2026-03-03T15:30:46.628Z</time>
      </trkpt>
      <trkpt lat="52.048947" lon="4.688969">
        <ele>-2.738339</ele>
        <time>2026-03-03T15:31:51.010Z</time>
      </trkpt>
      <trkpt lat="52.048550" lon="4.688851">
        <ele>-2.790707</ele>
        <time>2026-03-03T15:31:56.604Z</time>
      </trkpt>
      <trkpt lat="52.047541" lon="4.688551">
        <ele>-2.897491</ele>
        <time>2026-03-03T15:32:10.977Z</time>
      </trkpt>
      <trkpt lat="52.044042" lon="4.687482">
        <ele>-2.302761</ele>
        <time>2026-03-03T15:33:06.881Z</time>
      </trkpt>
      <trkpt lat="52.043955" lon="4.687448">
        <ele>-2.297467</ele>
        <time>2026-03-03T15:33:08.270Z</time>
      </trkpt>
      <trkpt lat="52.043852" lon="4.687340">
        <ele>-2.290216</ele>
        <time>2026-03-03T15:33:10.146Z</time>
      </trkpt>
      <trkpt lat="52.043747" lon="4.687371">
        <ele>-2.283901</ele>
        <time>2026-03-03T15:33:11.809Z</time>
      </trkpt>
      <trkpt lat="52.043543" lon="4.687350">
        <ele>-2.271807</ele>
        <time>2026-03-03T15:33:14.910Z</time>
      </trkpt>
      <trkpt lat="52.043321" lon="4.687336">
        <ele>-2.258662</ele>
        <time>2026-03-03T15:33:18.288Z</time>
      </trkpt>
      <trkpt lat="52.043118" lon="4.687369">
        <ele>-2.246591</ele>
        <time>2026-03-03T15:33:21.351Z</time>
      </trkpt>
      <trkpt lat="52.043076" lon="4.687381">
        <ele>-2.244068</ele>
        <time>2026-03-03T15:33:21.968Z</time>
      </trkpt>
      <trkpt lat="52.043004" lon="4.687401">
        <ele>-2.239746</ele>
        <time>2026-03-03T15:33:23.066Z</time>
      </trkpt>
      <trkpt lat="52.039295" lon="4.687952">
        <ele>-2.190511</ele>
        <time>2026-03-03T15:34:18.099Z</time>
      </trkpt>
      <trkpt lat="52.038854" lon="4.688017">
        <ele>-2.187161</ele>
        <time>2026-03-03T15:34:24.783Z</time>
      </trkpt>
      <trkpt lat="52.038546" lon="4.688119">
        <ele>-2.169140</ele>
        <time>2026-03-03T15:34:29.551Z</time>
      </trkpt>
      <trkpt lat="52.036703" lon="4.689033">
        <ele>-1.959265</ele>
        <time>2026-03-03T15:34:58.583Z</time>
      </trkpt>
      <trkpt lat="52.036581" lon="4.689116">
        <ele>-1.927771</ele>
        <time>2026-03-03T15:35:00.566Z</time>
      </trkpt>
      <trkpt lat="52.036471" lon="4.689242">
        <ele>-1.895727</ele>
        <time>2026-03-03T15:35:02.599Z</time>
      </trkpt>
      <trkpt lat="52.036020" lon="4.689878">
        <ele>-1.753551</ele>
        <time>2026-03-03T15:35:11.869Z</time>
      </trkpt>
      <trkpt lat="52.035327" lon="4.690898">
        <ele>-1.451954</ele>
        <time>2026-03-03T15:35:27.358Z</time>
      </trkpt>
      <trkpt lat="52.034926" lon="4.691488">
        <ele>-1.197833</ele>
        <time>2026-03-03T15:35:36.868Z</time>
      </trkpt>
      <trkpt lat="52.034776" lon="4.691829">
        <ele>-1.076667</ele>
        <time>2026-03-03T15:35:41.286Z</time>
      </trkpt>
      <trkpt lat="52.034383" lon="4.691062">
        <ele>-0.788150</ele>
        <time>2026-03-03T15:35:51.356Z</time>
      </trkpt>
      <trkpt lat="52.033880" lon="4.690068">
        <ele>-0.766712</ele>
        <time>2026-03-03T15:36:03.841Z</time>
      </trkpt>
      <trkpt lat="52.033637" lon="4.689590">
        <ele>-0.766553</ele>
        <time>2026-03-03T15:36:09.193Z</time>
      </trkpt>
      <trkpt lat="52.033344" lon="4.689005">
        <ele>-0.766360</ele>
        <time>2026-03-03T15:36:15.607Z</time>
      </trkpt>
      <trkpt lat="52.032978" lon="4.688285">
        <ele>-0.751916</ele>
        <time>2026-03-03T15:36:23.875Z</time>
      </trkpt>
      <trkpt lat="52.032928" lon="4.688116">
        <ele>-0.747419</ele>
        <time>2026-03-03T15:36:25.555Z</time>
      </trkpt>
      <trkpt lat="52.032754" lon="4.685463">
        <ele>-0.732047</ele>
        <time>2026-03-03T15:36:50.740Z</time>
      </trkpt>
      <trkpt lat="52.032825" lon="4.684769">
        <ele>-0.779626</ele>
        <time>2026-03-03T15:36:57.076Z</time>
      </trkpt>
      <trkpt lat="52.032824" lon="4.684273">
        <ele>-0.813171</ele>
        <time>2026-03-03T15:37:01.405Z</time>
      </trkpt>
      <trkpt lat="52.032761" lon="4.683694">
        <ele>-0.852936</ele>
        <time>2026-03-03T15:37:06.438Z</time>
      </trkpt>
      <trkpt lat="52.032620" lon="4.683136">
        <ele>-0.893733</ele>
        <time>2026-03-03T15:37:11.490Z</time>
      </trkpt>
      <trkpt lat="52.032516" lon="4.682888">
        <ele>-0.913685</ele>
        <time>2026-03-03T15:37:13.972Z</time>
      </trkpt>
      <trkpt lat="52.030116" lon="4.678391">
        <ele>-1.261389</ele>
        <time>2026-03-03T15:38:07.466Z</time>
      </trkpt>
      <trkpt lat="52.029840" lon="4.678176">
        <ele>-1.343824</ele>
        <time>2026-03-03T15:38:11.932Z</time>
      </trkpt>
      <trkpt lat="52.029723" lon="4.677973">
        <ele>-1.389919</ele>
        <time>2026-03-03T15:38:14.362Z</time>
      </trkpt>
      <trkpt lat="52.029708" lon="4.677937">
        <ele>-1.397123</ele>
        <time>2026-03-03T15:38:14.881Z</time>
      </trkpt>
      <trkpt lat="52.029665" lon="4.677826">
        <ele>-1.418860</ele>
        <time>2026-03-03T15:38:16.455Z</time>
      </trkpt>
      <trkpt lat="52.029640" lon="4.677763">
        <ele>-1.431283</ele>
        <time>2026-03-03T15:38:17.356Z</time>
      </trkpt>
      <trkpt lat="52.029427" lon="4.677297">
        <ele>-1.527484</ele>
        <time>2026-03-03T15:38:22.298Z</time>
      </trkpt>
      <trkpt lat="52.029200" lon="4.676532">
        <ele>-1.668229</ele>
        <time>2026-03-03T15:38:29.344Z</time>
      </trkpt>
      <trkpt lat="52.028911" lon="4.675365">
        <ele>-1.898507</ele>
        <time>2026-03-03T15:38:39.422Z</time>
      </trkpt>
      <trkpt lat="52.028305" lon="4.672705">
        <ele>-2.130300</ele>
        <time>2026-03-03T15:39:04.652Z</time>
      </trkpt>
      <trkpt lat="52.027579" lon="4.669412">
        <ele>-1.718107</ele>
        <time>2026-03-03T15:39:38.825Z</time>
      </trkpt>
      <trkpt lat="52.027500" lon="4.668900">
        <ele>-1.633250</ele>
        <time>2026-03-03T15:39:43.864Z</time>
      </trkpt>
      <trkpt lat="52.027429" lon="4.668194">
        <ele>-1.518541</ele>
        <time>2026-03-03T15:39:50.843Z</time>
      </trkpt>
      <trkpt lat="52.027356" lon="4.667464">
        <ele>-1.548921</ele>
        <time>2026-03-03T15:39:58.275Z</time>
      </trkpt>
      <trkpt lat="52.027285" lon="4.667390">
        <ele>-1.554552</ele>
        <time>2026-03-03T15:39:59.523Z</time>
      </trkpt>
      <trkpt lat="52.027291" lon="4.667305">
        <ele>-1.558066</ele>
        <time>2026-03-03T15:40:00.282Z</time>
      </trkpt>
      <trkpt lat="52.027250" lon="4.667038">
        <ele>-1.569370</ele>
        <time>2026-03-03T15:40:02.744Z</time>
      </trkpt>
      <trkpt lat="52.027229" lon="4.666915">
        <ele>-1.574613</ele>
        <time>2026-03-03T15:40:03.813Z</time>
      </trkpt>
      <trkpt lat="52.027119" lon="4.666995">
        <ele>-1.582659</ele>
        <time>2026-03-03T15:40:05.475Z</time>
      </trkpt>
      <trkpt lat="52.026944" lon="4.667127">
        <ele>-1.595538</ele>
        <time>2026-03-03T15:40:07.941Z</time>
      </trkpt>
      <trkpt lat="52.026775" lon="4.667262">
        <ele>-1.608110</ele>
        <time>2026-03-03T15:40:10.385Z</time>
      </trkpt>
      <trkpt lat="52.026579" lon="4.667425">
        <ele>-1.622809</ele>
        <time>2026-03-03T15:40:13.473Z</time>
      </trkpt>
      <trkpt lat="52.026495" lon="4.667459">
        <ele>-1.628588</ele>
        <time>2026-03-03T15:40:14.811Z</time>
      </trkpt>
      <trkpt lat="52.026398" lon="4.667401">
        <ele>-1.635488</ele>
        <time>2026-03-03T15:40:16.398Z</time>
      </trkpt>
      <trkpt lat="52.026340" lon="4.667322">
        <ele>-1.634997</ele>
        <time>2026-03-03T15:40:17.619Z</time>
      </trkpt>
      <trkpt lat="52.026264" lon="4.667302">
        <ele>-1.625750</ele>
        <time>2026-03-03T15:40:18.801Z</time>
      </trkpt>
      <trkpt lat="52.025880" lon="4.667491">
        <ele>-1.577564</ele>
        <time>2026-03-03T15:40:24.949Z</time>
      </trkpt>
      <trkpt lat="52.025418" lon="4.667806">
        <ele>-1.517394</ele>
        <time>2026-03-03T15:40:32.160Z</time>
      </trkpt>
      <trkpt lat="52.025248" lon="4.667913">
        <ele>-1.495500</ele>
        <time>2026-03-03T15:40:34.893Z</time>
      </trkpt>
      <trkpt lat="52.024822" lon="4.668180">
        <ele>-1.440665</ele>
        <time>2026-03-03T15:40:42.264Z</time>
      </trkpt>
      <trkpt lat="52.024701" lon="4.668269">
        <ele>-1.424715</ele>
        <time>2026-03-03T15:40:44.728Z</time>
      </trkpt>
      <trkpt lat="52.024362" lon="4.668605">
        <ele>-1.332758</ele>
        <time>2026-03-03T15:40:51.312Z</time>
      </trkpt>
      <trkpt lat="52.024248" lon="4.668793">
        <ele>-1.294282</ele>
        <time>2026-03-03T15:40:53.762Z</time>
      </trkpt>
      <trkpt lat="52.024019" lon="4.669249">
        <ele>-1.208483</ele>
        <time>2026-03-03T15:40:59.124Z</time>
      </trkpt>
      <trkpt lat="52.023967" lon="4.669406">
        <ele>-1.182493</ele>
        <time>2026-03-03T15:41:00.686Z</time>
      </trkpt>
      <trkpt lat="52.023961" lon="4.669513">
        <ele>-1.166830</ele>
        <time>2026-03-03T15:41:01.652Z</time>
      </trkpt>
      <trkpt lat="52.024024" lon="4.669786">
        <ele>-1.124328</ele>
        <time>2026-03-03T15:41:05.264Z</time>
      </trkpt>
      <trkpt lat="52.024019" lon="4.669898">
        <ele>-1.107959</ele>
        <time>2026-03-03T15:41:06.640Z</time>
      </trkpt>
      <trkpt lat="52.023981" lon="4.670011">
        <ele>-1.089188</ele>
        <time>2026-03-03T15:41:08.269Z</time>
      </trkpt>
      <trkpt lat="52.023950" lon="4.670101">
        <ele>-1.074153</ele>
        <time>2026-03-03T15:41:09.587Z</time>
      </trkpt>
      <trkpt lat="52.023913" lon="4.670200">
        <ele>-1.057268</ele>
        <time>2026-03-03T15:41:11.105Z</time>
      </trkpt>
      <trkpt lat="52.024054" lon="4.670272">
        <ele>-1.022256</ele>
        <time>2026-03-03T15:41:13.640Z</time>
      </trkpt>
      <trkpt lat="52.024701" lon="4.670868">
        <ele>-0.792256</ele>
        <time>2026-03-03T15:41:26.275Z</time>
      </trkpt>
      <trkpt lat="52.024722" lon="4.670887">
        <ele>-0.784524</ele>
        <time>2026-03-03T15:41:26.658Z</time>
      </trkpt>
      <trkpt lat="52.024815" lon="4.670923">
        <ele>-0.753771</ele>
        <time>2026-03-03T15:41:28.210Z</time>
      </trkpt>
      <trkpt lat="52.024909" lon="4.670914">
        <ele>-0.723481</ele>
        <time>2026-03-03T15:41:29.721Z</time>
      </trkpt>
      <trkpt lat="52.024943" lon="4.670903">
        <ele>-0.712330</ele>
        <time>2026-03-03T15:41:30.279Z</time>
      </trkpt>
      <trkpt lat="52.025015" lon="4.670896">
        <ele>-0.689128</ele>
        <time>2026-03-03T15:41:31.446Z</time>
      </trkpt>
      <trkpt lat="52.025104" lon="4.670824">
        <ele>-0.657148</ele>
        <time>2026-03-03T15:41:33.063Z</time>
      </trkpt>
      <trkpt lat="52.025224" lon="4.670646">
        <ele>-0.604885</ele>
        <time>2026-03-03T15:41:35.683Z</time>
      </trkpt>
      <trkpt lat="52.025323" lon="4.670280">
        <ele>-0.525751</ele>
        <time>2026-03-03T15:41:39.652Z</time>
      </trkpt>
      <trkpt lat="52.025300" lon="4.670039">
        <ele>-0.477479</ele>
        <time>2026-03-03T15:41:42.082Z</time>
      </trkpt>
      <trkpt lat="52.025096" lon="4.669404">
        <ele>-0.492741</ele>
        <time>2026-03-03T15:41:48.953Z</time>
      </trkpt>
      <trkpt lat="52.024746" lon="4.668478">
        <ele>-0.688719</ele>
        <time>2026-03-03T15:41:58.398Z</time>
      </trkpt>
      <trkpt lat="52.024714" lon="4.668385">
        <ele>-0.707934</ele>
        <time>2026-03-03T15:41:59.278Z</time>
      </trkpt>
      <trkpt lat="52.024286" lon="4.667175">
        <ele>-0.991537</ele>
        <time>2026-03-03T15:42:10.664Z</time>
      </trkpt>
      <trkpt lat="52.023730" lon="4.665629">
        <ele>-2.019430</ele>
        <time>2026-03-03T15:42:30.231Z</time>
      </trkpt>
      <trkpt lat="52.023618" lon="4.665261">
        <ele>-2.255098</ele>
        <time>2026-03-03T15:42:33.374Z</time>
      </trkpt>
      <trkpt lat="52.023232" lon="4.663713">
        <ele>-3.520577</ele>
        <time>2026-03-03T15:42:45.280Z</time>
      </trkpt>
      <trkpt lat="52.023156" lon="4.663409">
        <ele>-3.806685</ele>
        <time>2026-03-03T15:42:48.587Z</time>
      </trkpt>
      <trkpt lat="52.022581" lon="4.663228">
        <ele>-4.636596</ele>
        <time>2026-03-03T15:42:58.231Z</time>
      </trkpt>
      <trkpt lat="52.022403" lon="4.663171">
        <ele>-4.893669</ele>
        <time>2026-03-03T15:43:01.174Z</time>
      </trkpt>
      <trkpt lat="52.022332" lon="4.663142">
        <ele>-4.997404</ele>
        <time>2026-03-03T15:43:02.390Z</time>
      </trkpt>
      <trkpt lat="52.022275" lon="4.663067">
        <ele>-5.101328</ele>
        <time>2026-03-03T15:43:03.572Z</time>
      </trkpt>
      <trkpt lat="52.022210" lon="4.662961">
        <ele>-5.191137</ele>
        <time>2026-03-03T15:43:04.625Z</time>
      </trkpt>
      <trkpt lat="52.022080" lon="4.663168">
        <ele>-5.274968</ele>
        <time>2026-03-03T15:43:07.685Z</time>
      </trkpt>
      <trkpt lat="52.021985" lon="4.663324">
        <ele>-5.337174</ele>
        <time>2026-03-03T15:43:10.016Z</time>
      </trkpt>
      <trkpt lat="52.021938" lon="4.663400">
        <ele>-5.367714</ele>
        <time>2026-03-03T15:43:11.162Z</time>
      </trkpt>
      <trkpt lat="52.021637" lon="4.663893">
        <ele>-5.564555</ele>
        <time>2026-03-03T15:43:19.030Z</time>
      </trkpt>
      <trkpt lat="52.021154" lon="4.664685">
        <ele>-5.880600</ele>
        <time>2026-03-03T15:43:32.824Z</time>
      </trkpt>
      <trkpt lat="52.020812" lon="4.665246">
        <ele>-6.024193</ele>
        <time>2026-03-03T15:43:42.780Z</time>
      </trkpt>
      <trkpt lat="52.020766" lon="4.665323">
        <ele>-6.031240</ele>
        <time>2026-03-03T15:43:44.087Z</time>
      </trkpt>
      <trkpt lat="52.020586" lon="4.665579">
        <ele>-6.056765</ele>
        <time>2026-03-03T15:43:48.991Z</time>
      </trkpt>
      <trkpt lat="52.020489" lon="4.665670">
        <ele>-6.068717</ele>
        <time>2026-03-03T15:43:51.262Z</time>
      </trkpt>
      <trkpt lat="52.020299" lon="4.665745">
        <ele>-6.089582</ele>
        <time>2026-03-03T15:43:55.230Z</time>
      </trkpt>
      <trkpt lat="52.020152" lon="4.665728">
        <ele>-6.105308</ele>
        <time>2026-03-03T15:43:58.195Z</time>
      </trkpt>
      <trkpt lat="52.019770" lon="4.665531">
        <ele>-6.148074</ele>
        <time>2026-03-03T15:44:05.928Z</time>
      </trkpt>
      <trkpt lat="52.019511" lon="4.665360">
        <ele>-6.177906</ele>
        <time>2026-03-03T15:44:11.327Z</time>
      </trkpt>
      <trkpt lat="52.019052" lon="4.664964">
        <ele>-6.195259</ele>
        <time>2026-03-03T15:44:21.434Z</time>
      </trkpt>
      <trkpt lat="52.018460" lon="4.664309">
        <ele>-6.201394</ele>
        <time>2026-03-03T15:44:35.661Z</time>
      </trkpt>
      <trkpt lat="52.018249" lon="4.664076">
        <ele>-6.203580</ele>
        <time>2026-03-03T15:44:40.884Z</time>
      </trkpt>
      <trkpt lat="52.017653" lon="4.663484">
        <ele>-6.073853</ele>
        <time>2026-03-03T15:44:55.406Z</time>
      </trkpt>
      <trkpt lat="52.017522" lon="4.663340">
        <ele>-5.992477</ele>
        <time>2026-03-03T15:44:58.709Z</time>
      </trkpt>
      <trkpt lat="52.017090" lon="4.662888">
        <ele>-5.728109</ele>
        <time>2026-03-03T15:45:10.258Z</time>
      </trkpt>
      <trkpt lat="52.016914" lon="4.662704">
        <ele>-5.620428</ele>
        <time>2026-03-03T15:45:15.123Z</time>
      </trkpt>
      <trkpt lat="52.016791" lon="4.662532">
        <ele>-5.536933</ele>
        <time>2026-03-03T15:45:18.955Z</time>
      </trkpt>
      <trkpt lat="52.016776" lon="4.662708">
        <ele>-5.480670</ele>
        <time>2026-03-03T15:45:21.484Z</time>
      </trkpt>
      <trkpt lat="52.016730" lon="4.663229">
        <ele>-5.314005</ele>
        <time>2026-03-03T15:45:29.029Z</time>
      </trkpt>
      <trkpt lat="52.016781" lon="4.663508">
        <ele>-5.240725</ele>
        <time>2026-03-03T15:45:33.130Z</time>
      </trkpt>
      <trkpt lat="52.016733" lon="4.663828">
        <ele>-5.169219</ele>
        <time>2026-03-03T15:45:37.716Z</time>
      </trkpt>
      <trkpt lat="52.016682" lon="4.663795">
        <ele>-5.149855</ele>
        <time>2026-03-03T15:45:38.638Z</time>
      </trkpt>
      <trkpt lat="52.016606" lon="4.663760">
        <ele>-5.121989</ele>
        <time>2026-03-03T15:45:40.045Z</time>
      </trkpt>
      <trkpt lat="52.016494" lon="4.663746">
        <ele>-5.082363</ele>
        <time>2026-03-03T15:45:42.000Z</time>
      </trkpt>
      <trkpt lat="52.016305" lon="4.663786">
        <ele>-5.015128</ele>
        <time>2026-03-03T15:45:45.258Z</time>
      </trkpt>
      <trkpt lat="52.015940" lon="4.663715">
        <ele>-4.885450</ele>
        <time>2026-03-03T15:45:51.250Z</time>
      </trkpt>
      <trkpt lat="52.015415" lon="4.663736">
        <ele>-4.700195</ele>
        <time>2026-03-03T15:45:59.111Z</time>
      </trkpt>
      <trkpt lat="52.014756" lon="4.663901">
        <ele>-4.616359</ele>
        <time>2026-03-03T15:46:08.728Z</time>
      </trkpt>
      <trkpt lat="52.014189" lon="4.664234">
        <ele>-4.580161</ele>
        <time>2026-03-03T15:46:17.510Z</time>
      </trkpt>
      <trkpt lat="52.013469" lon="4.664837">
        <ele>-4.545662</ele>
        <time>2026-03-03T15:46:30.147Z</time>
      </trkpt>
      <trkpt lat="52.013076" lon="4.665298">
        <ele>-4.568692</ele>
        <time>2026-03-03T15:46:38.506Z</time>
      </trkpt>
      <trkpt lat="52.012858" lon="4.665606">
        <ele>-4.582417</ele>
        <time>2026-03-03T15:46:43.061Z</time>
      </trkpt>
      <trkpt lat="52.012437" lon="4.666477">
        <ele>-4.614803</ele>
        <time>2026-03-03T15:46:52.386Z</time>
      </trkpt>
      <trkpt lat="52.011980" lon="4.667466">
        <ele>-4.850809</ele>
        <time>2026-03-03T15:47:02.422Z</time>
      </trkpt>
      <trkpt lat="52.011641" lon="4.668078">
        <ele>-5.059281</ele>
        <time>2026-03-03T15:47:08.842Z</time>
      </trkpt>
      <trkpt lat="52.011065" lon="4.669319">
        <ele>-5.422748</ele>
        <time>2026-03-03T15:47:22.349Z</time>
      </trkpt>
      <trkpt lat="52.010668" lon="4.670178">
        <ele>-5.601789</ele>
        <time>2026-03-03T15:47:31.693Z</time>
      </trkpt>
      <trkpt lat="52.010597" lon="4.670263">
        <ele>-5.625671</ele>
        <time>2026-03-03T15:47:32.909Z</time>
      </trkpt>
      <trkpt lat="52.010502" lon="4.670237">
        <ele>-5.651758</ele>
        <time>2026-03-03T15:47:34.225Z</time>
      </trkpt>
      <trkpt lat="52.010464" lon="4.670078">
        <ele>-5.680187</ele>
        <time>2026-03-03T15:47:36.214Z</time>
      </trkpt>
      <trkpt lat="52.010354" lon="4.670070">
        <ele>-5.710004</ele>
        <time>2026-03-03T15:47:38.289Z</time>
      </trkpt>
      <trkpt lat="52.010292" lon="4.670066">
        <ele>-5.726806</ele>
        <time>2026-03-03T15:47:39.444Z</time>
      </trkpt>
      <trkpt lat="52.010187" lon="4.670053">
        <ele>-5.755321</ele>
        <time>2026-03-03T15:47:41.424Z</time>
      </trkpt>
      <trkpt lat="52.010155" lon="4.670167">
        <ele>-5.776205</ele>
        <time>2026-03-03T15:47:42.456Z</time>
      </trkpt>
      <trkpt lat="52.009995" lon="4.670158">
        <ele>-5.819557</ele>
        <time>2026-03-03T15:47:44.641Z</time>
      </trkpt>
      <trkpt lat="52.009962" lon="4.670200">
        <ele>-5.830909</ele>
        <time>2026-03-03T15:47:45.210Z</time>
      </trkpt>
      <trkpt lat="52.009947" lon="4.670335">
        <ele>-5.852301</ele>
        <time>2026-03-03T15:47:46.391Z</time>
      </trkpt>
      <trkpt lat="52.009934" lon="4.670454">
        <ele>-5.857041</ele>
        <time>2026-03-03T15:47:47.424Z</time>
      </trkpt>
      <trkpt lat="52.010070" lon="4.670527">
        <ele>-5.866168</ele>
        <time>2026-03-03T15:47:49.435Z</time>
      </trkpt>
      <trkpt lat="52.010093" lon="4.670617">
        <ele>-5.869990</ele>
        <time>2026-03-03T15:47:50.301Z</time>
      </trkpt>
      <trkpt lat="52.009992" lon="4.671425">
        <ele>-5.902329</ele>
        <time>2026-03-03T15:47:57.734Z</time>
      </trkpt>
      <trkpt lat="52.009760" lon="4.672219">
        <ele>-5.936802</ele>
        <time>2026-03-03T15:48:05.852Z</time>
      </trkpt>
      <trkpt lat="52.007007" lon="4.678269">
        <ele>-5.537140</ele>
        <time>2026-03-03T15:49:15.421Z</time>
      </trkpt>
      <trkpt lat="52.006421" lon="4.679577">
        <ele>-5.199927</ele>
        <time>2026-03-03T15:49:31.658Z</time>
      </trkpt>
      <trkpt lat="52.006164" lon="4.680284">
        <ele>-4.996973</ele>
        <time>2026-03-03T15:49:40.919Z</time>
      </trkpt>
      <trkpt lat="52.005909" lon="4.681190">
        <ele>-4.717359</ele>
        <time>2026-03-03T15:49:51.527Z</time>
      </trkpt>
      <trkpt lat="52.005821" lon="4.681456">
        <ele>-4.632600</ele>
        <time>2026-03-03T15:49:54.721Z</time>
      </trkpt>
      <trkpt lat="52.005698" lon="4.681825">
        <ele>-4.514820</ele>
        <time>2026-03-03T15:49:59.105Z</time>
      </trkpt>
      <trkpt lat="52.005535" lon="4.682305">
        <ele>-4.360954</ele>
        <time>2026-03-03T15:50:04.577Z</time>
      </trkpt>
      <trkpt lat="52.004902" lon="4.684117">
        <ele>-4.490484</ele>
        <time>2026-03-03T15:50:22.668Z</time>
      </trkpt>
      <trkpt lat="52.004768" lon="4.684379">
        <ele>-4.525138</ele>
        <time>2026-03-03T15:50:25.825Z</time>
      </trkpt>
      <trkpt lat="52.004649" lon="4.684544">
        <ele>-4.550993</ele>
        <time>2026-03-03T15:50:28.045Z</time>
      </trkpt>
      <trkpt lat="52.004571" lon="4.684573">
        <ele>-4.564217</ele>
        <time>2026-03-03T15:50:29.128Z</time>
      </trkpt>
      <trkpt lat="52.004434" lon="4.684527">
        <ele>-4.587336</ele>
        <time>2026-03-03T15:50:31.032Z</time>
      </trkpt>
      <trkpt lat="52.004378" lon="4.684596">
        <ele>-4.599125</ele>
        <time>2026-03-03T15:50:32.013Z</time>
      </trkpt>
      <trkpt lat="52.004333" lon="4.684675">
        <ele>-4.611595</ele>
        <time>2026-03-03T15:50:32.893Z</time>
      </trkpt>
      <trkpt lat="52.004301" lon="4.684735">
        <ele>-4.620792</ele>
        <time>2026-03-03T15:50:33.524Z</time>
      </trkpt>
      <trkpt lat="52.004298" lon="4.684810">
        <ele>-4.629500</ele>
        <time>2026-03-03T15:50:34.192Z</time>
      </trkpt>
      <trkpt lat="52.004379" lon="4.685285">
        <ele>-4.686604</ele>
        <time>2026-03-03T15:50:38.199Z</time>
      </trkpt>
      <trkpt lat="52.004324" lon="4.685634">
        <ele>-4.728341</ele>
        <time>2026-03-03T15:50:41.061Z</time>
      </trkpt>
      <trkpt lat="52.004184" lon="4.686104">
        <ele>-4.788833</ele>
        <time>2026-03-03T15:50:45.256Z</time>
      </trkpt>
      <trkpt lat="52.004046" lon="4.686428">
        <ele>-4.834479</ele>
        <time>2026-03-03T15:50:48.896Z</time>
      </trkpt>
      <trkpt lat="52.003723" lon="4.686961">
        <ele>-4.921131</ele>
        <time>2026-03-03T15:50:55.984Z</time>
      </trkpt>
      <trkpt lat="52.003421" lon="4.687621">
        <ele>-4.800369</ele>
        <time>2026-03-03T15:51:04.411Z</time>
      </trkpt>
      <trkpt lat="52.002877" lon="4.688838">
        <ele>-4.505243</ele>
        <time>2026-03-03T15:51:19.037Z</time>
      </trkpt>
      <trkpt lat="52.002818" lon="4.689179">
        <ele>-4.435736</ele>
        <time>2026-03-03T15:51:22.376Z</time>
      </trkpt>
      <trkpt lat="52.002654" lon="4.689930">
        <ele>-4.061050</ele>
        <time>2026-03-03T15:51:30.748Z</time>
      </trkpt>
      <trkpt lat="52.002233" lon="4.690513">
        <ele>-3.423724</ele>
        <time>2026-03-03T15:51:40.493Z</time>
      </trkpt>
      <trkpt lat="52.002235" lon="4.690652">
        <ele>-3.325116</ele>
        <time>2026-03-03T15:51:42.066Z</time>
      </trkpt>
      <trkpt lat="52.002261" lon="4.690734">
        <ele>-3.259700</ele>
        <time>2026-03-03T15:51:43.146Z</time>
      </trkpt>
      <trkpt lat="52.002276" lon="4.690779">
        <ele>-3.223407</ele>
        <time>2026-03-03T15:51:43.771Z</time>
      </trkpt>
      <trkpt lat="52.002414" lon="4.691204">
        <ele>-2.882633</ele>
        <time>2026-03-03T15:51:49.887Z</time>
      </trkpt>
      <trkpt lat="52.002351" lon="4.692066">
        <ele>-2.264646</ele>
        <time>2026-03-03T15:52:02.018Z</time>
      </trkpt>
      <trkpt lat="52.002139" lon="4.692309">
        <ele>-1.936245</ele>
        <time>2026-03-03T15:52:07.976Z</time>
      </trkpt>
      <trkpt lat="52.002069" lon="4.692371">
        <ele>-1.835333</ele>
        <time>2026-03-03T15:52:09.696Z</time>
      </trkpt>
      <trkpt lat="52.001752" lon="4.692436">
        <ele>-1.430932</ele>
        <time>2026-03-03T15:52:16.330Z</time>
      </trkpt>
      <trkpt lat="52.001516" lon="4.692395">
        <ele>-1.130530</ele>
        <time>2026-03-03T15:52:21.143Z</time>
      </trkpt>
      <trkpt lat="52.001186" lon="4.692324">
        <ele>-0.709211</ele>
        <time>2026-03-03T15:52:27.558Z</time>
      </trkpt>
      <trkpt lat="52.001117" lon="4.692318">
        <ele>-0.621754</ele>
        <time>2026-03-03T15:52:28.822Z</time>
      </trkpt>
      <trkpt lat="52.001020" lon="4.692364">
        <ele>-0.493859</ele>
        <time>2026-03-03T15:52:30.672Z</time>
      </trkpt>
      <trkpt lat="52.000869" lon="4.692336">
        <ele>-0.301502</ele>
        <time>2026-03-03T15:52:33.425Z</time>
      </trkpt>
      <trkpt lat="52.000829" lon="4.692435">
        <ele>-0.209231</ele>
        <time>2026-03-03T15:52:34.743Z</time>
      </trkpt>
      <trkpt lat="52.000797" lon="4.692524">
        <ele>-0.128920</ele>
        <time>2026-03-03T15:52:35.884Z</time>
      </trkpt>
      <trkpt lat="52.000777" lon="4.692647">
        <ele>-0.029791</ele>
        <time>2026-03-03T15:52:37.281Z</time>
      </trkpt>
      <trkpt lat="52.000902" lon="4.692990">
        <ele>0.075541</ele>
        <time>2026-03-03T15:52:41.594Z</time>
      </trkpt>
      <trkpt lat="52.000895" lon="4.693315">
        <ele>0.152701</ele>
        <time>2026-03-03T15:52:44.932Z</time>
      </trkpt>
      <trkpt lat="52.000872" lon="4.693531">
        <ele>0.204712</ele>
        <time>2026-03-03T15:52:47.077Z</time>
      </trkpt>
      <trkpt lat="52.000847" lon="4.693729">
        <ele>0.252669</ele>
        <time>2026-03-03T15:52:49.056Z</time>
      </trkpt>
      <trkpt lat="52.000796" lon="4.693985">
        <ele>0.316511</ele>
        <time>2026-03-03T15:52:51.715Z</time>
      </trkpt>
      <trkpt lat="52.000724" lon="4.694313">
        <ele>0.399134</ele>
        <time>2026-03-03T15:52:55.142Z</time>
      </trkpt>
      <trkpt lat="52.000625" lon="4.694439">
        <ele>0.447606</ele>
        <time>2026-03-03T15:52:57.144Z</time>
      </trkpt>
      <trkpt lat="52.000504" lon="4.694560">
        <ele>0.502368</ele>
        <time>2026-03-03T15:52:59.341Z</time>
      </trkpt>
      <trkpt lat="52.000487" lon="4.694656">
        <ele>0.526070</ele>
        <time>2026-03-03T15:53:00.284Z</time>
      </trkpt>
      <trkpt lat="52.000482" lon="4.694717">
        <ele>0.540671</ele>
        <time>2026-03-03T15:53:00.864Z</time>
      </trkpt>
      <trkpt lat="52.000445" lon="4.694879">
        <ele>0.581669</ele>
        <time>2026-03-03T15:53:02.521Z</time>
      </trkpt>
      <trkpt lat="52.000440" lon="4.694941">
        <ele>0.596505</ele>
        <time>2026-03-03T15:53:03.103Z</time>
      </trkpt>
      <trkpt lat="52.000434" lon="4.695051">
        <ele>0.622707</ele>
        <time>2026-03-03T15:53:04.175Z</time>
      </trkpt>
      <trkpt lat="51.999275" lon="4.694738">
        <ele>0.879260</ele>
        <time>2026-03-03T15:53:23.169Z</time>
      </trkpt>
      <trkpt lat="51.998735" lon="4.694654">
        <ele>0.984883</ele>
        <time>2026-03-03T15:53:31.505Z</time>
      </trkpt>
      <trkpt lat="51.998174" lon="4.694656">
        <ele>1.034217</ele>
        <time>2026-03-03T15:53:39.496Z</time>
      </trkpt>
      <trkpt lat="51.997645" lon="4.694784">
        <ele>1.042445</ele>
        <time>2026-03-03T15:53:47.490Z</time>
      </trkpt>
      <trkpt lat="51.997390" lon="4.694804">
        <ele>1.046372</ele>
        <time>2026-03-03T15:53:51.402Z</time>
      </trkpt>
      <trkpt lat="51.997294" lon="4.694842">
        <ele>1.047892</ele>
        <time>2026-03-03T15:53:52.923Z</time>
      </trkpt>
      <trkpt lat="51.996847" lon="4.694998">
        <ele>1.054926</ele>
        <time>2026-03-03T15:54:00.151Z</time>
      </trkpt>
      <trkpt lat="51.996473" lon="4.695128">
        <ele>0.841041</ele>
        <time>2026-03-03T15:54:05.846Z</time>
      </trkpt>
      <trkpt lat="51.996395" lon="4.695163">
        <ele>0.774918</ele>
        <time>2026-03-03T15:54:06.911Z</time>
      </trkpt>
      <trkpt lat="51.996166" lon="4.695383">
        <ele>0.557516</ele>
        <time>2026-03-03T15:54:10.371Z</time>
      </trkpt>
      <trkpt lat="51.996129" lon="4.695477">
        <ele>0.501386</ele>
        <time>2026-03-03T15:54:11.269Z</time>
      </trkpt>
      <trkpt lat="51.996117" lon="4.695622">
        <ele>0.427780</ele>
        <time>2026-03-03T15:54:12.392Z</time>
      </trkpt>
      <trkpt lat="51.996051" lon="4.695652">
        <ele>0.371778</ele>
        <time>2026-03-03T15:54:13.275Z</time>
      </trkpt>
      <trkpt lat="51.995985" lon="4.695681">
        <ele>0.315910</ele>
        <time>2026-03-03T15:54:14.097Z</time>
      </trkpt>
      <trkpt lat="51.995938" lon="4.695689">
        <ele>0.277296</ele>
        <time>2026-03-03T15:54:14.668Z</time>
      </trkpt>
      <trkpt lat="51.995814" lon="4.695543">
        <ele>0.152150</ele>
        <time>2026-03-03T15:54:16.508Z</time>
      </trkpt>
      <trkpt lat="51.995723" lon="4.695534">
        <ele>0.077655</ele>
        <time>2026-03-03T15:54:17.599Z</time>
      </trkpt>
      <trkpt lat="51.995719" lon="4.695536">
        <ele>0.074235</ele>
        <time>2026-03-03T15:54:17.649Z</time>
      </trkpt>
      <trkpt lat="51.995509" lon="4.695603">
        <ele>-0.100637</ele>
        <time>2026-03-03T15:54:20.113Z</time>
      </trkpt>
      <trkpt lat="51.995493" lon="4.695608">
        <ele>-0.113951</ele>
        <time>2026-03-03T15:54:20.297Z</time>
      </trkpt>
      <trkpt lat="51.995406" lon="4.695595">
        <ele>-0.185340</ele>
        <time>2026-03-03T15:54:21.288Z</time>
      </trkpt>
      <trkpt lat="51.995425" lon="4.695430">
        <ele>-0.269793</ele>
        <time>2026-03-03T15:54:23.002Z</time>
      </trkpt>
      <trkpt lat="51.995361" lon="4.695324">
        <ele>-0.344485</ele>
        <time>2026-03-03T15:54:24.030Z</time>
      </trkpt>
      <trkpt lat="51.995341" lon="4.695147">
        <ele>-0.413153</ele>
        <time>2026-03-03T15:54:25.312Z</time>
      </trkpt>
      <trkpt lat="51.995302" lon="4.694372">
        <ele>-0.416941</ele>
        <time>2026-03-03T15:54:31.088Z</time>
      </trkpt>
      <trkpt lat="51.995293" lon="4.693659">
        <ele>-0.420415</ele>
        <time>2026-03-03T15:54:37.341Z</time>
      </trkpt>
      <trkpt lat="51.995274" lon="4.692642">
        <ele>-0.425371</ele>
        <time>2026-03-03T15:54:48.197Z</time>
      </trkpt>
      <trkpt lat="51.995252" lon="4.691618">
        <ele>-0.084356</ele>
        <time>2026-03-03T15:55:00.875Z</time>
      </trkpt>
      <trkpt lat="51.995233" lon="4.690651">
        <ele>0.421589</ele>
        <time>2026-03-03T15:55:12.576Z</time>
      </trkpt>
      <trkpt lat="51.995231" lon="4.690247">
        <ele>0.632865</ele>
        <time>2026-03-03T15:55:17.191Z</time>
      </trkpt>
      <trkpt lat="51.995218" lon="4.689790">
        <ele>0.872106</ele>
        <time>2026-03-03T15:55:22.130Z</time>
      </trkpt>
      <trkpt lat="51.995187" lon="4.689596">
        <ele>0.976918</ele>
        <time>2026-03-03T15:55:24.225Z</time>
      </trkpt>
      <trkpt lat="51.995092" lon="4.689351">
        <ele>1.081015</ele>
        <time>2026-03-03T15:55:27.116Z</time>
      </trkpt>
      <trkpt lat="51.994979" lon="4.689199">
        <ele>0.994212</ele>
        <time>2026-03-03T15:55:29.364Z</time>
      </trkpt>
      <trkpt lat="51.994957" lon="4.689175">
        <ele>0.978533</ele>
        <time>2026-03-03T15:55:29.776Z</time>
      </trkpt>
      <trkpt lat="51.994629" lon="4.688927">
        <ele>0.764489</ele>
        <time>2026-03-03T15:55:34.504Z</time>
      </trkpt>
      <trkpt lat="51.994224" lon="4.688661">
        <ele>0.506038</ele>
        <time>2026-03-03T15:55:39.962Z</time>
      </trkpt>
      <trkpt lat="51.994016" lon="4.688403">
        <ele>0.351200</ele>
        <time>2026-03-03T15:55:43.210Z</time>
      </trkpt>
      <trkpt lat="51.993755" lon="4.687919">
        <ele>0.116834</ele>
        <time>2026-03-03T15:55:48.086Z</time>
      </trkpt>
      <trkpt lat="51.993340" lon="4.687404">
        <ele>-0.135972</ele>
        <time>2026-03-03T15:55:54.606Z</time>
      </trkpt>
      <trkpt lat="51.993100" lon="4.686984">
        <ele>-0.293384</ele>
        <time>2026-03-03T15:55:58.997Z</time>
      </trkpt>
      <trkpt lat="51.992942" lon="4.686607">
        <ele>-0.418667</ele>
        <time>2026-03-03T15:56:02.854Z</time>
      </trkpt>
      <trkpt lat="51.992789" lon="4.685860">
        <ele>-0.634940</ele>
        <time>2026-03-03T15:56:09.876Z</time>
      </trkpt>
      <trkpt lat="51.992701" lon="4.685597">
        <ele>-0.717171</ele>
        <time>2026-03-03T15:56:12.526Z</time>
      </trkpt>
      <trkpt lat="51.992587" lon="4.685372">
        <ele>-0.746227</ele>
        <time>2026-03-03T15:56:15.043Z</time>
      </trkpt>
      <trkpt lat="51.992388" lon="4.685008">
        <ele>-0.660746</ele>
        <time>2026-03-03T15:56:19.245Z</time>
      </trkpt>
      <trkpt lat="51.992251" lon="4.684652">
        <ele>-0.587023</ele>
        <time>2026-03-03T15:56:23.332Z</time>
      </trkpt>
      <trkpt lat="51.992171" lon="4.684308">
        <ele>-0.522447</ele>
        <time>2026-03-03T15:56:27.219Z</time>
      </trkpt>
      <trkpt lat="51.992100" lon="4.683629">
        <ele>-0.401498</ele>
        <time>2026-03-03T15:56:34.557Z</time>
      </trkpt>
      <trkpt lat="51.992036" lon="4.682923">
        <ele>-0.276179</ele>
        <time>2026-03-03T15:56:41.641Z</time>
      </trkpt>
      <trkpt lat="51.991965" lon="4.682545">
        <ele>-0.206352</ele>
        <time>2026-03-03T15:56:45.555Z</time>
      </trkpt>
      <trkpt lat="51.991895" lon="4.682354">
        <ele>-0.166961</ele>
        <time>2026-03-03T15:56:47.783Z</time>
      </trkpt>
      <trkpt lat="51.991798" lon="4.682170">
        <ele>-0.124034</ele>
        <time>2026-03-03T15:56:50.233Z</time>
      </trkpt>
      <trkpt lat="51.991609" lon="4.681961">
        <ele>-0.058225</ele>
        <time>2026-03-03T15:56:54.101Z</time>
      </trkpt>
      <trkpt lat="51.991090" lon="4.681590">
        <ele>0.104977</ele>
        <time>2026-03-03T15:57:03.070Z</time>
      </trkpt>
      <trkpt lat="51.991041" lon="4.681549">
        <ele>0.120841</ele>
        <time>2026-03-03T15:57:03.915Z</time>
      </trkpt>
      <trkpt lat="51.990898" lon="4.681430">
        <ele>0.167086</ele>
        <time>2026-03-03T15:57:06.391Z</time>
      </trkpt>
      <trkpt lat="51.990595" lon="4.681177">
        <ele>0.264230</ele>
        <time>2026-03-03T15:57:11.685Z</time>
      </trkpt>
      <trkpt lat="51.989378" lon="4.680309">
        <ele>0.095653</ele>
        <time>2026-03-03T15:57:31.756Z</time>
      </trkpt>
      <trkpt lat="51.989094" lon="4.680128">
        <ele>0.056959</ele>
        <time>2026-03-03T15:57:35.629Z</time>
      </trkpt>
      <trkpt lat="51.988768" lon="4.679985">
        <ele>0.028708</ele>
        <time>2026-03-03T15:57:40.019Z</time>
      </trkpt>
      <trkpt lat="51.988479" lon="4.679849">
        <ele>0.015532</ele>
        <time>2026-03-03T15:57:44.087Z</time>
      </trkpt>
      <trkpt lat="51.988158" lon="4.679529">
        <ele>-0.000962</ele>
        <time>2026-03-03T15:57:49.143Z</time>
      </trkpt>
      <trkpt lat="51.987716" lon="4.678901">
        <ele>-0.026681</ele>
        <time>2026-03-03T15:57:57.828Z</time>
      </trkpt>
      <trkpt lat="51.987555" lon="4.678714">
        <ele>-0.035350</ele>
        <time>2026-03-03T15:58:01.061Z</time>
      </trkpt>
      <trkpt lat="51.987513" lon="4.678665">
        <ele>-0.037614</ele>
        <time>2026-03-03T15:58:01.971Z</time>
      </trkpt>
      <trkpt lat="51.987219" lon="4.678273">
        <ele>0.136367</ele>
        <time>2026-03-03T15:58:08.961Z</time>
      </trkpt>
      <trkpt lat="51.987101" lon="4.678019">
        <ele>0.265199</ele>
        <time>2026-03-03T15:58:12.691Z</time>
      </trkpt>
      <trkpt lat="51.987030" lon="4.677763">
        <ele>0.378886</ele>
        <time>2026-03-03T15:58:16.005Z</time>
      </trkpt>
      <trkpt lat="51.986957" lon="4.677352">
        <ele>0.552093</ele>
        <time>2026-03-03T15:58:20.890Z</time>
      </trkpt>
      <trkpt lat="51.986916" lon="4.676623">
        <ele>0.848510</ele>
        <time>2026-03-03T15:58:28.652Z</time>
      </trkpt>
      <trkpt lat="51.986876" lon="4.676491">
        <ele>0.908080</ele>
        <time>2026-03-03T15:58:30.046Z</time>
      </trkpt>
      <trkpt lat="51.986692" lon="4.676287">
        <ele>1.054573</ele>
        <time>2026-03-03T15:58:33.465Z</time>
      </trkpt>
      <trkpt lat="51.986626" lon="4.676262">
        <ele>1.099134</ele>
        <time>2026-03-03T15:58:34.548Z</time>
      </trkpt>
      <trkpt lat="51.986242" lon="4.676044">
        <ele>1.264148</ele>
        <time>2026-03-03T15:58:41.583Z</time>
      </trkpt>
      <trkpt lat="51.986182" lon="4.675969">
        <ele>1.291398</ele>
        <time>2026-03-03T15:58:42.905Z</time>
      </trkpt>
      <trkpt lat="51.986086" lon="4.675819">
        <ele>1.339344</ele>
        <time>2026-03-03T15:58:45.273Z</time>
      </trkpt>
      <trkpt lat="51.985956" lon="4.675599">
        <ele>1.406918</ele>
        <time>2026-03-03T15:58:48.552Z</time>
      </trkpt>
      <trkpt lat="51.985893" lon="4.675514">
        <ele>1.436396</ele>
        <time>2026-03-03T15:58:49.994Z</time>
      </trkpt>
      <trkpt lat="51.985819" lon="4.675320">
        <ele>1.486973</ele>
        <time>2026-03-03T15:58:53.114Z</time>
      </trkpt>
      <trkpt lat="51.985720" lon="4.675138">
        <ele>1.540792</ele>
        <time>2026-03-03T15:58:56.334Z</time>
      </trkpt>
      <trkpt lat="51.985380" lon="4.674430">
        <ele>1.739779</ele>
        <time>2026-03-03T15:59:07.636Z</time>
      </trkpt>
      <trkpt lat="51.985351" lon="4.674353">
        <ele>1.759783</ele>
        <time>2026-03-03T15:59:08.837Z</time>
      </trkpt>
      <trkpt lat="51.985206" lon="4.673976">
        <ele>1.729084</ele>
        <time>2026-03-03T15:59:14.677Z</time>
      </trkpt>
      <trkpt lat="51.985112" lon="4.673732">
        <ele>1.676351</ele>
        <time>2026-03-03T15:59:18.307Z</time>
      </trkpt>
      <trkpt lat="51.985048" lon="4.673573">
        <ele>1.641548</ele>
        <time>2026-03-03T15:59:20.582Z</time>
      </trkpt>
      <trkpt lat="51.985016" lon="4.673493">
        <ele>1.624070</ele>
        <time>2026-03-03T15:59:21.722Z</time>
      </trkpt>
      <trkpt lat="51.984816" lon="4.673045">
        <ele>1.522689</ele>
        <time>2026-03-03T15:59:26.367Z</time>
      </trkpt>
      <trkpt lat="51.984588" lon="4.672696">
        <ele>1.429468</ele>
        <time>2026-03-03T15:59:30.549Z</time>
      </trkpt>
      <trkpt lat="51.984418" lon="4.672532">
        <ele>1.370639</ele>
        <time>2026-03-03T15:59:33.155Z</time>
      </trkpt>
      <trkpt lat="51.984122" lon="4.672345">
        <ele>1.276147</ele>
        <time>2026-03-03T15:59:37.274Z</time>
      </trkpt>
      <trkpt lat="51.983879" lon="4.672251">
        <ele>1.174760</ele>
        <time>2026-03-03T15:59:40.541Z</time>
      </trkpt>
      <trkpt lat="51.983609" lon="4.672167">
        <ele>1.049239</ele>
        <time>2026-03-03T15:59:44.168Z</time>
      </trkpt>
      <trkpt lat="51.983129" lon="4.672096">
        <ele>0.829170</ele>
        <time>2026-03-03T15:59:50.686Z</time>
      </trkpt>
      <trkpt lat="51.982821" lon="4.672089">
        <ele>0.688527</ele>
        <time>2026-03-03T15:59:54.854Z</time>
      </trkpt>
      <trkpt lat="51.982597" lon="4.672080">
        <ele>0.586221</ele>
        <time>2026-03-03T15:59:57.827Z</time>
      </trkpt>
      <trkpt lat="51.981919" lon="4.671907">
        <ele>0.293325</ele>
        <time>2026-03-03T16:00:06.989Z</time>
      </trkpt>
      <trkpt lat="51.981458" lon="4.671878">
        <ele>0.109909</ele>
        <time>2026-03-03T16:00:13.170Z</time>
      </trkpt>
      <trkpt lat="51.980889" lon="4.671907">
        <ele>-0.116420</ele>
        <time>2026-03-03T16:00:20.900Z</time>
      </trkpt>
      <trkpt lat="51.980751" lon="4.671884">
        <ele>-0.171572</ele>
        <time>2026-03-03T16:00:22.781Z</time>
      </trkpt>
      <trkpt lat="51.980405" lon="4.671716">
        <ele>-0.305777</ele>
        <time>2026-03-03T16:00:27.729Z</time>
      </trkpt>
      <trkpt lat="51.979754" lon="4.671152">
        <ele>-0.511237</ele>
        <time>2026-03-03T16:00:38.002Z</time>
      </trkpt>
      <trkpt lat="51.979184" lon="4.670734">
        <ele>-0.685390</ele>
        <time>2026-03-03T16:00:46.998Z</time>
      </trkpt>
      <trkpt lat="51.978990" lon="4.670528">
        <ele>-0.749936</ele>
        <time>2026-03-03T16:00:50.203Z</time>
      </trkpt>
      <trkpt lat="51.978645" lon="4.670037">
        <ele>-0.878691</ele>
        <time>2026-03-03T16:00:56.240Z</time>
      </trkpt>
      <trkpt lat="51.978380" lon="4.669626">
        <ele>-0.981844</ele>
        <time>2026-03-03T16:01:01.102Z</time>
      </trkpt>
      <trkpt lat="51.978241" lon="4.669175">
        <ele>-1.069275</ele>
        <time>2026-03-03T16:01:05.291Z</time>
      </trkpt>
      <trkpt lat="51.978181" lon="4.668804">
        <ele>-1.135775</ele>
        <time>2026-03-03T16:01:08.560Z</time>
      </trkpt>
      <trkpt lat="51.978061" lon="4.667625">
        <ele>-1.238948</ele>
        <time>2026-03-03T16:01:19.133Z</time>
      </trkpt>
      <trkpt lat="51.978003" lon="4.666757">
        <ele>-1.087665</ele>
        <time>2026-03-03T16:01:27.884Z</time>
      </trkpt>
      <trkpt lat="51.977976" lon="4.666273">
        <ele>-1.003457</ele>
        <time>2026-03-03T16:01:32.907Z</time>
      </trkpt>
      <trkpt lat="51.977973" lon="4.666142">
        <ele>-0.980743</ele>
        <time>2026-03-03T16:01:34.241Z</time>
      </trkpt>
      <trkpt lat="51.977960" lon="4.664994">
        <ele>-0.781531</ele>
        <time>2026-03-03T16:01:45.719Z</time>
      </trkpt>
      <trkpt lat="51.977936" lon="4.664680">
        <ele>-0.722216</ele>
        <time>2026-03-03T16:01:48.797Z</time>
      </trkpt>
      <trkpt lat="51.977761" lon="4.664053">
        <ele>-0.593171</ele>
        <time>2026-03-03T16:01:55.697Z</time>
      </trkpt>
      <trkpt lat="51.977381" lon="4.663163">
        <ele>-0.390162</ele>
        <time>2026-03-03T16:02:06.683Z</time>
      </trkpt>
      <trkpt lat="51.977221" lon="4.662818">
        <ele>-0.309204</ele>
        <time>2026-03-03T16:02:10.728Z</time>
      </trkpt>
      <trkpt lat="51.977005" lon="4.662313">
        <ele>-0.248627</ele>
        <time>2026-03-03T16:02:16.604Z</time>
      </trkpt>
      <trkpt lat="51.976758" lon="4.661724">
        <ele>-0.282518</ele>
        <time>2026-03-03T16:02:23.337Z</time>
      </trkpt>
      <trkpt lat="51.976577" lon="4.661391">
        <ele>-0.303641</ele>
        <time>2026-03-03T16:02:27.375Z</time>
      </trkpt>
      <trkpt lat="51.976344" lon="4.660997">
        <ele>-0.329619</ele>
        <time>2026-03-03T16:02:32.133Z</time>
      </trkpt>
      <trkpt lat="51.976063" lon="4.660328">
        <ele>-0.368133</ele>
        <time>2026-03-03T16:02:38.911Z</time>
      </trkpt>
      <trkpt lat="51.975860" lon="4.659613">
        <ele>-0.391633</ele>
        <time>2026-03-03T16:02:45.822Z</time>
      </trkpt>
      <trkpt lat="51.975775" lon="4.659001">
        <ele>-0.407189</ele>
        <time>2026-03-03T16:02:51.316Z</time>
      </trkpt>
      <trkpt lat="51.975757" lon="4.658378">
        <ele>-0.422653</ele>
        <time>2026-03-03T16:02:56.830Z</time>
      </trkpt>
      <trkpt lat="51.975769" lon="4.657638">
        <ele>-0.441009</ele>
        <time>2026-03-03T16:03:03.716Z</time>
      </trkpt>
      <trkpt lat="51.975818" lon="4.657397">
        <ele>-0.447302</ele>
        <time>2026-03-03T16:03:06.173Z</time>
      </trkpt>
      <trkpt lat="51.975998" lon="4.656894">
        <ele>-0.279485</ele>
        <time>2026-03-03T16:03:11.915Z</time>
      </trkpt>
      <trkpt lat="51.976029" lon="4.656713">
        <ele>-0.218235</ele>
        <time>2026-03-03T16:03:13.801Z</time>
      </trkpt>
      <trkpt lat="51.976011" lon="4.656507">
        <ele>-0.150400</ele>
        <time>2026-03-03T16:03:15.921Z</time>
      </trkpt>
      <trkpt lat="51.975957" lon="4.656323">
        <ele>-0.083949</ele>
        <time>2026-03-03T16:03:17.991Z</time>
      </trkpt>
      <trkpt lat="51.975711" lon="4.655775">
        <ele>0.137127</ele>
        <time>2026-03-03T16:03:25.207Z</time>
      </trkpt>
      <trkpt lat="51.975586" lon="4.655409">
        <ele>0.273570</ele>
        <time>2026-03-03T16:03:29.902Z</time>
      </trkpt>
      <trkpt lat="51.975379" lon="4.654606">
        <ele>0.520620</ele>
        <time>2026-03-03T16:03:39.448Z</time>
      </trkpt>
      <trkpt lat="51.975292" lon="4.654406">
        <ele>0.546342</ele>
        <time>2026-03-03T16:03:42.076Z</time>
      </trkpt>
      <trkpt lat="51.975202" lon="4.654306">
        <ele>0.564943</ele>
        <time>2026-03-03T16:03:43.975Z</time>
      </trkpt>
      <trkpt lat="51.975095" lon="4.654265">
        <ele>0.583693</ele>
        <time>2026-03-03T16:03:45.869Z</time>
      </trkpt>
      <trkpt lat="51.974948" lon="4.654266">
        <ele>0.608764</ele>
        <time>2026-03-03T16:03:48.352Z</time>
      </trkpt>
      <trkpt lat="51.974841" lon="4.654288">
        <ele>0.627159</ele>
        <time>2026-03-03T16:03:50.143Z</time>
      </trkpt>
      <trkpt lat="51.974812" lon="4.654295">
        <ele>0.632159</ele>
        <time>2026-03-03T16:03:50.638Z</time>
      </trkpt>
      <trkpt lat="51.973986" lon="4.654510">
        <ele>0.774833</ele>
        <time>2026-03-03T16:04:03.174Z</time>
      </trkpt>
      <trkpt lat="51.973402" lon="4.654533">
        <ele>0.661661</ele>
        <time>2026-03-03T16:04:10.846Z</time>
      </trkpt>
      <trkpt lat="51.973264" lon="4.654506">
        <ele>0.607228</ele>
        <time>2026-03-03T16:04:12.625Z</time>
      </trkpt>
      <trkpt lat="51.972861" lon="4.654359">
        <ele>0.445475</ele>
        <time>2026-03-03T16:04:17.931Z</time>
      </trkpt>
      <trkpt lat="51.972047" lon="4.653925">
        <ele>0.109953</ele>
        <time>2026-03-03T16:04:29.725Z</time>
      </trkpt>
      <trkpt lat="51.971894" lon="4.653788">
        <ele>0.073774</ele>
        <time>2026-03-03T16:04:32.254Z</time>
      </trkpt>
      <trkpt lat="51.971559" lon="4.653383">
        <ele>-0.007399</ele>
        <time>2026-03-03T16:04:38.323Z</time>
      </trkpt>
      <trkpt lat="51.971407" lon="4.653213">
        <ele>-0.043270</ele>
        <time>2026-03-03T16:04:40.967Z</time>
      </trkpt>
      <trkpt lat="51.971039" lon="4.653045">
        <ele>-0.117558</ele>
        <time>2026-03-03T16:04:46.502Z</time>
      </trkpt>
      <trkpt lat="51.970824" lon="4.652869">
        <ele>-0.164352</ele>
        <time>2026-03-03T16:04:49.957Z</time>
      </trkpt>
      <trkpt lat="51.970569" lon="4.652561">
        <ele>-0.226120</ele>
        <time>2026-03-03T16:04:54.343Z</time>
      </trkpt>
      <trkpt lat="51.970456" lon="4.652344">
        <ele>-0.290298</ele>
        <time>2026-03-03T16:04:56.713Z</time>
      </trkpt>
      <trkpt lat="51.970101" lon="4.651295">
        <ele>-0.701267</ele>
        <time>2026-03-03T16:05:06.546Z</time>
      </trkpt>
      <trkpt lat="51.969738" lon="4.650065">
        <ele>-1.169582</ele>
        <time>2026-03-03T16:05:17.364Z</time>
      </trkpt>
      <trkpt lat="51.969524" lon="4.649367">
        <ele>-1.426195</ele>
        <time>2026-03-03T16:05:23.479Z</time>
      </trkpt>
      <trkpt lat="51.969454" lon="4.649153">
        <ele>-1.504552</ele>
        <time>2026-03-03T16:05:25.375Z</time>
      </trkpt>
      <trkpt lat="51.969419" lon="4.649047">
        <ele>-1.543445</ele>
        <time>2026-03-03T16:05:26.315Z</time>
      </trkpt>
      <trkpt lat="51.969133" lon="4.648332">
        <ele>-1.819137</ele>
        <time>2026-03-03T16:05:33.097Z</time>
      </trkpt>
      <trkpt lat="51.968929" lon="4.647888">
        <ele>-1.998261</ele>
        <time>2026-03-03T16:05:37.700Z</time>
      </trkpt>
      <trkpt lat="51.968916" lon="4.647859">
        <ele>-2.009859</ele>
        <time>2026-03-03T16:05:38.002Z</time>
      </trkpt>
      <trkpt lat="51.968781" lon="4.647555">
        <ele>-2.131051</ele>
        <time>2026-03-03T16:05:41.197Z</time>
      </trkpt>
      <trkpt lat="51.968681" lon="4.647352">
        <ele>-2.197625</ele>
        <time>2026-03-03T16:05:43.440Z</time>
      </trkpt>
      <trkpt lat="51.968628" lon="4.647249">
        <ele>-2.210006</ele>
        <time>2026-03-03T16:05:44.606Z</time>
      </trkpt>
      <trkpt lat="51.968408" lon="4.646848">
        <ele>-2.259545</ele>
        <time>2026-03-03T16:05:49.364Z</time>
      </trkpt>
      <trkpt lat="51.968002" lon="4.646106">
        <ele>-2.351103</ele>
        <time>2026-03-03T16:05:58.221Z</time>
      </trkpt>
      <trkpt lat="51.967714" lon="4.645732">
        <ele>-2.406337</ele>
        <time>2026-03-03T16:06:03.408Z</time>
      </trkpt>
      <trkpt lat="51.967645" lon="4.645630">
        <ele>-2.420312</ele>
        <time>2026-03-03T16:06:04.707Z</time>
      </trkpt>
      <trkpt lat="51.967004" lon="4.644567">
        <ele>-2.293318</ele>
        <time>2026-03-03T16:06:18.196Z</time>
      </trkpt>
      <trkpt lat="51.966360" lon="4.643651">
        <ele>-2.074223</ele>
        <time>2026-03-03T16:06:32.150Z</time>
      </trkpt>
      <trkpt lat="51.966118" lon="4.643319">
        <ele>-1.991566</ele>
        <time>2026-03-03T16:06:37.566Z</time>
      </trkpt>
      <trkpt lat="51.966095" lon="4.643284">
        <ele>-1.981576</ele>
        <time>2026-03-03T16:06:38.110Z</time>
      </trkpt>
      <trkpt lat="51.965783" lon="4.642819">
        <ele>-1.847364</ele>
        <time>2026-03-03T16:06:45.349Z</time>
      </trkpt>
      <trkpt lat="51.965334" lon="4.642194">
        <ele>-1.659944</ele>
        <time>2026-03-03T16:06:54.817Z</time>
      </trkpt>
      <trkpt lat="51.965122" lon="4.641907">
        <ele>-1.572473</ele>
        <time>2026-03-03T16:06:59.090Z</time>
      </trkpt>
      <trkpt lat="51.965078" lon="4.641840">
        <ele>-1.553356</ele>
        <time>2026-03-03T16:07:00.021Z</time>
      </trkpt>
      <trkpt lat="51.964621" lon="4.641038">
        <ele>-1.365669</ele>
        <time>2026-03-03T16:07:10.390Z</time>
      </trkpt>
      <trkpt lat="51.964419" lon="4.640657">
        <ele>-1.295487</ele>
        <time>2026-03-03T16:07:15.388Z</time>
      </trkpt>
      <trkpt lat="51.964084" lon="4.640144">
        <ele>-1.191114</ele>
        <time>2026-03-03T16:07:21.985Z</time>
      </trkpt>
      <trkpt lat="51.964038" lon="4.640083">
        <ele>-1.177653</ele>
        <time>2026-03-03T16:07:22.921Z</time>
      </trkpt>
      <trkpt lat="51.963994" lon="4.640024">
        <ele>-1.164719</ele>
        <time>2026-03-03T16:07:23.772Z</time>
      </trkpt>
      <trkpt lat="51.963748" lon="4.639712">
        <ele>-1.093970</ele>
        <time>2026-03-03T16:07:28.928Z</time>
      </trkpt>
      <trkpt lat="51.963406" lon="4.639419">
        <ele>-1.003942</ele>
        <time>2026-03-03T16:07:35.788Z</time>
      </trkpt>
      <trkpt lat="51.963289" lon="4.639482">
        <ele>-0.971823</ele>
        <time>2026-03-03T16:07:37.830Z</time>
      </trkpt>
      <trkpt lat="51.962807" lon="4.640298">
        <ele>-0.790346</ele>
        <time>2026-03-03T16:07:48.717Z</time>
      </trkpt>
      <trkpt lat="51.962488" lon="4.640703">
        <ele>-0.684818</ele>
        <time>2026-03-03T16:07:55.055Z</time>
      </trkpt>
      <trkpt lat="51.962137" lon="4.641043">
        <ele>-0.578313</ele>
        <time>2026-03-03T16:08:01.991Z</time>
      </trkpt>
      <trkpt lat="51.961904" lon="4.641239">
        <ele>-0.536072</ele>
        <time>2026-03-03T16:08:05.874Z</time>
      </trkpt>
      <trkpt lat="51.961540" lon="4.641544">
        <ele>-0.493140</ele>
        <time>2026-03-03T16:08:11.528Z</time>
      </trkpt>
      <trkpt lat="51.961001" lon="4.641856">
        <ele>-0.433166</ele>
        <time>2026-03-03T16:08:20.111Z</time>
      </trkpt>
      <trkpt lat="51.960795" lon="4.642029">
        <ele>-0.408858</ele>
        <time>2026-03-03T16:08:23.777Z</time>
      </trkpt>
      <trkpt lat="51.960607" lon="4.642247">
        <ele>-0.384643</ele>
        <time>2026-03-03T16:08:27.465Z</time>
      </trkpt>
      <trkpt lat="51.960141" lon="4.642963">
        <ele>-0.299922</ele>
        <time>2026-03-03T16:08:37.623Z</time>
      </trkpt>
      <trkpt lat="51.959831" lon="4.643311">
        <ele>-0.245975</ele>
        <time>2026-03-03T16:08:43.692Z</time>
      </trkpt>
      <trkpt lat="51.959415" lon="4.643583">
        <ele>-0.181787</ele>
        <time>2026-03-03T16:08:50.829Z</time>
      </trkpt>
      <trkpt lat="51.958634" lon="4.644002">
        <ele>-0.147622</ele>
        <time>2026-03-03T16:09:02.712Z</time>
      </trkpt>
      <trkpt lat="51.958252" lon="4.644279">
        <ele>-0.202295</ele>
        <time>2026-03-03T16:09:08.296Z</time>
      </trkpt>
      <trkpt lat="51.957946" lon="4.644474">
        <ele>-0.245252</ele>
        <time>2026-03-03T16:09:12.969Z</time>
      </trkpt>
      <trkpt lat="51.957666" lon="4.644726">
        <ele>-0.287090</ele>
        <time>2026-03-03T16:09:17.584Z</time>
      </trkpt>
      <trkpt lat="51.957473" lon="4.645017">
        <ele>-0.321516</ele>
        <time>2026-03-03T16:09:21.397Z</time>
      </trkpt>
      <trkpt lat="51.957194" lon="4.645517">
        <ele>-0.273755</ele>
        <time>2026-03-03T16:09:27.572Z</time>
      </trkpt>
      <trkpt lat="51.956675" lon="4.645957">
        <ele>-0.114030</ele>
        <time>2026-03-03T16:09:36.916Z</time>
      </trkpt>
      <trkpt lat="51.956371" lon="4.646382">
        <ele>-0.004577</ele>
        <time>2026-03-03T16:09:43.585Z</time>
      </trkpt>
      <trkpt lat="51.955591" lon="4.647562">
        <ele>0.245513</ele>
        <time>2026-03-03T16:10:00.720Z</time>
      </trkpt>
      <trkpt lat="51.954613" lon="4.649017">
        <ele>0.490494</ele>
        <time>2026-03-03T16:10:21.548Z</time>
      </trkpt>
      <trkpt lat="51.954394" lon="4.649289">
        <ele>0.464139</ele>
        <time>2026-03-03T16:10:25.467Z</time>
      </trkpt>
      <trkpt lat="51.954203" lon="4.649455">
        <ele>0.443433</ele>
        <time>2026-03-03T16:10:28.507Z</time>
      </trkpt>
      <trkpt lat="51.953864" lon="4.649627">
        <ele>0.409491</ele>
        <time>2026-03-03T16:10:33.478Z</time>
      </trkpt>
      <trkpt lat="51.953570" lon="4.649672">
        <ele>0.381271</ele>
        <time>2026-03-03T16:10:37.614Z</time>
      </trkpt>
      <trkpt lat="51.953328" lon="4.649585">
        <ele>0.357584</ele>
        <time>2026-03-03T16:10:41.164Z</time>
      </trkpt>
      <trkpt lat="51.953091" lon="4.649307">
        <ele>0.329637</ele>
        <time>2026-03-03T16:10:45.552Z</time>
      </trkpt>
      <trkpt lat="51.952835" lon="4.648879">
        <ele>0.355538</ele>
        <time>2026-03-03T16:10:51.136Z</time>
      </trkpt>
      <trkpt lat="51.952411" lon="4.647960">
        <ele>0.437844</ele>
        <time>2026-03-03T16:11:01.912Z</time>
      </trkpt>
      <trkpt lat="51.952124" lon="4.647299">
        <ele>0.495815</ele>
        <time>2026-03-03T16:11:09.810Z</time>
      </trkpt>
      <trkpt lat="51.952068" lon="4.647112">
        <ele>0.510721</ele>
        <time>2026-03-03T16:11:11.837Z</time>
      </trkpt>
      <trkpt lat="51.952009" lon="4.646731">
        <ele>0.518016</ele>
        <time>2026-03-03T16:11:15.636Z</time>
      </trkpt>
      <trkpt lat="51.951994" lon="4.646438">
        <ele>0.481329</ele>
        <time>2026-03-03T16:11:18.410Z</time>
      </trkpt>
      <trkpt lat="51.951956" lon="4.644908">
        <ele>0.290257</ele>
        <time>2026-03-03T16:11:31.959Z</time>
      </trkpt>
      <trkpt lat="51.951951" lon="4.643704">
        <ele>0.140831</ele>
        <time>2026-03-03T16:11:41.725Z</time>
      </trkpt>
      <trkpt lat="51.951875" lon="4.642754">
        <ele>0.024894</ele>
        <time>2026-03-03T16:11:49.394Z</time>
      </trkpt>
      <trkpt lat="51.951829" lon="4.642433">
        <ele>-0.014991</ele>
        <time>2026-03-03T16:11:52.185Z</time>
      </trkpt>
      <trkpt lat="51.951741" lon="4.642080">
        <ele>-0.061075</ele>
        <time>2026-03-03T16:11:55.529Z</time>
      </trkpt>
      <trkpt lat="51.951588" lon="4.641744">
        <ele>-0.111634</ele>
        <time>2026-03-03T16:11:59.395Z</time>
      </trkpt>
      <trkpt lat="51.951226" lon="4.641273">
        <ele>-0.172616</ele>
        <time>2026-03-03T16:12:06.721Z</time>
      </trkpt>
      <trkpt lat="51.950891" lon="4.640920">
        <ele>-0.109278</ele>
        <time>2026-03-03T16:12:13.164Z</time>
      </trkpt>
      <trkpt lat="51.950701" lon="4.640806">
        <ele>-0.077157</ele>
        <time>2026-03-03T16:12:16.443Z</time>
      </trkpt>
      <trkpt lat="51.950395" lon="4.640708">
        <ele>-0.027701</ele>
        <time>2026-03-03T16:12:21.361Z</time>
      </trkpt>
      <trkpt lat="51.949239" lon="4.640476">
        <ele>0.099296</ele>
        <time>2026-03-03T16:12:38.953Z</time>
      </trkpt>
      <trkpt lat="51.947228" lon="4.640344">
        <ele>0.077964</ele>
        <time>2026-03-03T16:13:08.738Z</time>
      </trkpt>
      <trkpt lat="51.946797" lon="4.640218">
        <ele>0.061296</ele>
        <time>2026-03-03T16:13:15.133Z</time>
      </trkpt>
      <trkpt lat="51.945951" lon="4.639722">
        <ele>0.035896</ele>
        <time>2026-03-03T16:13:27.981Z</time>
      </trkpt>
      <trkpt lat="51.944328" lon="4.638654">
        <ele>0.128939</ele>
        <time>2026-03-03T16:13:53.937Z</time>
      </trkpt>
      <trkpt lat="51.943898" lon="4.638383">
        <ele>0.331420</ele>
        <time>2026-03-03T16:14:01.857Z</time>
      </trkpt>
      <trkpt lat="51.943673" lon="4.638307">
        <ele>0.432297</ele>
        <time>2026-03-03T16:14:05.917Z</time>
      </trkpt>
      <trkpt lat="51.943517" lon="4.638325">
        <ele>0.500942</ele>
        <time>2026-03-03T16:14:08.711Z</time>
      </trkpt>
      <trkpt lat="51.943058" lon="4.638481">
        <ele>0.706783</ele>
        <time>2026-03-03T16:14:17.041Z</time>
      </trkpt>
      <trkpt lat="51.942680" lon="4.638514">
        <ele>0.872937</ele>
        <time>2026-03-03T16:14:23.195Z</time>
      </trkpt>
      <trkpt lat="51.942293" lon="4.638456">
        <ele>0.800837</ele>
        <time>2026-03-03T16:14:28.933Z</time>
      </trkpt>
      <trkpt lat="51.941862" lon="4.638243">
        <ele>0.691184</ele>
        <time>2026-03-03T16:14:35.216Z</time>
      </trkpt>
      <trkpt lat="51.941590" lon="4.638116">
        <ele>0.622299</ele>
        <time>2026-03-03T16:14:39.023Z</time>
      </trkpt>
      <trkpt lat="51.940734" lon="4.637880">
        <ele>0.432239</ele>
        <time>2026-03-03T16:14:50.490Z</time>
      </trkpt>
      <trkpt lat="51.940269" lon="4.637600">
        <ele>0.377861</ele>
        <time>2026-03-03T16:14:57.577Z</time>
      </trkpt>
      <trkpt lat="51.940011" lon="4.637341">
        <ele>0.344596</ele>
        <time>2026-03-03T16:15:02.021Z</time>
      </trkpt>
      <trkpt lat="51.939888" lon="4.637133">
        <ele>0.325116</ele>
        <time>2026-03-03T16:15:04.616Z</time>
      </trkpt>
      <trkpt lat="51.939696" lon="4.636624">
        <ele>0.284785</ele>
        <time>2026-03-03T16:15:09.989Z</time>
      </trkpt>
      <trkpt lat="51.939534" lon="4.636419">
        <ele>0.262259</ele>
        <time>2026-03-03T16:15:13.062Z</time>
      </trkpt>
      <trkpt lat="51.939327" lon="4.636339">
        <ele>0.281333</ele>
        <time>2026-03-03T16:15:16.280Z</time>
      </trkpt>
      <trkpt lat="51.938690" lon="4.636358">
        <ele>0.430209</ele>
        <time>2026-03-03T16:15:26.358Z</time>
      </trkpt>
      <trkpt lat="51.937707" lon="4.636488">
        <ele>0.660672</ele>
        <time>2026-03-03T16:15:42.109Z</time>
      </trkpt>
      <trkpt lat="51.937453" lon="4.636444">
        <ele>0.711993</ele>
        <time>2026-03-03T16:15:46.124Z</time>
      </trkpt>
      <trkpt lat="51.937418" lon="4.636432">
        <ele>0.718882</ele>
        <time>2026-03-03T16:15:46.711Z</time>
      </trkpt>
      <trkpt lat="51.937158" lon="4.636269">
        <ele>0.772563</ele>
        <time>2026-03-03T16:15:51.143Z</time>
      </trkpt>
      <trkpt lat="51.937078" lon="4.636267">
        <ele>0.787971</ele>
        <time>2026-03-03T16:15:52.436Z</time>
      </trkpt>
      <trkpt lat="51.937017" lon="4.636310">
        <ele>0.800780</ele>
        <time>2026-03-03T16:15:53.435Z</time>
      </trkpt>
      <trkpt lat="51.936990" lon="4.636185">
        <ele>0.816506</ele>
        <time>2026-03-03T16:15:55.159Z</time>
      </trkpt>
      <trkpt lat="51.936947" lon="4.636106">
        <ele>0.829018</ele>
        <time>2026-03-03T16:15:56.426Z</time>
      </trkpt>
      <trkpt lat="51.936572" lon="4.635753">
        <ele>0.912517</ele>
        <time>2026-03-03T16:16:05.619Z</time>
      </trkpt>
      <trkpt lat="51.936340" lon="4.635535">
        <ele>0.964152</ele>
        <time>2026-03-03T16:16:11.474Z</time>
      </trkpt>
      <trkpt lat="51.936129" lon="4.635200">
        <ele>1.016357</ele>
        <time>2026-03-03T16:16:17.638Z</time>
      </trkpt>
      <trkpt lat="51.936070" lon="4.635079">
        <ele>0.988889</ele>
        <time>2026-03-03T16:16:19.509Z</time>
      </trkpt>
      <trkpt lat="51.935907" lon="4.634753">
        <ele>0.914153</ele>
        <time>2026-03-03T16:16:24.662Z</time>
      </trkpt>
      <trkpt lat="51.935862" lon="4.634653">
        <ele>0.892109</ele>
        <time>2026-03-03T16:16:26.153Z</time>
      </trkpt>
      <trkpt lat="51.935699" lon="4.634294">
        <ele>0.812724</ele>
        <time>2026-03-03T16:16:31.446Z</time>
      </trkpt>
      <trkpt lat="51.935670" lon="4.634231">
        <ele>0.798725</ele>
        <time>2026-03-03T16:16:32.389Z</time>
      </trkpt>
      <trkpt lat="51.935331" lon="4.633576">
        <ele>0.646451</ele>
        <time>2026-03-03T16:16:42.324Z</time>
      </trkpt>
      <trkpt lat="51.935258" lon="4.633296">
        <ele>0.592321</ele>
        <time>2026-03-03T16:16:45.885Z</time>
      </trkpt>
      <trkpt lat="51.935224" lon="4.633093">
        <ele>0.554865</ele>
        <time>2026-03-03T16:16:48.284Z</time>
      </trkpt>
      <trkpt lat="51.935178" lon="4.632443">
        <ele>0.419913</ele>
        <time>2026-03-03T16:16:55.574Z</time>
      </trkpt>
      <trkpt lat="51.935145" lon="4.631965">
        <ele>0.308503</ele>
        <time>2026-03-03T16:17:00.933Z</time>
      </trkpt>
      <trkpt lat="51.935094" lon="4.630961">
        <ele>0.075162</ele>
        <time>2026-03-03T16:17:12.582Z</time>
      </trkpt>
      <trkpt lat="51.935139" lon="4.629743">
        <ele>-0.171160</ele>
        <time>2026-03-03T16:17:27.544Z</time>
      </trkpt>
      <trkpt lat="51.935103" lon="4.629460">
        <ele>-0.160841</ele>
        <time>2026-03-03T16:17:31.024Z</time>
      </trkpt>
      <trkpt lat="51.935184" lon="4.629317">
        <ele>-0.153906</ele>
        <time>2026-03-03T16:17:32.716Z</time>
      </trkpt>
      <trkpt lat="51.935203" lon="4.629212">
        <ele>-0.149999</ele>
        <time>2026-03-03T16:17:33.689Z</time>
      </trkpt>
      <trkpt lat="51.935237" lon="4.628921">
        <ele>-0.139422</ele>
        <time>2026-03-03T16:17:36.299Z</time>
      </trkpt>
      <trkpt lat="51.935360" lon="4.627883">
        <ele>-0.101675</ele>
        <time>2026-03-03T16:17:46.190Z</time>
      </trkpt>
      <trkpt lat="51.935646" lon="4.626521">
        <ele>0.042307</ele>
        <time>2026-03-03T16:17:59.994Z</time>
      </trkpt>
      <trkpt lat="51.935725" lon="4.625106">
        <ele>0.311186</ele>
        <time>2026-03-03T16:18:14.250Z</time>
      </trkpt>
      <trkpt lat="51.935676" lon="4.624524">
        <ele>0.422349</ele>
        <time>2026-03-03T16:18:20.326Z</time>
      </trkpt>
      <trkpt lat="51.935564" lon="4.624049">
        <ele>0.509041</ele>
        <time>2026-03-03T16:18:25.367Z</time>
      </trkpt>
      <trkpt lat="51.935425" lon="4.623705">
        <ele>0.567489</ele>
        <time>2026-03-03T16:18:29.404Z</time>
      </trkpt>
      <trkpt lat="51.935240" lon="4.623543">
        <ele>0.615946</ele>
        <time>2026-03-03T16:18:32.839Z</time>
      </trkpt>
      <trkpt lat="51.934993" lon="4.623422">
        <ele>0.675417</ele>
        <time>2026-03-03T16:18:37.091Z</time>
      </trkpt>
      <trkpt lat="51.934712" lon="4.623404">
        <ele>0.740234</ele>
        <time>2026-03-03T16:18:41.610Z</time>
      </trkpt>
      <trkpt lat="51.934466" lon="4.623380">
        <ele>0.797036</ele>
        <time>2026-03-03T16:18:45.434Z</time>
      </trkpt>
      <trkpt lat="51.934009" lon="4.623247">
        <ele>0.893587</ele>
        <time>2026-03-03T16:18:52.104Z</time>
      </trkpt>
      <trkpt lat="51.933361" lon="4.623189">
        <ele>0.873644</ele>
        <time>2026-03-03T16:19:01.743Z</time>
      </trkpt>
      <trkpt lat="51.933168" lon="4.623153">
        <ele>0.867674</ele>
        <time>2026-03-03T16:19:04.706Z</time>
      </trkpt>
      <trkpt lat="51.932690" lon="4.622978">
        <ele>0.852615</ele>
        <time>2026-03-03T16:19:11.709Z</time>
      </trkpt>
      <trkpt lat="51.932194" lon="4.622749">
        <ele>0.844449</ele>
        <time>2026-03-03T16:19:19.218Z</time>
      </trkpt>
      <trkpt lat="51.932010" lon="4.622619">
        <ele>0.855336</ele>
        <time>2026-03-03T16:19:22.307Z</time>
      </trkpt>
      <trkpt lat="51.931665" lon="4.622371">
        <ele>0.875807</ele>
        <time>2026-03-03T16:19:28.272Z</time>
      </trkpt>
      <trkpt lat="51.931274" lon="4.622095">
        <ele>0.898939</ele>
        <time>2026-03-03T16:19:34.868Z</time>
      </trkpt>
      <trkpt lat="51.931062" lon="4.621886">
        <ele>0.912396</ele>
        <time>2026-03-03T16:19:38.609Z</time>
      </trkpt>
      <trkpt lat="51.930927" lon="4.621713">
        <ele>0.921730</ele>
        <time>2026-03-03T16:19:41.203Z</time>
      </trkpt>
      <trkpt lat="51.930758" lon="4.621365">
        <ele>0.936546</ele>
        <time>2026-03-03T16:19:45.344Z</time>
      </trkpt>
      <trkpt lat="51.930180" lon="4.619766">
        <ele>0.750681</ele>
        <time>2026-03-03T16:20:01.200Z</time>
      </trkpt>
      <trkpt lat="51.930150" lon="4.619688">
        <ele>0.741349</ele>
        <time>2026-03-03T16:20:01.974Z</time>
      </trkpt>
      <trkpt lat="51.930012" lon="4.619300">
        <ele>0.695880</ele>
        <time>2026-03-03T16:20:05.899Z</time>
      </trkpt>
      <trkpt lat="51.930001" lon="4.619268">
        <ele>0.692161</ele>
        <time>2026-03-03T16:20:06.223Z</time>
      </trkpt>
      <trkpt lat="51.929788" lon="4.618562">
        <ele>0.645348</ele>
        <time>2026-03-03T16:20:13.184Z</time>
      </trkpt>
      <trkpt lat="51.929680" lon="4.618265">
        <ele>0.650649</ele>
        <time>2026-03-03T16:20:16.318Z</time>
      </trkpt>
      <trkpt lat="51.929627" lon="4.618190">
        <ele>0.652403</ele>
        <time>2026-03-03T16:20:17.331Z</time>
      </trkpt>
      <trkpt lat="51.929519" lon="4.618102">
        <ele>0.655416</ele>
        <time>2026-03-03T16:20:19.111Z</time>
      </trkpt>
      <trkpt lat="51.928947" lon="4.617937">
        <ele>0.669901</ele>
        <time>2026-03-03T16:20:28.165Z</time>
      </trkpt>
      <trkpt lat="51.928779" lon="4.617796">
        <ele>0.674618</ele>
        <time>2026-03-03T16:20:31.211Z</time>
      </trkpt>
      <trkpt lat="51.927958" lon="4.616911">
        <ele>0.638257</ele>
        <time>2026-03-03T16:20:45.538Z</time>
      </trkpt>
      <trkpt lat="51.927661" lon="4.616658">
        <ele>0.608414</ele>
        <time>2026-03-03T16:20:50.341Z</time>
      </trkpt>
      <trkpt lat="51.927482" lon="4.616479">
        <ele>0.589707</ele>
        <time>2026-03-03T16:20:53.355Z</time>
      </trkpt>
      <trkpt lat="51.927241" lon="4.616313">
        <ele>0.566415</ele>
        <time>2026-03-03T16:20:57.113Z</time>
      </trkpt>
      <trkpt lat="51.926582" lon="4.615947">
        <ele>0.511141</ele>
        <time>2026-03-03T16:21:07.071Z</time>
      </trkpt>
      <trkpt lat="51.925370" lon="4.615065">
        <ele>0.429897</ele>
        <time>2026-03-03T16:21:26.291Z</time>
      </trkpt>
      <trkpt lat="51.925073" lon="4.614800">
        <ele>0.424650</ele>
        <time>2026-03-03T16:21:31.587Z</time>
      </trkpt>
      <trkpt lat="51.924774" lon="4.614386">
        <ele>0.456230</ele>
        <time>2026-03-03T16:21:37.738Z</time>
      </trkpt>
      <trkpt lat="51.924521" lon="4.613870">
        <ele>0.488883</ele>
        <time>2026-03-03T16:21:44.067Z</time>
      </trkpt>
      <trkpt lat="51.924403" lon="4.613526">
        <ele>0.508381</ele>
        <time>2026-03-03T16:21:47.796Z</time>
      </trkpt>
      <trkpt lat="51.924216" lon="4.612497">
        <ele>0.561925</ele>
        <time>2026-03-03T16:21:57.599Z</time>
      </trkpt>
      <trkpt lat="51.924123" lon="4.611569">
        <ele>0.624404</ele>
        <time>2026-03-03T16:22:05.747Z</time>
      </trkpt>
      <trkpt lat="51.924117" lon="4.610936">
        <ele>0.666474</ele>
        <time>2026-03-03T16:22:11.422Z</time>
      </trkpt>
      <trkpt lat="51.924171" lon="4.610098">
        <ele>0.722466</ele>
        <time>2026-03-03T16:22:19.821Z</time>
      </trkpt>
      <trkpt lat="51.924225" lon="4.609695">
        <ele>0.749872</ele>
        <time>2026-03-03T16:22:24.064Z</time>
      </trkpt>
      <trkpt lat="51.924364" lon="4.609036">
        <ele>0.788743</ele>
        <time>2026-03-03T16:22:31.324Z</time>
      </trkpt>
      <trkpt lat="51.924367" lon="4.608918">
        <ele>0.795207</ele>
        <time>2026-03-03T16:22:32.558Z</time>
      </trkpt>
      <trkpt lat="51.924343" lon="4.608804">
        <ele>0.801799</ele>
        <time>2026-03-03T16:22:33.786Z</time>
      </trkpt>
      <trkpt lat="51.924309" lon="4.608752">
        <ele>0.805947</ele>
        <time>2026-03-03T16:22:34.548Z</time>
      </trkpt>
      <trkpt lat="51.924451" lon="4.608523">
        <ele>0.823720</ele>
        <time>2026-03-03T16:22:37.686Z</time>
      </trkpt>
      <trkpt lat="51.924634" lon="4.607812">
        <ele>0.865884</ele>
        <time>2026-03-03T16:22:44.806Z</time>
      </trkpt>
      <trkpt lat="51.924715" lon="4.607434">
        <ele>0.887785</ele>
        <time>2026-03-03T16:22:48.336Z</time>
      </trkpt>
      <trkpt lat="51.924768" lon="4.607182">
        <ele>0.902356</ele>
        <time>2026-03-03T16:22:50.603Z</time>
      </trkpt>
      <trkpt lat="51.924849" lon="4.606763">
        <ele>0.882930</ele>
        <time>2026-03-03T16:22:54.234Z</time>
      </trkpt>
      <trkpt lat="51.925006" lon="4.606146">
        <ele>0.793725</ele>
        <time>2026-03-03T16:22:59.745Z</time>
      </trkpt>
      <trkpt lat="51.925239" lon="4.605452">
        <ele>0.688120</ele>
        <time>2026-03-03T16:23:06.327Z</time>
      </trkpt>
      <trkpt lat="51.925512" lon="4.604446">
        <ele>0.541229</ele>
        <time>2026-03-03T16:23:16.264Z</time>
      </trkpt>
      <trkpt lat="51.925747" lon="4.602489">
        <ele>0.679309</ele>
        <time>2026-03-03T16:23:34.751Z</time>
      </trkpt>
      <trkpt lat="51.925759" lon="4.602224">
        <ele>0.701446</ele>
        <time>2026-03-03T16:23:37.281Z</time>
      </trkpt>
      <trkpt lat="51.925724" lon="4.601819">
        <ele>0.735518</ele>
        <time>2026-03-03T16:23:41.276Z</time>
      </trkpt>
      <trkpt lat="51.925683" lon="4.601609">
        <ele>0.753870</ele>
        <time>2026-03-03T16:23:43.464Z</time>
      </trkpt>
      <trkpt lat="51.925540" lon="4.601209">
        <ele>0.846844</ele>
        <time>2026-03-03T16:23:48.070Z</time>
      </trkpt>
      <trkpt lat="51.925289" lon="4.600612">
        <ele>1.035945</ele>
        <time>2026-03-03T16:23:55.453Z</time>
      </trkpt>
      <trkpt lat="51.925018" lon="4.599882">
        <ele>1.258944</ele>
        <time>2026-03-03T16:24:04.243Z</time>
      </trkpt>
      <trkpt lat="51.924907" lon="4.599654">
        <ele>1.334969</ele>
        <time>2026-03-03T16:24:07.288Z</time>
      </trkpt>
      <trkpt lat="51.924519" lon="4.598800">
        <ele>1.533764</ele>
        <time>2026-03-03T16:24:18.377Z</time>
      </trkpt>
      <trkpt lat="51.924310" lon="4.598190">
        <ele>1.541486</ele>
        <time>2026-03-03T16:24:25.184Z</time>
      </trkpt>
      <trkpt lat="51.924163" lon="4.597961">
        <ele>1.545144</ele>
        <time>2026-03-03T16:24:28.357Z</time>
      </trkpt>
      <trkpt lat="51.924025" lon="4.597814">
        <ele>1.548107</ele>
        <time>2026-03-03T16:24:30.826Z</time>
      </trkpt>
      <trkpt lat="51.923881" lon="4.597595">
        <ele>1.551649</ele>
        <time>2026-03-03T16:24:33.717Z</time>
      </trkpt>
      <trkpt lat="51.923594" lon="4.596923">
        <ele>1.560695</ele>
        <time>2026-03-03T16:24:40.744Z</time>
      </trkpt>
      <trkpt lat="51.923479" lon="4.596426">
        <ele>1.472228</ele>
        <time>2026-03-03T16:24:46.788Z</time>
      </trkpt>
      <trkpt lat="51.923424" lon="4.595893">
        <ele>1.337519</ele>
        <time>2026-03-03T16:24:52.831Z</time>
      </trkpt>
      <trkpt lat="51.923281" lon="4.595026">
        <ele>1.113805</ele>
        <time>2026-03-03T16:25:02.980Z</time>
      </trkpt>
      <trkpt lat="51.923258" lon="4.594556">
        <ele>0.996279</ele>
        <time>2026-03-03T16:25:08.483Z</time>
      </trkpt>
      <trkpt lat="51.923322" lon="4.593611">
        <ele>0.885005</ele>
        <time>2026-03-03T16:25:19.850Z</time>
      </trkpt>
      <trkpt lat="51.923269" lon="4.593156">
        <ele>0.959844</ele>
        <time>2026-03-03T16:25:25.681Z</time>
      </trkpt>
      <trkpt lat="51.923131" lon="4.592809">
        <ele>1.026577</ele>
        <time>2026-03-03T16:25:31.182Z</time>
      </trkpt>
      <trkpt lat="51.922990" lon="4.592587">
        <ele>1.078083</ele>
        <time>2026-03-03T16:25:35.571Z</time>
      </trkpt>
      <trkpt lat="51.922538" lon="4.592099">
        <ele>1.220395</ele>
        <time>2026-03-03T16:25:47.575Z</time>
      </trkpt>
      <trkpt lat="51.922134" lon="4.591645">
        <ele>1.342816</ele>
        <time>2026-03-03T16:25:58.215Z</time>
      </trkpt>
      <trkpt lat="51.921604" lon="4.591106">
        <ele>1.481968</ele>
        <time>2026-03-03T16:26:11.683Z</time>
      </trkpt>
      <trkpt lat="51.921450" lon="4.590915">
        <ele>1.525093</ele>
        <time>2026-03-03T16:26:15.829Z</time>
      </trkpt>
      <trkpt lat="51.920798" lon="4.589517">
        <ele>1.612524</ele>
        <time>2026-03-03T16:26:38.325Z</time>
      </trkpt>
      <trkpt lat="51.920288" lon="4.588230">
        <ele>1.273876</ele>
        <time>2026-03-03T16:26:56.545Z</time>
      </trkpt>
      <trkpt lat="51.920076" lon="4.587684">
        <ele>1.131047</ele>
        <time>2026-03-03T16:27:03.562Z</time>
      </trkpt>
      <trkpt lat="51.919885" lon="4.587107">
        <ele>0.973051</ele>
        <time>2026-03-03T16:27:10.691Z</time>
      </trkpt>
      <trkpt lat="51.919797" lon="4.586574">
        <ele>0.829775</ele>
        <time>2026-03-03T16:27:16.710Z</time>
      </trkpt>
      <trkpt lat="51.919713" lon="4.585559">
        <ele>0.563851</ele>
        <time>2026-03-03T16:27:28.154Z</time>
      </trkpt>
      <trkpt lat="51.919684" lon="4.584610">
        <ele>0.317124</ele>
        <time>2026-03-03T16:27:40.199Z</time>
      </trkpt>
      <trkpt lat="51.919689" lon="4.583318">
        <ele>0.553621</ele>
        <time>2026-03-03T16:27:57.525Z</time>
      </trkpt>
      <trkpt lat="51.919655" lon="4.582751">
        <ele>0.668050</ele>
        <time>2026-03-03T16:28:05.078Z</time>
      </trkpt>
      <trkpt lat="51.919585" lon="4.582305">
        <ele>0.760493</ele>
        <time>2026-03-03T16:28:11.177Z</time>
      </trkpt>
      <trkpt lat="51.919490" lon="4.582004">
        <ele>0.828412</ele>
        <time>2026-03-03T16:28:15.691Z</time>
      </trkpt>
      <trkpt lat="51.919434" lon="4.581897">
        <ele>0.856600</ele>
        <time>2026-03-03T16:28:17.551Z</time>
      </trkpt>
      <trkpt lat="51.919235" lon="4.581653">
        <ele>0.991760</ele>
        <time>2026-03-03T16:28:22.979Z</time>
      </trkpt>
      <trkpt lat="51.919144" lon="4.581542">
        <ele>1.070554</ele>
        <time>2026-03-03T16:28:25.497Z</time>
      </trkpt>
      <trkpt lat="51.918996" lon="4.581405">
        <ele>1.188473</ele>
        <time>2026-03-03T16:28:29.307Z</time>
      </trkpt>
      <trkpt lat="51.918786" lon="4.581284">
        <ele>1.342680</ele>
        <time>2026-03-03T16:28:34.250Z</time>
      </trkpt>
      <trkpt lat="51.918270" lon="4.581084">
        <ele>1.709773</ele>
        <time>2026-03-03T16:28:46.427Z</time>
      </trkpt>
      <trkpt lat="51.918057" lon="4.581055">
        <ele>1.857671</ele>
        <time>2026-03-03T16:28:51.749Z</time>
      </trkpt>
      <trkpt lat="51.917967" lon="4.581050">
        <ele>1.919981</ele>
        <time>2026-03-03T16:28:54.019Z</time>
      </trkpt>
      <trkpt lat="51.917633" lon="4.581028">
        <ele>2.138122</ele>
        <time>2026-03-03T16:29:02.257Z</time>
      </trkpt>
      <trkpt lat="51.917346" lon="4.580954">
        <ele>2.182057</ele>
        <time>2026-03-03T16:29:09.164Z</time>
      </trkpt>
      <trkpt lat="51.917262" lon="4.580920">
        <ele>2.195147</ele>
        <time>2026-03-03T16:29:11.144Z</time>
      </trkpt>
      <trkpt lat="51.917085" lon="4.580828">
        <ele>2.223248</ele>
        <time>2026-03-03T16:29:15.182Z</time>
      </trkpt>
      <trkpt lat="51.916713" lon="4.580642">
        <ele>2.282102</ele>
        <time>2026-03-03T16:29:23.030Z</time>
      </trkpt>
      <trkpt lat="51.916523" lon="4.580561">
        <ele>2.311804</ele>
        <time>2026-03-03T16:29:27.017Z</time>
      </trkpt>
      <trkpt lat="51.916115" lon="4.580331">
        <ele>2.377109</ele>
        <time>2026-03-03T16:29:35.241Z</time>
      </trkpt>
      <trkpt lat="51.916008" lon="4.580271">
        <ele>2.394226</ele>
        <time>2026-03-03T16:29:37.296Z</time>
      </trkpt>
      <trkpt lat="51.915777" lon="4.580142">
        <ele>2.451923</ele>
        <time>2026-03-03T16:29:41.879Z</time>
      </trkpt>
      <trkpt lat="51.915472" lon="4.579986">
        <ele>2.540762</ele>
        <time>2026-03-03T16:29:48.064Z</time>
      </trkpt>
      <trkpt lat="51.915241" lon="4.579843">
        <ele>2.609448</ele>
        <time>2026-03-03T16:29:52.964Z</time>
      </trkpt>
      <trkpt lat="51.915130" lon="4.579780">
        <ele>2.642117</ele>
        <time>2026-03-03T16:29:55.437Z</time>
      </trkpt>
      <trkpt lat="51.914926" lon="4.579660">
        <ele>2.702399</ele>
        <time>2026-03-03T16:30:00.329Z</time>
      </trkpt>
      <trkpt lat="51.914675" lon="4.579581">
        <ele>2.773423</ele>
        <time>2026-03-03T16:30:06.239Z</time>
      </trkpt>
      <trkpt lat="51.914411" lon="4.579589">
        <ele>2.846770</ele>
        <time>2026-03-03T16:30:12.071Z</time>
      </trkpt>
      <trkpt lat="51.914266" lon="4.579665">
        <ele>2.889101</ele>
        <time>2026-03-03T16:30:15.545Z</time>
      </trkpt>
      <trkpt lat="51.914101" lon="4.579836">
        <ele>2.955968</ele>
        <time>2026-03-03T16:30:20.212Z</time>
      </trkpt>
      <trkpt lat="51.913849" lon="4.580155">
        <ele>3.074312</ele>
        <time>2026-03-03T16:30:27.861Z</time>
      </trkpt>
      <trkpt lat="51.913707" lon="4.580246">
        <ele>3.130829</ele>
        <time>2026-03-03T16:30:31.339Z</time>
      </trkpt>
      <trkpt lat="51.913534" lon="4.580306">
        <ele>3.196313</ele>
        <time>2026-03-03T16:30:35.239Z</time>
      </trkpt>
      <trkpt lat="51.913143" lon="4.580466">
        <ele>3.345578</ele>
        <time>2026-03-03T16:30:43.959Z</time>
      </trkpt>
      <trkpt lat="51.913030" lon="4.580584">
        <ele>3.395330</ele>
        <time>2026-03-03T16:30:46.743Z</time>
      </trkpt>
      <trkpt lat="51.912278" lon="4.581626">
        <ele>3.449142</ele>
        <time>2026-03-03T16:31:06.712Z</time>
      </trkpt>
      <trkpt lat="51.911902" lon="4.582148">
        <ele>3.330745</ele>
        <time>2026-03-03T16:31:16.070Z</time>
      </trkpt>
      <trkpt lat="51.911129" lon="4.583287">
        <ele>3.095016</ele>
        <time>2026-03-03T16:31:35.899Z</time>
      </trkpt>
      <trkpt lat="51.910615" lon="4.584034">
        <ele>2.968308</ele>
        <time>2026-03-03T16:31:49.569Z</time>
      </trkpt>
      <trkpt lat="51.910468" lon="4.584499">
        <ele>2.909146</ele>
        <time>2026-03-03T16:31:56.378Z</time>
      </trkpt>
      <trkpt lat="51.910424" lon="4.584463">
        <ele>2.900099</ele>
        <time>2026-03-03T16:31:57.160Z</time>
      </trkpt>
      <trkpt lat="51.910285" lon="4.584712">
        <ele>2.862075</ele>
        <time>2026-03-03T16:32:00.171Z</time>
      </trkpt>
      <trkpt lat="51.910183" lon="4.584816">
        <ele>2.839958</ele>
        <time>2026-03-03T16:32:01.860Z</time>
      </trkpt>
      <trkpt lat="51.910129" lon="4.584829">
        <ele>2.829937</ele>
        <time>2026-03-03T16:32:02.573Z</time>
      </trkpt>
      <trkpt lat="51.910074" lon="4.584786">
        <ele>2.818729</ele>
        <time>2026-03-03T16:32:03.435Z</time>
      </trkpt>
      <trkpt lat="51.909831" lon="4.584321">
        <ele>2.645414</ele>
        <time>2026-03-03T16:32:08.300Z</time>
      </trkpt>
      <trkpt lat="51.909791" lon="4.584373">
        <ele>2.620094</ele>
        <time>2026-03-03T16:32:09.208Z</time>
      </trkpt>
      <trkpt lat="51.909724" lon="4.584460">
        <ele>2.577703</ele>
        <time>2026-03-03T16:32:10.318Z</time>
      </trkpt>
      <trkpt lat="51.909640" lon="4.584557">
        <ele>2.526774</ele>
        <time>2026-03-03T16:32:11.629Z</time>
      </trkpt>
      <trkpt lat="51.909562" lon="4.584655">
        <ele>2.478042</ele>
        <time>2026-03-03T16:32:12.861Z</time>
      </trkpt>
      <trkpt lat="51.909415" lon="4.584766">
        <ele>2.397963</ele>
        <time>2026-03-03T16:32:14.924Z</time>
      </trkpt>
      <trkpt lat="51.908988" lon="4.584911">
        <ele>2.182529</ele>
        <time>2026-03-03T16:32:20.596Z</time>
      </trkpt>
      <trkpt lat="51.908844" lon="4.584991">
        <ele>2.107360</ele>
        <time>2026-03-03T16:32:22.574Z</time>
      </trkpt>
      <trkpt lat="51.908498" lon="4.585324">
        <ele>1.932316</ele>
        <time>2026-03-03T16:32:27.849Z</time>
      </trkpt>
      <trkpt lat="51.908327" lon="4.585582">
        <ele>2.003982</ele>
        <time>2026-03-03T16:32:31.175Z</time>
      </trkpt>
      <trkpt lat="51.908255" lon="4.585750">
        <ele>2.042696</ele>
        <time>2026-03-03T16:32:33.102Z</time>
      </trkpt>
      <trkpt lat="51.908210" lon="4.585885">
        <ele>2.071737</ele>
        <time>2026-03-03T16:32:34.626Z</time>
      </trkpt>
      <trkpt lat="51.908184" lon="4.586159">
        <ele>2.124203</ele>
        <time>2026-03-03T16:32:37.440Z</time>
      </trkpt>
      <trkpt lat="51.908209" lon="4.586494">
        <ele>2.188066</ele>
        <time>2026-03-03T16:32:41.058Z</time>
      </trkpt>
      <trkpt lat="51.908240" lon="4.586637">
        <ele>2.216752</ele>
        <time>2026-03-03T16:32:42.731Z</time>
      </trkpt>
      <trkpt lat="51.908505" lon="4.587372">
        <ele>2.377869</ele>
        <time>2026-03-03T16:32:51.939Z</time>
      </trkpt>
      <trkpt lat="51.908520" lon="4.587531">
        <ele>2.408310</ele>
        <time>2026-03-03T16:32:53.675Z</time>
      </trkpt>
      <trkpt lat="51.908471" lon="4.587750">
        <ele>2.452399</ele>
        <time>2026-03-03T16:32:56.120Z</time>
      </trkpt>
      <trkpt lat="51.908169" lon="4.588329">
        <ele>2.493254</ele>
        <time>2026-03-03T16:33:03.643Z</time>
      </trkpt>
      <trkpt lat="51.907984" lon="4.588869">
        <ele>2.510881</ele>
        <time>2026-03-03T16:33:09.387Z</time>
      </trkpt>
      <trkpt lat="51.907558" lon="4.590352">
        <ele>2.557567</ele>
        <time>2026-03-03T16:33:23.703Z</time>
      </trkpt>
      <trkpt lat="51.907461" lon="4.590651">
        <ele>2.521807</ele>
        <time>2026-03-03T16:33:26.647Z</time>
      </trkpt>
      <trkpt lat="51.907338" lon="4.590911">
        <ele>2.483863</ele>
        <time>2026-03-03T16:33:29.691Z</time>
      </trkpt>
      <trkpt lat="51.907044" lon="4.591325">
        <ele>2.410757</ele>
        <time>2026-03-03T16:33:35.655Z</time>
      </trkpt>
      <trkpt lat="51.906888" lon="4.591452">
        <ele>2.377987</ele>
        <time>2026-03-03T16:33:38.086Z</time>
      </trkpt>
      <trkpt lat="51.906539" lon="4.591674">
        <ele>2.307610</ele>
        <time>2026-03-03T16:33:43.066Z</time>
      </trkpt>
      <trkpt lat="51.906287" lon="4.591768">
        <ele>2.259069</ele>
        <time>2026-03-03T16:33:46.661Z</time>
      </trkpt>
      <trkpt lat="51.906023" lon="4.591885">
        <ele>2.209484</ele>
        <time>2026-03-03T16:33:50.508Z</time>
      </trkpt>
      <trkpt lat="51.905677" lon="4.592124">
        <ele>2.148682</ele>
        <time>2026-03-03T16:33:55.800Z</time>
      </trkpt>
      <trkpt lat="51.905576" lon="4.592162">
        <ele>2.131921</ele>
        <time>2026-03-03T16:33:57.285Z</time>
      </trkpt>
      <trkpt lat="51.905012" lon="4.592257">
        <ele>2.040255</ele>
        <time>2026-03-03T16:34:04.706Z</time>
      </trkpt>
      <trkpt lat="51.904426" lon="4.592448">
        <ele>1.943626</ele>
        <time>2026-03-03T16:34:13.609Z</time>
      </trkpt>
      <trkpt lat="51.903951" lon="4.592689">
        <ele>2.035049</ele>
        <time>2026-03-03T16:34:22.036Z</time>
      </trkpt>
      <trkpt lat="51.903718" lon="4.592862">
        <ele>2.100438</ele>
        <time>2026-03-03T16:34:26.149Z</time>
      </trkpt>
      <trkpt lat="51.903699" lon="4.592881">
        <ele>2.106134</ele>
        <time>2026-03-03T16:34:26.498Z</time>
      </trkpt>
      <trkpt lat="51.903565" lon="4.593017">
        <ele>2.146473</ele>
        <time>2026-03-03T16:34:28.887Z</time>
      </trkpt>
      <trkpt lat="51.903324" lon="4.593328">
        <ele>2.225071</ele>
        <time>2026-03-03T16:34:33.591Z</time>
      </trkpt>
      <trkpt lat="51.902992" lon="4.593853">
        <ele>2.343417</ele>
        <time>2026-03-03T16:34:41.303Z</time>
      </trkpt>
      <trkpt lat="51.902724" lon="4.594299">
        <ele>2.391139</ele>
        <time>2026-03-03T16:34:47.432Z</time>
      </trkpt>
      <trkpt lat="51.902433" lon="4.594741">
        <ele>2.395772</ele>
        <time>2026-03-03T16:34:53.467Z</time>
      </trkpt>
      <trkpt lat="51.902249" lon="4.595009">
        <ele>2.398646</ele>
        <time>2026-03-03T16:34:57.050Z</time>
      </trkpt>
      <trkpt lat="51.902032" lon="4.595210">
        <ele>2.401550</ele>
        <time>2026-03-03T16:35:00.677Z</time>
      </trkpt>
      <trkpt lat="51.901590" lon="4.595364">
        <ele>2.406802</ele>
        <time>2026-03-03T16:35:07.435Z</time>
      </trkpt>
      <trkpt lat="51.901109" lon="4.595489">
        <ele>2.341939</ele>
        <time>2026-03-03T16:35:14.178Z</time>
      </trkpt>
      <trkpt lat="51.900804" lon="4.595616">
        <ele>2.254290</ele>
        <time>2026-03-03T16:35:18.626Z</time>
      </trkpt>
      <trkpt lat="51.900608" lon="4.595806">
        <ele>2.190722</ele>
        <time>2026-03-03T16:35:21.829Z</time>
      </trkpt>
      <trkpt lat="51.900520" lon="4.595926">
        <ele>2.158712</ele>
        <time>2026-03-03T16:35:23.413Z</time>
      </trkpt>
      <trkpt lat="51.900310" lon="4.596240">
        <ele>2.079185</ele>
        <time>2026-03-03T16:35:27.297Z</time>
      </trkpt>
      <trkpt lat="51.900000" lon="4.596600">
        <ele>1.973037</ele>
        <time>2026-03-03T16:35:32.462Z</time>
      </trkpt>
      <trkpt lat="51.899850" lon="4.596917">
        <ele>1.903365</ele>
        <time>2026-03-03T16:35:35.883Z</time>
      </trkpt>
      <trkpt lat="51.899684" lon="4.597358">
        <ele>1.794061</ele>
        <time>2026-03-03T16:35:40.298Z</time>
      </trkpt>
      <trkpt lat="51.899559" lon="4.597714">
        <ele>1.707393</ele>
        <time>2026-03-03T16:35:43.792Z</time>
      </trkpt>
      <trkpt lat="51.899300" lon="4.598448">
        <ele>1.528482</ele>
        <time>2026-03-03T16:35:50.970Z</time>
      </trkpt>
      <trkpt lat="51.898998" lon="4.599317">
        <ele>1.317449</ele>
        <time>2026-03-03T16:35:59.212Z</time>
      </trkpt>
      <trkpt lat="51.898732" lon="4.600084">
        <ele>1.155450</ele>
        <time>2026-03-03T16:36:06.612Z</time>
      </trkpt>
      <trkpt lat="51.898611" lon="4.600432">
        <ele>1.083622</ele>
        <time>2026-03-03T16:36:10.014Z</time>
      </trkpt>
      <trkpt lat="51.898286" lon="4.601301">
        <ele>0.900896</ele>
        <time>2026-03-03T16:36:18.713Z</time>
      </trkpt>
      <trkpt lat="51.897999" lon="4.602107">
        <ele>0.754106</ele>
        <time>2026-03-03T16:36:26.699Z</time>
      </trkpt>
      <trkpt lat="51.897631" lon="4.603211">
        <ele>0.662785</ele>
        <time>2026-03-03T16:36:37.764Z</time>
      </trkpt>
      <trkpt lat="51.896686" lon="4.606170">
        <ele>0.520714</ele>
        <time>2026-03-03T16:37:07.818Z</time>
      </trkpt>
      <trkpt lat="51.896518" lon="4.606523">
        <ele>0.512289</ele>
        <time>2026-03-03T16:37:11.987Z</time>
      </trkpt>
      <trkpt lat="51.896116" lon="4.607206">
        <ele>0.491904</ele>
        <time>2026-03-03T16:37:20.715Z</time>
      </trkpt>
      <trkpt lat="51.896036" lon="4.607439">
        <ele>0.484859</ele>
        <time>2026-03-03T16:37:23.166Z</time>
      </trkpt>
      <trkpt lat="51.895908" lon="4.608021">
        <ele>0.468535</ele>
        <time>2026-03-03T16:37:28.767Z</time>
      </trkpt>
      <trkpt lat="51.895873" lon="4.608399">
        <ele>0.458436</ele>
        <time>2026-03-03T16:37:32.201Z</time>
      </trkpt>
      <trkpt lat="51.895863" lon="4.608735">
        <ele>0.449548</ele>
        <time>2026-03-03T16:37:35.197Z</time>
      </trkpt>
      <trkpt lat="51.895918" lon="4.610078">
        <ele>0.407994</ele>
        <time>2026-03-03T16:37:47.177Z</time>
      </trkpt>
      <trkpt lat="51.895897" lon="4.610566">
        <ele>0.387209</ele>
        <time>2026-03-03T16:37:51.508Z</time>
      </trkpt>
      <trkpt lat="51.895867" lon="4.610827">
        <ele>0.375929</ele>
        <time>2026-03-03T16:37:53.843Z</time>
      </trkpt>
      <trkpt lat="51.895720" lon="4.611730">
        <ele>0.336250</ele>
        <time>2026-03-03T16:38:02.141Z</time>
      </trkpt>
      <trkpt lat="51.895511" lon="4.612561">
        <ele>0.303140</ele>
        <time>2026-03-03T16:38:10.409Z</time>
      </trkpt>
      <trkpt lat="51.895231" lon="4.613423">
        <ele>0.372336</ele>
        <time>2026-03-03T16:38:19.368Z</time>
      </trkpt>
      <trkpt lat="51.895164" lon="4.613797">
        <ele>0.400000</ele>
        <time>2026-03-03T16:38:22.928Z</time>
      </trkpt>
      <trkpt lat="51.895126" lon="4.614158">
        <ele>0.426014</ele>
        <time>2026-03-03T16:38:26.307Z</time>
      </trkpt>
      <trkpt lat="51.894724" lon="4.615991">
        <ele>0.891217</ele>
        <time>2026-03-03T16:38:45.131Z</time>
      </trkpt>
      <trkpt lat="51.894378" lon="4.616941">
        <ele>1.417904</ele>
        <time>2026-03-03T16:38:57.912Z</time>
      </trkpt>
      <trkpt lat="51.894312" lon="4.617196">
        <ele>1.549931</ele>
        <time>2026-03-03T16:39:01.277Z</time>
      </trkpt>
      <trkpt lat="51.894271" lon="4.617872">
        <ele>1.874248</ele>
        <time>2026-03-03T16:39:09.355Z</time>
      </trkpt>
      <trkpt lat="51.894194" lon="4.618201">
        <ele>2.007678</ele>
        <time>2026-03-03T16:39:13.466Z</time>
      </trkpt>
      <trkpt lat="51.893951" lon="4.618782">
        <ele>2.262116</ele>
        <time>2026-03-03T16:39:21.740Z</time>
      </trkpt>
      <trkpt lat="51.893555" lon="4.619470">
        <ele>2.603176</ele>
        <time>2026-03-03T16:39:31.569Z</time>
      </trkpt>
      <trkpt lat="51.893248" lon="4.620199">
        <ele>2.923125</ele>
        <time>2026-03-03T16:39:39.971Z</time>
      </trkpt>
      <trkpt lat="51.893071" lon="4.620728">
        <ele>2.985393</ele>
        <time>2026-03-03T16:39:45.516Z</time>
      </trkpt>
      <trkpt lat="51.893000" lon="4.620916">
        <ele>2.998345</ele>
        <time>2026-03-03T16:39:47.564Z</time>
      </trkpt>
      <trkpt lat="51.892972" lon="4.620979">
        <ele>3.002908</ele>
        <time>2026-03-03T16:39:48.288Z</time>
      </trkpt>
      <trkpt lat="51.892745" lon="4.621495">
        <ele>3.040148</ele>
        <time>2026-03-03T16:39:53.965Z</time>
      </trkpt>
      <trkpt lat="51.892684" lon="4.621620">
        <ele>3.049513</ele>
        <time>2026-03-03T16:39:55.343Z</time>
      </trkpt>
      <trkpt lat="51.892555" lon="4.621885">
        <ele>3.069348</ele>
        <time>2026-03-03T16:39:58.195Z</time>
      </trkpt>
      <trkpt lat="51.892286" lon="4.622459">
        <ele>3.111704</ele>
        <time>2026-03-03T16:40:05.063Z</time>
      </trkpt>
      <trkpt lat="51.891983" lon="4.623247">
        <ele>3.342792</ele>
        <time>2026-03-03T16:40:14.873Z</time>
      </trkpt>
      <trkpt lat="51.891717" lon="4.624128">
        <ele>3.656372</ele>
        <time>2026-03-03T16:40:25.983Z</time>
      </trkpt>
      <trkpt lat="51.891500" lon="4.624690">
        <ele>3.868329</ele>
        <time>2026-03-03T16:40:33.527Z</time>
      </trkpt>
      <trkpt lat="51.891448" lon="4.624888">
        <ele>3.937128</ele>
        <time>2026-03-03T16:40:35.897Z</time>
      </trkpt>
      <trkpt lat="51.891351" lon="4.625496">
        <ele>3.932952</ele>
        <time>2026-03-03T16:40:41.858Z</time>
      </trkpt>
      <trkpt lat="51.891303" lon="4.626124">
        <ele>3.614190</ele>
        <time>2026-03-03T16:40:46.745Z</time>
      </trkpt>
      <trkpt lat="51.891222" lon="4.626820">
        <ele>3.257412</ele>
        <time>2026-03-03T16:40:51.960Z</time>
      </trkpt>
      <trkpt lat="51.891175" lon="4.627317">
        <ele>3.004134</ele>
        <time>2026-03-03T16:40:55.559Z</time>
      </trkpt>
      <trkpt lat="51.891180" lon="4.627792">
        <ele>2.764825</ele>
        <time>2026-03-03T16:40:59.015Z</time>
      </trkpt>
      <trkpt lat="51.891230" lon="4.628354">
        <ele>2.551502</ele>
        <time>2026-03-03T16:41:05.101Z</time>
      </trkpt>
      <trkpt lat="51.891337" lon="4.628738">
        <ele>2.477718</ele>
        <time>2026-03-03T16:41:09.872Z</time>
      </trkpt>
      <trkpt lat="51.891432" lon="4.628918">
        <ele>2.436241</ele>
        <time>2026-03-03T16:41:12.660Z</time>
      </trkpt>
      <trkpt lat="51.892093" lon="4.629872">
        <ele>2.185060</ele>
        <time>2026-03-03T16:41:30.402Z</time>
      </trkpt>
      <trkpt lat="51.892449" lon="4.630354">
        <ele>2.081650</ele>
        <time>2026-03-03T16:41:39.623Z</time>
      </trkpt>
      <trkpt lat="51.892690" lon="4.630514">
        <ele>2.086640</ele>
        <time>2026-03-03T16:41:44.957Z</time>
      </trkpt>
      <trkpt lat="51.893137" lon="4.630700">
        <ele>2.095484</ele>
        <time>2026-03-03T16:41:54.545Z</time>
      </trkpt>
      <trkpt lat="51.893286" lon="4.630870">
        <ele>2.098976</ele>
        <time>2026-03-03T16:41:58.230Z</time>
      </trkpt>
      <trkpt lat="51.893327" lon="4.630992">
        <ele>2.100619</ele>
        <time>2026-03-03T16:41:59.907Z</time>
      </trkpt>
      <trkpt lat="51.893364" lon="4.631377">
        <ele>2.105226</ele>
        <time>2026-03-03T16:42:04.731Z</time>
      </trkpt>
      <trkpt lat="51.893373" lon="4.631499">
        <ele>2.106679</ele>
        <time>2026-03-03T16:42:06.207Z</time>
      </trkpt>
      <trkpt lat="51.893458" lon="4.631818">
        <ele>2.110789</ele>
        <time>2026-03-03T16:42:10.511Z</time>
      </trkpt>
      <trkpt lat="51.893782" lon="4.632429">
        <ele>2.130256</ele>
        <time>2026-03-03T16:42:20.821Z</time>
      </trkpt>
      <trkpt lat="51.894218" lon="4.633250">
        <ele>2.164340</ele>
        <time>2026-03-03T16:42:34.522Z</time>
      </trkpt>
      <trkpt lat="51.894372" lon="4.633538">
        <ele>2.176332</ele>
        <time>2026-03-03T16:42:37.859Z</time>
      </trkpt>
      <trkpt lat="51.894553" lon="4.633801">
        <ele>2.188728</ele>
        <time>2026-03-03T16:42:41.395Z</time>
      </trkpt>
      <trkpt lat="51.894746" lon="4.633852">
        <ele>2.198700</ele>
        <time>2026-03-03T16:42:44.293Z</time>
      </trkpt>
      <trkpt lat="51.895340" lon="4.633699">
        <ele>2.383473</ele>
        <time>2026-03-03T16:42:53.800Z</time>
      </trkpt>
      <trkpt lat="51.895468" lon="4.633705">
        <ele>2.433147</ele>
        <time>2026-03-03T16:42:55.960Z</time>
      </trkpt>
      <trkpt lat="51.895634" lon="4.633784">
        <ele>2.500261</ele>
        <time>2026-03-03T16:42:58.745Z</time>
      </trkpt>
      <trkpt lat="51.895737" lon="4.633907">
        <ele>2.549893</ele>
        <time>2026-03-03T16:43:00.754Z</time>
      </trkpt>
      <trkpt lat="51.895825" lon="4.634066">
        <ele>2.601021</ele>
        <time>2026-03-03T16:43:02.865Z</time>
      </trkpt>
      <trkpt lat="51.895951" lon="4.634393">
        <ele>2.693305</ele>
        <time>2026-03-03T16:43:06.740Z</time>
      </trkpt>
      <trkpt lat="51.895983" lon="4.634565">
        <ele>2.736309</ele>
        <time>2026-03-03T16:43:08.609Z</time>
      </trkpt>
      <trkpt lat="51.895935" lon="4.634990">
        <ele>2.839735</ele>
        <time>2026-03-03T16:43:13.356Z</time>
      </trkpt>
      <trkpt lat="51.895796" lon="4.635469">
        <ele>2.930968</ele>
        <time>2026-03-03T16:43:19.245Z</time>
      </trkpt>
      <trkpt lat="51.895594" lon="4.635842">
        <ele>2.982520</ele>
        <time>2026-03-03T16:43:24.396Z</time>
      </trkpt>
      <trkpt lat="51.895346" lon="4.636288">
        <ele>3.044884</ele>
        <time>2026-03-03T16:43:30.145Z</time>
      </trkpt>
      <trkpt lat="51.895289" lon="4.636623">
        <ele>3.080983</ele>
        <time>2026-03-03T16:43:33.330Z</time>
      </trkpt>
      <trkpt lat="51.895317" lon="4.636978">
        <ele>3.118160</ele>
        <time>2026-03-03T16:43:36.583Z</time>
      </trkpt>
      <trkpt lat="51.895422" lon="4.637564">
        <ele>3.181548</ele>
        <time>2026-03-03T16:43:42.201Z</time>
      </trkpt>
      <trkpt lat="51.895435" lon="4.637631">
        <ele>3.188844</ele>
        <time>2026-03-03T16:43:42.828Z</time>
      </trkpt>
      <trkpt lat="51.895558" lon="4.638279">
        <ele>3.165167</ele>
        <time>2026-03-03T16:43:48.657Z</time>
      </trkpt>
      <trkpt lat="51.895636" lon="4.638726">
        <ele>3.127294</ele>
        <time>2026-03-03T16:43:52.493Z</time>
      </trkpt>
      <trkpt lat="51.895853" lon="4.639807">
        <ele>3.034615</ele>
        <time>2026-03-03T16:44:02.695Z</time>
      </trkpt>
      <trkpt lat="51.895890" lon="4.640333">
        <ele>2.991452</ele>
        <time>2026-03-03T16:44:07.297Z</time>
      </trkpt>
      <trkpt lat="51.895862" lon="4.640704">
        <ele>2.963384</ele>
        <time>2026-03-03T16:44:10.619Z</time>
      </trkpt>
      <trkpt lat="51.895769" lon="4.641047">
        <ele>2.942095</ele>
        <time>2026-03-03T16:44:14.223Z</time>
      </trkpt>
      <trkpt lat="51.895645" lon="4.641312">
        <ele>2.923198</ele>
        <time>2026-03-03T16:44:17.468Z</time>
      </trkpt>
      <trkpt lat="51.895316" lon="4.641881">
        <ele>2.878892</ele>
        <time>2026-03-03T16:44:24.987Z</time>
      </trkpt>
      <trkpt lat="51.895112" lon="4.642294">
        <ele>2.848832</ele>
        <time>2026-03-03T16:44:29.701Z</time>
      </trkpt>
      <trkpt lat="51.894864" lon="4.642826">
        <ele>2.810947</ele>
        <time>2026-03-03T16:44:35.393Z</time>
      </trkpt>
      <trkpt lat="51.894130" lon="4.644247">
        <ele>2.181507</ele>
        <time>2026-03-03T16:44:50.174Z</time>
      </trkpt>
      <trkpt lat="51.893750" lon="4.644933">
        <ele>1.847952</ele>
        <time>2026-03-03T16:44:57.264Z</time>
      </trkpt>
      <trkpt lat="51.893281" lon="4.645787">
        <ele>1.662221</ele>
        <time>2026-03-03T16:45:06.888Z</time>
      </trkpt>
      <trkpt lat="51.892797" lon="4.646754">
        <ele>1.538324</ele>
        <time>2026-03-03T16:45:18.297Z</time>
      </trkpt>
      <trkpt lat="51.892159" lon="4.648629">
        <ele>1.203631</ele>
        <time>2026-03-03T16:45:37.728Z</time>
      </trkpt>
      <trkpt lat="51.891970" lon="4.649332">
        <ele>1.057747</ele>
        <time>2026-03-03T16:45:44.040Z</time>
      </trkpt>
      <trkpt lat="51.891863" lon="4.649930">
        <ele>0.939294</ele>
        <time>2026-03-03T16:45:48.987Z</time>
      </trkpt>
      <trkpt lat="51.891696" lon="4.651177">
        <ele>0.635990</ele>
        <time>2026-03-03T16:45:59.230Z</time>
      </trkpt>
      <trkpt lat="51.891623" lon="4.651979">
        <ele>0.436793</ele>
        <time>2026-03-03T16:46:05.888Z</time>
      </trkpt>
      <trkpt lat="51.891598" lon="4.652365">
        <ele>0.341425</ele>
        <time>2026-03-03T16:46:09.223Z</time>
      </trkpt>
      <trkpt lat="51.891599" lon="4.653230">
        <ele>0.186385</ele>
        <time>2026-03-03T16:46:17.157Z</time>
      </trkpt>
      <trkpt lat="51.891618" lon="4.654309">
        <ele>0.178884</ele>
        <time>2026-03-03T16:46:26.637Z</time>
      </trkpt>
      <trkpt lat="51.891641" lon="4.654555">
        <ele>0.177155</ele>
        <time>2026-03-03T16:46:28.721Z</time>
      </trkpt>
      <trkpt lat="51.891765" lon="4.654945">
        <ele>0.174107</ele>
        <time>2026-03-03T16:46:32.698Z</time>
      </trkpt>
      <trkpt lat="51.891907" lon="4.655135">
        <ele>0.172033</ele>
        <time>2026-03-03T16:46:35.532Z</time>
      </trkpt>
      <trkpt lat="51.892088" lon="4.655232">
        <ele>0.169887</ele>
        <time>2026-03-03T16:46:38.506Z</time>
      </trkpt>
      <trkpt lat="51.892393" lon="4.655317">
        <ele>0.232407</ele>
        <time>2026-03-03T16:46:43.452Z</time>
      </trkpt>
      <trkpt lat="51.892539" lon="4.655393">
        <ele>0.311816</ele>
        <time>2026-03-03T16:46:45.929Z</time>
      </trkpt>
      <trkpt lat="51.892667" lon="4.655587">
        <ele>0.402574</ele>
        <time>2026-03-03T16:46:48.819Z</time>
      </trkpt>
      <trkpt lat="51.892710" lon="4.655726">
        <ele>0.452263</ele>
        <time>2026-03-03T16:46:50.418Z</time>
      </trkpt>
      <trkpt lat="51.892844" lon="4.656523">
        <ele>0.716246</ele>
        <time>2026-03-03T16:46:59.259Z</time>
      </trkpt>
      <trkpt lat="51.893178" lon="4.657180">
        <ele>0.988269</ele>
        <time>2026-03-03T16:47:09.244Z</time>
      </trkpt>
      <trkpt lat="51.893242" lon="4.657383">
        <ele>1.061117</ele>
        <time>2026-03-03T16:47:11.587Z</time>
      </trkpt>
      <trkpt lat="51.893248" lon="4.657773">
        <ele>1.070819</ele>
        <time>2026-03-03T16:47:15.338Z</time>
      </trkpt>
      <trkpt lat="51.893082" lon="4.658355">
        <ele>1.003647</ele>
        <time>2026-03-03T16:47:21.108Z</time>
      </trkpt>
      <trkpt lat="51.892977" lon="4.658592">
        <ele>0.973080</ele>
        <time>2026-03-03T16:47:23.651Z</time>
      </trkpt>
      <trkpt lat="51.892791" lon="4.658804">
        <ele>0.934475</ele>
        <time>2026-03-03T16:47:26.760Z</time>
      </trkpt>
      <trkpt lat="51.892642" lon="4.658891">
        <ele>0.907587</ele>
        <time>2026-03-03T16:47:28.882Z</time>
      </trkpt>
      <trkpt lat="51.892398" lon="4.658996">
        <ele>0.864728</ele>
        <time>2026-03-03T16:47:32.301Z</time>
      </trkpt>
      <trkpt lat="51.892198" lon="4.659129">
        <ele>0.828027</ele>
        <time>2026-03-03T16:47:35.165Z</time>
      </trkpt>
      <trkpt lat="51.892055" lon="4.659296">
        <ele>0.798102</ele>
        <time>2026-03-03T16:47:37.483Z</time>
      </trkpt>
      <trkpt lat="51.891955" lon="4.659537">
        <ele>0.737734</ele>
        <time>2026-03-03T16:47:39.830Z</time>
      </trkpt>
      <trkpt lat="51.891901" lon="4.659958">
        <ele>0.641156</ele>
        <time>2026-03-03T16:47:43.348Z</time>
      </trkpt>
      <trkpt lat="51.891895" lon="4.660257">
        <ele>0.573965</ele>
        <time>2026-03-03T16:47:45.898Z</time>
      </trkpt>
      <trkpt lat="51.891900" lon="4.662045">
        <ele>0.172374</ele>
        <time>2026-03-03T16:48:00.958Z</time>
      </trkpt>
      <trkpt lat="51.891865" lon="4.663706">
        <ele>0.206206</ele>
        <time>2026-03-03T16:48:15.618Z</time>
      </trkpt>
      <trkpt lat="51.891746" lon="4.665160">
        <ele>0.274202</ele>
        <time>2026-03-03T16:48:30.059Z</time>
      </trkpt>
      <trkpt lat="51.891645" lon="4.666145">
        <ele>0.365695</ele>
        <time>2026-03-03T16:48:40.548Z</time>
      </trkpt>
      <trkpt lat="51.891608" lon="4.666743">
        <ele>0.420764</ele>
        <time>2026-03-03T16:48:46.309Z</time>
      </trkpt>
      <trkpt lat="51.891601" lon="4.667612">
        <ele>0.500397</ele>
        <time>2026-03-03T16:48:54.197Z</time>
      </trkpt>
      <trkpt lat="51.891558" lon="4.668012">
        <ele>0.530915</ele>
        <time>2026-03-03T16:48:57.770Z</time>
      </trkpt>
      <trkpt lat="51.891532" lon="4.668641">
        <ele>0.432654</ele>
        <time>2026-03-03T16:49:03.211Z</time>
      </trkpt>
      <trkpt lat="51.891503" lon="4.669877">
        <ele>0.239861</ele>
        <time>2026-03-03T16:49:13.671Z</time>
      </trkpt>
      <trkpt lat="51.891461" lon="4.671427">
        <ele>0.037168</ele>
        <time>2026-03-03T16:49:27.038Z</time>
      </trkpt>
      <trkpt lat="51.891527" lon="4.671420">
        <ele>0.028357</ele>
        <time>2026-03-03T16:49:34.347Z</time>
      </trkpt>
      <trkpt lat="51.891461" lon="4.671427">
        <ele>0.019545</ele>
        <time>2026-03-03T16:49:41.573Z</time>
      </trkpt>
      <trkpt lat="51.891490" lon="4.672267">
        <ele>-0.049628</ele>
        <time>2026-03-03T16:49:48.908Z</time>
      </trkpt>
      <trkpt lat="51.891569" lon="4.672774">
        <ele>-0.092621</ele>
        <time>2026-03-03T16:49:53.500Z</time>
      </trkpt>
      <trkpt lat="51.891852" lon="4.673643">
        <ele>-0.128400</ele>
        <time>2026-03-03T16:50:02.327Z</time>
      </trkpt>
      <trkpt lat="51.892191" lon="4.674427">
        <ele>0.034811</ele>
        <time>2026-03-03T16:50:11.525Z</time>
      </trkpt>
      <trkpt lat="51.892355" lon="4.674680">
        <ele>0.097368</ele>
        <time>2026-03-03T16:50:15.040Z</time>
      </trkpt>
      <trkpt lat="51.892465" lon="4.674799">
        <ele>0.133907</ele>
        <time>2026-03-03T16:50:17.134Z</time>
      </trkpt>
      <trkpt lat="51.892628" lon="4.674931">
        <ele>0.184248</ele>
        <time>2026-03-03T16:50:20.060Z</time>
      </trkpt>
      <trkpt lat="51.892785" lon="4.674996">
        <ele>0.229015</ele>
        <time>2026-03-03T16:50:22.671Z</time>
      </trkpt>
      <trkpt lat="51.893004" lon="4.675014">
        <ele>0.289594</ele>
        <time>2026-03-03T16:50:26.298Z</time>
      </trkpt>
      <trkpt lat="51.893019" lon="4.675436">
        <ele>0.401996</ele>
        <time>2026-03-03T16:50:30.830Z</time>
      </trkpt>
      <trkpt lat="51.893027" lon="4.675497">
        <ele>0.430857</ele>
        <time>2026-03-03T16:50:31.525Z</time>
      </trkpt>
      <trkpt lat="51.893108" lon="4.675969">
        <ele>0.657582</ele>
        <time>2026-03-03T16:50:36.855Z</time>
      </trkpt>
      <trkpt lat="51.893194" lon="4.676210">
        <ele>0.786418</ele>
        <time>2026-03-03T16:50:39.908Z</time>
      </trkpt>
      <trkpt lat="51.893335" lon="4.676426">
        <ele>0.931926</ele>
        <time>2026-03-03T16:50:43.274Z</time>
      </trkpt>
      <trkpt lat="51.893477" lon="4.676558">
        <ele>1.054691</ele>
        <time>2026-03-03T16:50:46.117Z</time>
      </trkpt>
      <trkpt lat="51.893612" lon="4.676685">
        <ele>1.171752</ele>
        <time>2026-03-03T16:50:48.883Z</time>
      </trkpt>
      <trkpt lat="51.893993" lon="4.677011">
        <ele>1.494852</ele>
        <time>2026-03-03T16:50:56.917Z</time>
      </trkpt>
      <trkpt lat="51.894128" lon="4.677047">
        <ele>1.597451</ele>
        <time>2026-03-03T16:50:59.552Z</time>
      </trkpt>
      <trkpt lat="51.894251" lon="4.677058">
        <ele>1.687689</ele>
        <time>2026-03-03T16:51:01.926Z</time>
      </trkpt>
      <trkpt lat="51.894350" lon="4.677126">
        <ele>1.708439</ele>
        <time>2026-03-03T16:51:04.000Z</time>
      </trkpt>
      <trkpt lat="51.894557" lon="4.677424">
        <ele>1.761874</ele>
        <time>2026-03-03T16:51:09.208Z</time>
      </trkpt>
      <trkpt lat="51.894677" lon="4.677739">
        <ele>1.805960</ele>
        <time>2026-03-03T16:51:13.183Z</time>
      </trkpt>
      <trkpt lat="51.894795" lon="4.678303">
        <ele>1.876882</ele>
        <time>2026-03-03T16:51:18.956Z</time>
      </trkpt>
      <trkpt lat="51.894799" lon="4.678430">
        <ele>1.892026</ele>
        <time>2026-03-03T16:51:20.086Z</time>
      </trkpt>
      <trkpt lat="51.894812" lon="4.679288">
        <ele>1.994237</ele>
        <time>2026-03-03T16:51:27.648Z</time>
      </trkpt>
      <trkpt lat="51.894797" lon="4.679640">
        <ele>2.026089</ele>
        <time>2026-03-03T16:51:30.530Z</time>
      </trkpt>
      <trkpt lat="51.894795" lon="4.679676">
        <ele>2.010538</ele>
        <time>2026-03-03T16:51:30.811Z</time>
      </trkpt>
      <trkpt lat="51.894814" lon="4.680196">
        <ele>1.786421</ele>
        <time>2026-03-03T16:51:34.791Z</time>
      </trkpt>
      <trkpt lat="51.894823" lon="4.680461">
        <ele>1.672235</ele>
        <time>2026-03-03T16:51:36.738Z</time>
      </trkpt>
      <trkpt lat="51.894821" lon="4.680521">
        <ele>1.646383</ele>
        <time>2026-03-03T16:51:37.188Z</time>
      </trkpt>
      <trkpt lat="51.894773" lon="4.681272">
        <ele>1.321544</ele>
        <time>2026-03-03T16:51:42.801Z</time>
      </trkpt>
      <trkpt lat="51.894785" lon="4.681564">
        <ele>1.195635</ele>
        <time>2026-03-03T16:51:45.072Z</time>
      </trkpt>
      <trkpt lat="51.894854" lon="4.682048">
        <ele>0.981915</ele>
        <time>2026-03-03T16:51:49.127Z</time>
      </trkpt>
      <trkpt lat="51.894854" lon="4.682271">
        <ele>0.885971</ele>
        <time>2026-03-03T16:51:51.023Z</time>
      </trkpt>
      <trkpt lat="51.894821" lon="4.682430">
        <ele>0.813798</ele>
        <time>2026-03-03T16:51:52.470Z</time>
      </trkpt>
      <trkpt lat="51.894675" lon="4.682808">
        <ele>0.763578</ele>
        <time>2026-03-03T16:51:56.376Z</time>
      </trkpt>
      <trkpt lat="51.894637" lon="4.682972">
        <ele>0.755723</ele>
        <time>2026-03-03T16:51:57.911Z</time>
      </trkpt>
      <trkpt lat="51.894636" lon="4.683218">
        <ele>0.744691</ele>
        <time>2026-03-03T16:52:00.056Z</time>
      </trkpt>
      <trkpt lat="51.894680" lon="4.684045">
        <ele>0.707469</ele>
        <time>2026-03-03T16:52:07.745Z</time>
      </trkpt>
      <trkpt lat="51.894705" lon="4.684217">
        <ele>0.699545</ele>
        <time>2026-03-03T16:52:09.466Z</time>
      </trkpt>
      <trkpt lat="51.894862" lon="4.685093">
        <ele>0.658639</ele>
        <time>2026-03-03T16:52:17.910Z</time>
      </trkpt>
      <trkpt lat="51.894954" lon="4.685988">
        <ele>0.600941</ele>
        <time>2026-03-03T16:52:25.900Z</time>
      </trkpt>
      <trkpt lat="51.895102" lon="4.687110">
        <ele>0.521623</ele>
        <time>2026-03-03T16:52:36.007Z</time>
      </trkpt>
      <trkpt lat="51.895287" lon="4.687804">
        <ele>0.469361</ele>
        <time>2026-03-03T16:52:42.698Z</time>
      </trkpt>
      <trkpt lat="51.895900" lon="4.689507">
        <ele>0.364031</ele>
        <time>2026-03-03T16:53:00.096Z</time>
      </trkpt>
      <trkpt lat="51.895994" lon="4.689655">
        <ele>0.353309</ele>
        <time>2026-03-03T16:53:01.992Z</time>
      </trkpt>
      <trkpt lat="51.896082" lon="4.689714">
        <ele>0.345518</ele>
        <time>2026-03-03T16:53:03.412Z</time>
      </trkpt>
      <trkpt lat="51.896056" lon="4.689838">
        <ele>0.338907</ele>
        <time>2026-03-03T16:53:04.568Z</time>
      </trkpt>
      <trkpt lat="51.896086" lon="4.690083">
        <ele>0.326297</ele>
        <time>2026-03-03T16:53:06.823Z</time>
      </trkpt>
      <trkpt lat="51.896243" lon="4.690589">
        <ele>0.302475</ele>
        <time>2026-03-03T16:53:12.057Z</time>
      </trkpt>
      <trkpt lat="51.896486" lon="4.691276">
        <ele>0.325766</ele>
        <time>2026-03-03T16:53:19.306Z</time>
      </trkpt>
      <trkpt lat="51.896534" lon="4.691427">
        <ele>0.330762</ele>
        <time>2026-03-03T16:53:20.802Z</time>
      </trkpt>
      <trkpt lat="51.896735" lon="4.692169">
        <ele>0.354597</ele>
        <time>2026-03-03T16:53:28.376Z</time>
      </trkpt>
      <trkpt lat="51.896739" lon="4.692202">
        <ele>0.355586</ele>
        <time>2026-03-03T16:53:28.703Z</time>
      </trkpt>
      <trkpt lat="51.896772" lon="4.692467">
        <ele>0.363537</ele>
        <time>2026-03-03T16:53:31.275Z</time>
      </trkpt>
      <trkpt lat="51.896876" lon="4.693032">
        <ele>0.380879</ele>
        <time>2026-03-03T16:53:36.843Z</time>
      </trkpt>
      <trkpt lat="51.897101" lon="4.693809">
        <ele>0.516173</ele>
        <time>2026-03-03T16:53:44.972Z</time>
      </trkpt>
      <trkpt lat="51.897216" lon="4.694186">
        <ele>0.597733</ele>
        <time>2026-03-03T16:53:48.914Z</time>
      </trkpt>
      <trkpt lat="51.897377" lon="4.694718">
        <ele>0.712649</ele>
        <time>2026-03-03T16:53:54.663Z</time>
      </trkpt>
      <trkpt lat="51.897518" lon="4.695185">
        <ele>0.813478</ele>
        <time>2026-03-03T16:53:59.935Z</time>
      </trkpt>
      <trkpt lat="51.897829" lon="4.696159">
        <ele>1.003759</ele>
        <time>2026-03-03T16:54:11.515Z</time>
      </trkpt>
      <trkpt lat="51.898017" lon="4.696685">
        <ele>1.086157</ele>
        <time>2026-03-03T16:54:17.940Z</time>
      </trkpt>
      <trkpt lat="51.898152" lon="4.696987">
        <ele>1.136708</ele>
        <time>2026-03-03T16:54:21.767Z</time>
      </trkpt>
      <trkpt lat="51.898311" lon="4.697118">
        <ele>1.175890</ele>
        <time>2026-03-03T16:54:24.685Z</time>
      </trkpt>
      <trkpt lat="51.898509" lon="4.697185">
        <ele>1.220324</ele>
        <time>2026-03-03T16:54:27.890Z</time>
      </trkpt>
      <trkpt lat="51.898668" lon="4.697250">
        <ele>1.256346</ele>
        <time>2026-03-03T16:54:30.391Z</time>
      </trkpt>
      <trkpt lat="51.898864" lon="4.697476">
        <ele>1.309189</ele>
        <time>2026-03-03T16:54:33.843Z</time>
      </trkpt>
      <trkpt lat="51.898949" lon="4.697796">
        <ele>1.329205</ele>
        <time>2026-03-03T16:54:36.825Z</time>
      </trkpt>
      <trkpt lat="51.898957" lon="4.698030">
        <ele>1.270511</ele>
        <time>2026-03-03T16:54:38.796Z</time>
      </trkpt>
      <trkpt lat="51.898939" lon="4.698189">
        <ele>1.230026</ele>
        <time>2026-03-03T16:54:40.127Z</time>
      </trkpt>
      <trkpt lat="51.898912" lon="4.698315">
        <ele>1.196622</ele>
        <time>2026-03-03T16:54:41.219Z</time>
      </trkpt>
      <trkpt lat="51.898857" lon="4.698521">
        <ele>1.140408</ele>
        <time>2026-03-03T16:54:43.051Z</time>
      </trkpt>
      <trkpt lat="51.898787" lon="4.698782">
        <ele>1.069135</ele>
        <time>2026-03-03T16:54:45.320Z</time>
      </trkpt>
      <trkpt lat="51.898769" lon="4.699034">
        <ele>1.005601</ele>
        <time>2026-03-03T16:54:47.345Z</time>
      </trkpt>
      <trkpt lat="51.898874" lon="4.700398">
        <ele>0.661348</ele>
        <time>2026-03-03T16:54:58.541Z</time>
      </trkpt>
      <trkpt lat="51.898901" lon="4.701803">
        <ele>0.509157</ele>
        <time>2026-03-03T16:55:10.706Z</time>
      </trkpt>
      <trkpt lat="51.898946" lon="4.702763">
        <ele>0.424730</ele>
        <time>2026-03-03T16:55:19.432Z</time>
      </trkpt>
      <trkpt lat="51.899054" lon="4.704104">
        <ele>0.378634</ele>
        <time>2026-03-03T16:55:31.932Z</time>
      </trkpt>
      <trkpt lat="51.899179" lon="4.705999">
        <ele>0.431444</ele>
        <time>2026-03-03T16:55:49.575Z</time>
      </trkpt>
      <trkpt lat="51.899181" lon="4.706713">
        <ele>0.557510</ele>
        <time>2026-03-03T16:55:55.908Z</time>
      </trkpt>
      <trkpt lat="51.899133" lon="4.707753">
        <ele>0.919175</ele>
        <time>2026-03-03T16:56:06.513Z</time>
      </trkpt>
      <trkpt lat="51.899131" lon="4.708294">
        <ele>1.106790</ele>
        <time>2026-03-03T16:56:12.591Z</time>
      </trkpt>
      <trkpt lat="51.899132" lon="4.708517">
        <ele>1.184125</ele>
        <time>2026-03-03T16:56:15.044Z</time>
      </trkpt>
      <trkpt lat="51.899130" lon="4.708881">
        <ele>1.310360</ele>
        <time>2026-03-03T16:56:19.103Z</time>
      </trkpt>
      <trkpt lat="51.899098" lon="4.709550">
        <ele>1.582394</ele>
        <time>2026-03-03T16:56:26.624Z</time>
      </trkpt>
      <trkpt lat="51.899057" lon="4.710021">
        <ele>1.819285</ele>
        <time>2026-03-03T16:56:32.096Z</time>
      </trkpt>
      <trkpt lat="51.898975" lon="4.710584">
        <ele>2.107376</ele>
        <time>2026-03-03T16:56:39.053Z</time>
      </trkpt>
      <trkpt lat="51.898871" lon="4.711512">
        <ele>2.577102</ele>
        <time>2026-03-03T16:56:49.635Z</time>
      </trkpt>
      <trkpt lat="51.898851" lon="4.711924">
        <ele>2.782922</ele>
        <time>2026-03-03T16:56:54.137Z</time>
      </trkpt>
      <trkpt lat="51.898812" lon="4.712990">
        <ele>2.693583</ele>
        <time>2026-03-03T16:57:05.067Z</time>
      </trkpt>
      <trkpt lat="51.898760" lon="4.713603">
        <ele>2.535106</ele>
        <time>2026-03-03T16:57:10.674Z</time>
      </trkpt>
      <trkpt lat="51.898720" lon="4.714008">
        <ele>2.430057</ele>
        <time>2026-03-03T16:57:13.947Z</time>
      </trkpt>
      <trkpt lat="51.898654" lon="4.714711">
        <ele>2.247933</ele>
        <time>2026-03-03T16:57:19.209Z</time>
      </trkpt>
      <trkpt lat="51.898498" lon="4.716164">
        <ele>1.594219</ele>
        <time>2026-03-03T16:57:29.755Z</time>
      </trkpt>
      <trkpt lat="51.898526" lon="4.717733">
        <ele>0.806662</ele>
        <time>2026-03-03T16:57:42.473Z</time>
      </trkpt>
      <trkpt lat="51.898568" lon="4.718244">
        <ele>0.644789</ele>
        <time>2026-03-03T16:57:46.816Z</time>
      </trkpt>
      <trkpt lat="51.898671" lon="4.718781">
        <ele>0.547810</ele>
        <time>2026-03-03T16:57:51.541Z</time>
      </trkpt>
      <trkpt lat="51.898668" lon="4.719474">
        <ele>0.428296</ele>
        <time>2026-03-03T16:57:57.544Z</time>
      </trkpt>
      <trkpt lat="51.898665" lon="4.719851">
        <ele>0.363275</ele>
        <time>2026-03-03T16:58:00.870Z</time>
      </trkpt>
      <trkpt lat="51.898729" lon="4.720452">
        <ele>0.258098</ele>
        <time>2026-03-03T16:58:05.934Z</time>
      </trkpt>
      <trkpt lat="51.898893" lon="4.721451">
        <ele>0.220095</ele>
        <time>2026-03-03T16:58:14.981Z</time>
      </trkpt>
      <trkpt lat="51.898997" lon="4.722011">
        <ele>0.244472</ele>
        <time>2026-03-03T16:58:20.641Z</time>
      </trkpt>
      <trkpt lat="51.899085" lon="4.722474">
        <ele>0.264666</ele>
        <time>2026-03-03T16:58:25.394Z</time>
      </trkpt>
      <trkpt lat="51.899197" lon="4.723015">
        <ele>0.288453</ele>
        <time>2026-03-03T16:58:30.790Z</time>
      </trkpt>
      <trkpt lat="51.899290" lon="4.723312">
        <ele>0.302335</ele>
        <time>2026-03-03T16:58:33.865Z</time>
      </trkpt>
      <trkpt lat="51.899319" lon="4.723393">
        <ele>0.306239</ele>
        <time>2026-03-03T16:58:34.710Z</time>
      </trkpt>
      <trkpt lat="51.899607" lon="4.724078">
        <ele>0.510906</ele>
        <time>2026-03-03T16:58:42.490Z</time>
      </trkpt>
      <trkpt lat="51.899876" lon="4.724573">
        <ele>0.714924</ele>
        <time>2026-03-03T16:58:49.089Z</time>
      </trkpt>
      <trkpt lat="51.900391" lon="4.725331">
        <ele>1.063651</ele>
        <time>2026-03-03T16:59:01.483Z</time>
      </trkpt>
      <trkpt lat="51.900780" lon="4.725765">
        <ele>1.260433</ele>
        <time>2026-03-03T16:59:09.972Z</time>
      </trkpt>
      <trkpt lat="51.900967" lon="4.725967">
        <ele>1.319813</ele>
        <time>2026-03-03T16:59:14.093Z</time>
      </trkpt>
      <trkpt lat="51.901451" lon="4.726614">
        <ele>1.485589</ele>
        <time>2026-03-03T16:59:25.052Z</time>
      </trkpt>
      <trkpt lat="51.901727" lon="4.727029">
        <ele>1.585067</ele>
        <time>2026-03-03T16:59:30.579Z</time>
      </trkpt>
      <trkpt lat="51.901914" lon="4.727397">
        <ele>1.662790</ele>
        <time>2026-03-03T16:59:34.468Z</time>
      </trkpt>
      <trkpt lat="51.902184" lon="4.727839">
        <ele>1.544636</ele>
        <time>2026-03-03T16:59:39.542Z</time>
      </trkpt>
      <trkpt lat="51.902675" lon="4.728489">
        <ele>1.208601</ele>
        <time>2026-03-03T16:59:47.674Z</time>
      </trkpt>
      <trkpt lat="51.902921" lon="4.728837">
        <ele>1.035527</ele>
        <time>2026-03-03T16:59:51.798Z</time>
      </trkpt>
      <trkpt lat="51.903217" lon="4.729358">
        <ele>0.803910</ele>
        <time>2026-03-03T16:59:57.593Z</time>
      </trkpt>
      <trkpt lat="51.903307" lon="4.729516">
        <ele>0.738688</ele>
        <time>2026-03-03T16:59:59.417Z</time>
      </trkpt>
      <trkpt lat="51.903506" lon="4.729884">
        <ele>0.772893</ele>
        <time>2026-03-03T17:00:03.725Z</time>
      </trkpt>
      <trkpt lat="51.903684" lon="4.730214">
        <ele>0.803533</ele>
        <time>2026-03-03T17:00:07.691Z</time>
      </trkpt>
      <trkpt lat="51.903876" lon="4.730564">
        <ele>0.836270</ele>
        <time>2026-03-03T17:00:12.102Z</time>
      </trkpt>
      <trkpt lat="51.904041" lon="4.730857">
        <ele>0.863999</ele>
        <time>2026-03-03T17:00:15.971Z</time>
      </trkpt>
      <trkpt lat="51.904375" lon="4.731450">
        <ele>0.920123</ele>
        <time>2026-03-03T17:00:24.036Z</time>
      </trkpt>
      <trkpt lat="51.904460" lon="4.731650">
        <ele>0.937099</ele>
        <time>2026-03-03T17:00:26.428Z</time>
      </trkpt>
      <trkpt lat="51.904503" lon="4.731751">
        <ele>0.957558</ele>
        <time>2026-03-03T17:00:27.629Z</time>
      </trkpt>
      <trkpt lat="51.904710" lon="4.732329">
        <ele>1.139227</ele>
        <time>2026-03-03T17:00:34.269Z</time>
      </trkpt>
      <trkpt lat="51.904808" lon="4.732755">
        <ele>1.262814</ele>
        <time>2026-03-03T17:00:39.114Z</time>
      </trkpt>
      <trkpt lat="51.904912" lon="4.733220">
        <ele>1.397262</ele>
        <time>2026-03-03T17:00:44.540Z</time>
      </trkpt>
      <trkpt lat="51.904974" lon="4.733514">
        <ele>1.481719</ele>
        <time>2026-03-03T17:00:47.965Z</time>
      </trkpt>
      <trkpt lat="51.905052" lon="4.733829">
        <ele>1.573984</ele>
        <time>2026-03-03T17:00:51.620Z</time>
      </trkpt>
      <trkpt lat="51.905289" lon="4.734436">
        <ele>1.700311</ele>
        <time>2026-03-03T17:00:58.579Z</time>
      </trkpt>
      <trkpt lat="51.905447" lon="4.735210">
        <ele>1.488245</ele>
        <time>2026-03-03T17:01:06.273Z</time>
      </trkpt>
      <trkpt lat="51.905546" lon="4.735852">
        <ele>1.316112</ele>
        <time>2026-03-03T17:01:11.733Z</time>
      </trkpt>
      <trkpt lat="51.905558" lon="4.735933">
        <ele>1.294444</ele>
        <time>2026-03-03T17:01:12.405Z</time>
      </trkpt>
      <trkpt lat="51.905591" lon="4.736215">
        <ele>1.219783</ele>
        <time>2026-03-03T17:01:14.668Z</time>
      </trkpt>
      <trkpt lat="51.905651" lon="4.736896">
        <ele>1.040846</ele>
        <time>2026-03-03T17:01:19.805Z</time>
      </trkpt>
      <trkpt lat="51.905663" lon="4.737048">
        <ele>1.000986</ele>
        <time>2026-03-03T17:01:20.926Z</time>
      </trkpt>
      <trkpt lat="51.905691" lon="4.737389">
        <ele>0.913600</ele>
        <time>2026-03-03T17:01:23.483Z</time>
      </trkpt>
      <trkpt lat="51.905728" lon="4.737848">
        <ele>0.797124</ele>
        <time>2026-03-03T17:01:27.133Z</time>
      </trkpt>
      <trkpt lat="51.905768" lon="4.738338">
        <ele>0.672756</ele>
        <time>2026-03-03T17:01:31.122Z</time>
      </trkpt>
      <trkpt lat="51.905821" lon="4.738920">
        <ele>0.524726</ele>
        <time>2026-03-03T17:01:36.051Z</time>
      </trkpt>
      <trkpt lat="51.905831" lon="4.739038">
        <ele>0.494756</ele>
        <time>2026-03-03T17:01:37.079Z</time>
      </trkpt>
      <trkpt lat="51.905893" lon="4.739633">
        <ele>0.342921</ele>
        <time>2026-03-03T17:01:42.528Z</time>
      </trkpt>
      <trkpt lat="51.905938" lon="4.739974">
        <ele>0.255178</ele>
        <time>2026-03-03T17:01:45.704Z</time>
      </trkpt>
      <trkpt lat="51.906104" lon="4.740878">
        <ele>0.251928</ele>
        <time>2026-03-03T17:01:54.640Z</time>
      </trkpt>
      <trkpt lat="51.906162" lon="4.741084">
        <ele>0.254417</ele>
        <time>2026-03-03T17:01:56.755Z</time>
      </trkpt>
      <trkpt lat="51.906357" lon="4.741765">
        <ele>0.262671</ele>
        <time>2026-03-03T17:02:03.545Z</time>
      </trkpt>
      <trkpt lat="51.906813" lon="4.743226">
        <ele>0.262805</ele>
        <time>2026-03-03T17:02:18.487Z</time>
      </trkpt>
      <trkpt lat="51.906901" lon="4.743405">
        <ele>0.258397</ele>
        <time>2026-03-03T17:02:20.531Z</time>
      </trkpt>
      <trkpt lat="51.907032" lon="4.743634">
        <ele>0.252381</ele>
        <time>2026-03-03T17:02:23.312Z</time>
      </trkpt>
      <trkpt lat="51.907409" lon="4.744128">
        <ele>0.237246</ele>
        <time>2026-03-03T17:02:30.327Z</time>
      </trkpt>
      <trkpt lat="51.907652" lon="4.744676">
        <ele>0.224247</ele>
        <time>2026-03-03T17:02:36.504Z</time>
      </trkpt>
      <trkpt lat="51.907963" lon="4.745139">
        <ele>0.247308</ele>
        <time>2026-03-03T17:02:42.806Z</time>
      </trkpt>
      <trkpt lat="51.909083" lon="4.746531">
        <ele>0.432710</ele>
        <time>2026-03-03T17:03:04.503Z</time>
      </trkpt>
      <trkpt lat="51.909674" lon="4.747336">
        <ele>0.623126</ele>
        <time>2026-03-03T17:03:16.848Z</time>
      </trkpt>
      <trkpt lat="51.909862" lon="4.747514">
        <ele>0.683623</ele>
        <time>2026-03-03T17:03:20.157Z</time>
      </trkpt>
      <trkpt lat="51.910513" lon="4.747874">
        <ele>0.874751</ele>
        <time>2026-03-03T17:03:30.760Z</time>
      </trkpt>
      <trkpt lat="51.911118" lon="4.748219">
        <ele>1.053959</ele>
        <time>2026-03-03T17:03:42.062Z</time>
      </trkpt>
      <trkpt lat="51.911198" lon="4.748260">
        <ele>1.077508</ele>
        <time>2026-03-03T17:03:43.523Z</time>
      </trkpt>
      <trkpt lat="51.911395" lon="4.748376">
        <ele>1.136336</ele>
        <time>2026-03-03T17:03:47.084Z</time>
      </trkpt>
      <trkpt lat="51.911549" lon="4.748529">
        <ele>1.187032</ele>
        <time>2026-03-03T17:03:50.045Z</time>
      </trkpt>
      <trkpt lat="51.911737" lon="4.748862">
        <ele>1.265190</ele>
        <time>2026-03-03T17:03:54.578Z</time>
      </trkpt>
      <trkpt lat="51.911811" lon="4.749120">
        <ele>1.314453</ele>
        <time>2026-03-03T17:03:57.465Z</time>
      </trkpt>
      <trkpt lat="51.911841" lon="4.749351">
        <ele>1.355325</ele>
        <time>2026-03-03T17:03:59.869Z</time>
      </trkpt>
      <trkpt lat="51.911829" lon="4.749652">
        <ele>1.407550</ele>
        <time>2026-03-03T17:04:02.845Z</time>
      </trkpt>
      <trkpt lat="51.911754" lon="4.750293">
        <ele>1.203343</ele>
        <time>2026-03-03T17:04:08.323Z</time>
      </trkpt>
      <trkpt lat="51.911756" lon="4.750684">
        <ele>0.922390</ele>
        <time>2026-03-03T17:04:11.363Z</time>
      </trkpt>
      <trkpt lat="51.911834" lon="4.751150">
        <ele>0.575451</ele>
        <time>2026-03-03T17:04:14.850Z</time>
      </trkpt>
      <trkpt lat="51.912004" lon="4.751614">
        <ele>0.187686</ele>
        <time>2026-03-03T17:04:18.585Z</time>
      </trkpt>
      <trkpt lat="51.912337" lon="4.752204">
        <ele>-0.386909</ele>
        <time>2026-03-03T17:04:24.118Z</time>
      </trkpt>
      <trkpt lat="51.912603" lon="4.752669">
        <ele>-0.644806</ele>
        <time>2026-03-03T17:04:28.598Z</time>
      </trkpt>
      <trkpt lat="51.913009" lon="4.753422">
        <ele>-0.675085</ele>
        <time>2026-03-03T17:04:36.801Z</time>
      </trkpt>
      <trkpt lat="51.913370" lon="4.754243">
        <ele>-0.705610</ele>
        <time>2026-03-03T17:04:46.816Z</time>
      </trkpt>
      <trkpt lat="51.913637" lon="4.754918">
        <ele>-0.631633</ele>
        <time>2026-03-03T17:04:55.954Z</time>
      </trkpt>
      <trkpt lat="51.913776" lon="4.755250">
        <ele>-0.426827</ele>
        <time>2026-03-03T17:05:00.864Z</time>
      </trkpt>
      <trkpt lat="51.913925" lon="4.755567">
        <ele>-0.223404</ele>
        <time>2026-03-03T17:05:05.811Z</time>
      </trkpt>
      <trkpt lat="51.914020" lon="4.755686">
        <ele>-0.124063</ele>
        <time>2026-03-03T17:05:08.243Z</time>
      </trkpt>
      <trkpt lat="51.914934" lon="4.756452">
        <ele>0.727322</ele>
        <time>2026-03-03T17:05:26.404Z</time>
      </trkpt>
      <trkpt lat="51.915324" lon="4.756847">
        <ele>0.811893</ele>
        <time>2026-03-03T17:05:34.205Z</time>
      </trkpt>
      <trkpt lat="51.915530" lon="4.757149">
        <ele>0.843946</ele>
        <time>2026-03-03T17:05:38.691Z</time>
      </trkpt>
      <trkpt lat="51.915727" lon="4.757558">
        <ele>0.880886</ele>
        <time>2026-03-03T17:05:43.751Z</time>
      </trkpt>
      <trkpt lat="51.916004" lon="4.758294">
        <ele>0.942260</ele>
        <time>2026-03-03T17:05:51.236Z</time>
      </trkpt>
      <trkpt lat="51.916148" lon="4.758709">
        <ele>0.963113</ele>
        <time>2026-03-03T17:05:55.238Z</time>
      </trkpt>
      <trkpt lat="51.916258" lon="4.759035">
        <ele>0.915392</ele>
        <time>2026-03-03T17:05:58.333Z</time>
      </trkpt>
      <trkpt lat="51.916328" lon="4.759347">
        <ele>0.872756</ele>
        <time>2026-03-03T17:06:01.078Z</time>
      </trkpt>
      <trkpt lat="51.916396" lon="4.759641">
        <ele>0.832433</ele>
        <time>2026-03-03T17:06:03.742Z</time>
      </trkpt>
      <trkpt lat="51.916792" lon="4.760813">
        <ele>0.660820</ele>
        <time>2026-03-03T17:06:15.232Z</time>
      </trkpt>
      <trkpt lat="51.916995" lon="4.761435">
        <ele>0.619326</ele>
        <time>2026-03-03T17:06:21.793Z</time>
      </trkpt>
      <trkpt lat="51.917147" lon="4.761905">
        <ele>0.676536</ele>
        <time>2026-03-03T17:06:26.893Z</time>
      </trkpt>
      <trkpt lat="51.917448" lon="4.762744">
        <ele>0.781172</ele>
        <time>2026-03-03T17:06:36.409Z</time>
      </trkpt>
      <trkpt lat="51.917570" lon="4.763052">
        <ele>0.820633</ele>
        <time>2026-03-03T17:06:39.999Z</time>
      </trkpt>
      <trkpt lat="51.918668" lon="4.765696">
        <ele>1.130529</ele>
        <time>2026-03-03T17:07:09.926Z</time>
      </trkpt>
      <trkpt lat="51.918808" lon="4.766141">
        <ele>1.177200</ele>
        <time>2026-03-03T17:07:14.871Z</time>
      </trkpt>
      <trkpt lat="51.918856" lon="4.766367">
        <ele>1.214086</ele>
        <time>2026-03-03T17:07:17.268Z</time>
      </trkpt>
      <trkpt lat="51.918935" lon="4.767029">
        <ele>1.335499</ele>
        <time>2026-03-03T17:07:24.168Z</time>
      </trkpt>
      <trkpt lat="51.918974" lon="4.767529">
        <ele>1.426249</ele>
        <time>2026-03-03T17:07:29.448Z</time>
      </trkpt>
      <trkpt lat="51.919007" lon="4.768002">
        <ele>1.511962</ele>
        <time>2026-03-03T17:07:34.290Z</time>
      </trkpt>
      <trkpt lat="51.919013" lon="4.768492">
        <ele>1.600211</ele>
        <time>2026-03-03T17:07:39.140Z</time>
      </trkpt>
      <trkpt lat="51.918958" lon="4.769308">
        <ele>1.681496</ele>
        <time>2026-03-03T17:07:46.783Z</time>
      </trkpt>
      <trkpt lat="51.918975" lon="4.769781">
        <ele>1.621574</ele>
        <time>2026-03-03T17:07:50.856Z</time>
      </trkpt>
      <trkpt lat="51.919048" lon="4.770543">
        <ele>1.524049</ele>
        <time>2026-03-03T17:07:57.283Z</time>
      </trkpt>
      <trkpt lat="51.919038" lon="4.771401">
        <ele>1.415519</ele>
        <time>2026-03-03T17:08:04.341Z</time>
      </trkpt>
      <trkpt lat="51.918904" lon="4.772581">
        <ele>1.304815</ele>
        <time>2026-03-03T17:08:15.206Z</time>
      </trkpt>
      <trkpt lat="51.918715" lon="4.773740">
        <ele>1.234688</ele>
        <time>2026-03-03T17:08:26.656Z</time>
      </trkpt>
      <trkpt lat="51.918661" lon="4.774272">
        <ele>1.203149</ele>
        <time>2026-03-03T17:08:31.627Z</time>
      </trkpt>
      <trkpt lat="51.918560" lon="4.775576">
        <ele>0.958773</ele>
        <time>2026-03-03T17:08:42.365Z</time>
      </trkpt>
      <trkpt lat="51.918338" lon="4.777078">
        <ele>0.518713</ele>
        <time>2026-03-03T17:08:54.606Z</time>
      </trkpt>
      <trkpt lat="51.918308" lon="4.777572">
        <ele>0.377283</ele>
        <time>2026-03-03T17:08:58.800Z</time>
      </trkpt>
      <trkpt lat="51.918293" lon="4.778521">
        <ele>0.377048</ele>
        <time>2026-03-03T17:09:07.539Z</time>
      </trkpt>
      <trkpt lat="51.918313" lon="4.779203">
        <ele>0.409238</ele>
        <time>2026-03-03T17:09:14.395Z</time>
      </trkpt>
      <trkpt lat="51.918442" lon="4.780577">
        <ele>0.474764</ele>
        <time>2026-03-03T17:09:27.576Z</time>
      </trkpt>
      <trkpt lat="51.918486" lon="4.780861">
        <ele>0.553529</ele>
        <time>2026-03-03T17:09:30.245Z</time>
      </trkpt>
      <trkpt lat="51.918566" lon="4.781350">
        <ele>0.702301</ele>
        <time>2026-03-03T17:09:34.890Z</time>
      </trkpt>
      <trkpt lat="51.918663" lon="4.781870">
        <ele>0.862056</ele>
        <time>2026-03-03T17:09:39.954Z</time>
      </trkpt>
      <trkpt lat="51.918742" lon="4.782107">
        <ele>0.941277</ele>
        <time>2026-03-03T17:09:42.556Z</time>
      </trkpt>
      <trkpt lat="51.918886" lon="4.782317">
        <ele>1.033620</ele>
        <time>2026-03-03T17:09:45.916Z</time>
      </trkpt>
      <trkpt lat="51.919661" lon="4.782779">
        <ele>1.473300</ele>
        <time>2026-03-03T17:10:01.673Z</time>
      </trkpt>
      <trkpt lat="51.919933" lon="4.782921">
        <ele>1.676494</ele>
        <time>2026-03-03T17:10:06.627Z</time>
      </trkpt>
      <trkpt lat="51.920126" lon="4.783062">
        <ele>1.827021</ele>
        <time>2026-03-03T17:10:10.306Z</time>
      </trkpt>
      <trkpt lat="51.920267" lon="4.783260">
        <ele>1.959660</ele>
        <time>2026-03-03T17:10:13.578Z</time>
      </trkpt>
      <trkpt lat="51.920385" lon="4.783528">
        <ele>2.104073</ele>
        <time>2026-03-03T17:10:17.097Z</time>
      </trkpt>
      <trkpt lat="51.920445" lon="4.783685">
        <ele>2.185075</ele>
        <time>2026-03-03T17:10:19.154Z</time>
      </trkpt>
      <trkpt lat="51.920631" lon="4.784205">
        <ele>2.448706</ele>
        <time>2026-03-03T17:10:25.890Z</time>
      </trkpt>
      <trkpt lat="51.920766" lon="4.784541">
        <ele>2.618522</ele>
        <time>2026-03-03T17:10:29.975Z</time>
      </trkpt>
      <trkpt lat="51.921009" lon="4.785038">
        <ele>2.754820</ele>
        <time>2026-03-03T17:10:36.280Z</time>
      </trkpt>
      <trkpt lat="51.921057" lon="4.785138">
        <ele>2.782052</ele>
        <time>2026-03-03T17:10:37.558Z</time>
      </trkpt>
      <trkpt lat="51.921100" lon="4.785227">
        <ele>2.806348</ele>
        <time>2026-03-03T17:10:38.712Z</time>
      </trkpt>
      <trkpt lat="51.921181" lon="4.785469">
        <ele>2.865520</ele>
        <time>2026-03-03T17:10:41.649Z</time>
      </trkpt>
      <trkpt lat="51.921226" lon="4.786088">
        <ele>2.999465</ele>
        <time>2026-03-03T17:10:48.755Z</time>
      </trkpt>
      <trkpt lat="51.921270" lon="4.786308">
        <ele>3.049167</ele>
        <time>2026-03-03T17:10:51.357Z</time>
      </trkpt>
      <trkpt lat="51.921404" lon="4.786588">
        <ele>3.125331</ele>
        <time>2026-03-03T17:10:55.032Z</time>
      </trkpt>
      <trkpt lat="51.921877" lon="4.787269">
        <ele>3.170715</ele>
        <time>2026-03-03T17:11:03.341Z</time>
      </trkpt>
      <trkpt lat="51.922022" lon="4.787476">
        <ele>3.127197</ele>
        <time>2026-03-03T17:11:05.856Z</time>
      </trkpt>
      <trkpt lat="51.922060" lon="4.787510">
        <ele>3.117421</ele>
        <time>2026-03-03T17:11:06.430Z</time>
      </trkpt>
      <trkpt lat="51.922149" lon="4.787590">
        <ele>3.094498</ele>
        <time>2026-03-03T17:11:07.774Z</time>
      </trkpt>
      <trkpt lat="51.922535" lon="4.787805">
        <ele>3.002561</ele>
        <time>2026-03-03T17:11:13.245Z</time>
      </trkpt>
      <trkpt lat="51.922636" lon="4.787907">
        <ele>2.975758</ele>
        <time>2026-03-03T17:11:14.903Z</time>
      </trkpt>
      <trkpt lat="51.922810" lon="4.788182">
        <ele>2.921025</ele>
        <time>2026-03-03T17:11:18.301Z</time>
      </trkpt>
      <trkpt lat="51.922854" lon="4.788289">
        <ele>2.903159</ele>
        <time>2026-03-03T17:11:19.415Z</time>
      </trkpt>
      <trkpt lat="51.922894" lon="4.788512">
        <ele>2.870896</ele>
        <time>2026-03-03T17:11:21.434Z</time>
      </trkpt>
      <trkpt lat="51.922877" lon="4.788731">
        <ele>2.840232</ele>
        <time>2026-03-03T17:11:23.361Z</time>
      </trkpt>
      <trkpt lat="51.922839" lon="4.788854">
        <ele>2.843420</ele>
        <time>2026-03-03T17:11:24.645Z</time>
      </trkpt>
      <trkpt lat="51.922581" lon="4.789337">
        <ele>2.905093</ele>
        <time>2026-03-03T17:11:31.329Z</time>
      </trkpt>
      <trkpt lat="51.922514" lon="4.789508">
        <ele>2.924647</ele>
        <time>2026-03-03T17:11:33.629Z</time>
      </trkpt>
      <trkpt lat="51.922482" lon="4.789654">
        <ele>2.939602</ele>
        <time>2026-03-03T17:11:35.344Z</time>
      </trkpt>
      <trkpt lat="51.922478" lon="4.789857">
        <ele>2.959205</ele>
        <time>2026-03-03T17:11:37.515Z</time>
      </trkpt>
      <trkpt lat="51.922582" lon="4.790248">
        <ele>3.000303</ele>
        <time>2026-03-03T17:11:41.758Z</time>
      </trkpt>
      <trkpt lat="51.922903" lon="4.790774">
        <ele>3.071725</ele>
        <time>2026-03-03T17:11:48.414Z</time>
      </trkpt>
      <trkpt lat="51.923119" lon="4.791417">
        <ele>3.080644</ele>
        <time>2026-03-03T17:11:54.718Z</time>
      </trkpt>
      <trkpt lat="51.923328" lon="4.792247">
        <ele>2.966517</ele>
        <time>2026-03-03T17:12:02.489Z</time>
      </trkpt>
      <trkpt lat="51.923415" lon="4.792660">
        <ele>2.910960</ele>
        <time>2026-03-03T17:12:06.217Z</time>
      </trkpt>
      <trkpt lat="51.923536" lon="4.793254">
        <ele>2.831327</ele>
        <time>2026-03-03T17:12:11.524Z</time>
      </trkpt>
      <trkpt lat="51.923566" lon="4.793394">
        <ele>2.812460</ele>
        <time>2026-03-03T17:12:12.788Z</time>
      </trkpt>
      <trkpt lat="51.923633" lon="4.793885">
        <ele>2.748445</ele>
        <time>2026-03-03T17:12:17.251Z</time>
      </trkpt>
      <trkpt lat="51.923675" lon="4.794326">
        <ele>2.687039</ele>
        <time>2026-03-03T17:12:21.448Z</time>
      </trkpt>
      <trkpt lat="51.923744" lon="4.795156">
        <ele>2.571146</ele>
        <time>2026-03-03T17:12:28.959Z</time>
      </trkpt>
      <trkpt lat="51.923872" lon="4.796144">
        <ele>2.431444</ele>
        <time>2026-03-03T17:12:37.444Z</time>
      </trkpt>
      <trkpt lat="51.923923" lon="4.796458">
        <ele>2.386512</ele>
        <time>2026-03-03T17:12:40.224Z</time>
      </trkpt>
      <trkpt lat="51.923943" lon="4.796776">
        <ele>2.342279</ele>
        <time>2026-03-03T17:12:42.936Z</time>
      </trkpt>
      <trkpt lat="51.923970" lon="4.797500">
        <ele>2.170753</ele>
        <time>2026-03-03T17:12:48.921Z</time>
      </trkpt>
      <trkpt lat="51.924035" lon="4.798232">
        <ele>1.994863</ele>
        <time>2026-03-03T17:12:54.847Z</time>
      </trkpt>
      <trkpt lat="51.924128" lon="4.799183">
        <ele>1.765857</ele>
        <time>2026-03-03T17:13:02.811Z</time>
      </trkpt>
      <trkpt lat="51.924213" lon="4.800148">
        <ele>1.746580</ele>
        <time>2026-03-03T17:13:11.395Z</time>
      </trkpt>
      <trkpt lat="51.924289" lon="4.800816">
        <ele>1.888258</ele>
        <time>2026-03-03T17:13:18.227Z</time>
      </trkpt>
      <trkpt lat="51.924352" lon="4.801158">
        <ele>1.962705</ele>
        <time>2026-03-03T17:13:22.126Z</time>
      </trkpt>
      <trkpt lat="51.924410" lon="4.801415">
        <ele>2.019785</ele>
        <time>2026-03-03T17:13:24.965Z</time>
      </trkpt>
      <trkpt lat="51.924547" lon="4.801866">
        <ele>2.124643</ele>
        <time>2026-03-03T17:13:30.065Z</time>
      </trkpt>
      <trkpt lat="51.924833" lon="4.802702">
        <ele>2.317333</ele>
        <time>2026-03-03T17:13:39.954Z</time>
      </trkpt>
      <trkpt lat="51.924873" lon="4.802908">
        <ele>2.357964</ele>
        <time>2026-03-03T17:13:42.203Z</time>
      </trkpt>
      <trkpt lat="51.924901" lon="4.803274">
        <ele>2.427347</ele>
        <time>2026-03-03T17:13:46.204Z</time>
      </trkpt>
      <trkpt lat="51.924954" lon="4.804038">
        <ele>2.571986</ele>
        <time>2026-03-03T17:13:53.717Z</time>
      </trkpt>
      <trkpt lat="51.924984" lon="4.804309">
        <ele>2.623785</ele>
        <time>2026-03-03T17:13:56.274Z</time>
      </trkpt>
      <trkpt lat="51.925027" lon="4.804531">
        <ele>2.667562</ele>
        <time>2026-03-03T17:13:58.444Z</time>
      </trkpt>
      <trkpt lat="51.925148" lon="4.805171">
        <ele>2.793496</ele>
        <time>2026-03-03T17:14:04.936Z</time>
      </trkpt>
      <trkpt lat="51.925207" lon="4.805747">
        <ele>2.746780</ele>
        <time>2026-03-03T17:14:10.501Z</time>
      </trkpt>
      <trkpt lat="51.925222" lon="4.806056">
        <ele>2.712930</ele>
        <time>2026-03-03T17:14:13.467Z</time>
      </trkpt>
      <trkpt lat="51.925214" lon="4.806361">
        <ele>2.679592</ele>
        <time>2026-03-03T17:14:16.278Z</time>
      </trkpt>
      <trkpt lat="51.925194" lon="4.806812">
        <ele>2.630212</ele>
        <time>2026-03-03T17:14:20.297Z</time>
      </trkpt>
      <trkpt lat="51.925239" lon="4.807311">
        <ele>2.575137</ele>
        <time>2026-03-03T17:14:24.697Z</time>
      </trkpt>
      <trkpt lat="51.925276" lon="4.807580">
        <ele>2.545038</ele>
        <time>2026-03-03T17:14:27.105Z</time>
      </trkpt>
      <trkpt lat="51.925450" lon="4.808649">
        <ele>2.229384</ele>
        <time>2026-03-03T17:14:35.749Z</time>
      </trkpt>
      <trkpt lat="51.925543" lon="4.809503">
        <ele>1.834372</ele>
        <time>2026-03-03T17:14:42.456Z</time>
      </trkpt>
      <trkpt lat="51.925568" lon="4.809843">
        <ele>1.678407</ele>
        <time>2026-03-03T17:14:45.081Z</time>
      </trkpt>
      <trkpt lat="51.925576" lon="4.810298">
        <ele>1.471072</ele>
        <time>2026-03-03T17:14:48.601Z</time>
      </trkpt>
      <trkpt lat="51.925579" lon="4.810433">
        <ele>1.409540</ele>
        <time>2026-03-03T17:14:49.679Z</time>
      </trkpt>
      <trkpt lat="51.925620" lon="4.810695">
        <ele>1.286418</ele>
        <time>2026-03-03T17:14:51.786Z</time>
      </trkpt>
      <trkpt lat="51.925670" lon="4.810862">
        <ele>1.201860</ele>
        <time>2026-03-03T17:14:53.239Z</time>
      </trkpt>
      <trkpt lat="51.925841" lon="4.811183">
        <ele>1.099037</ele>
        <time>2026-03-03T17:14:56.636Z</time>
      </trkpt>
      <trkpt lat="51.926236" lon="4.811717">
        <ele>0.950231</ele>
        <time>2026-03-03T17:15:03.690Z</time>
      </trkpt>
      <trkpt lat="51.926550" lon="4.812072">
        <ele>0.839471</ele>
        <time>2026-03-03T17:15:09.091Z</time>
      </trkpt>
      <trkpt lat="51.926699" lon="4.812230">
        <ele>0.787957</ele>
        <time>2026-03-03T17:15:11.602Z</time>
      </trkpt>
      <trkpt lat="51.926857" lon="4.812398">
        <ele>0.733287</ele>
        <time>2026-03-03T17:15:14.310Z</time>
      </trkpt>
      <trkpt lat="51.927506" lon="4.812994">
        <ele>0.672271</ele>
        <time>2026-03-03T17:15:25.100Z</time>
      </trkpt>
      <trkpt lat="51.927793" lon="4.813189">
        <ele>0.699032</ele>
        <time>2026-03-03T17:15:29.468Z</time>
      </trkpt>
      <trkpt lat="51.927909" lon="4.813256">
        <ele>0.709622</ele>
        <time>2026-03-03T17:15:31.331Z</time>
      </trkpt>
      <trkpt lat="51.928387" lon="4.813427">
        <ele>0.751718</ele>
        <time>2026-03-03T17:15:39.007Z</time>
      </trkpt>
      <trkpt lat="51.928642" lon="4.813430">
        <ele>0.773648</ele>
        <time>2026-03-03T17:15:43.032Z</time>
      </trkpt>
      <trkpt lat="51.928822" lon="4.813364">
        <ele>0.789519</ele>
        <time>2026-03-03T17:15:45.980Z</time>
      </trkpt>
      <trkpt lat="51.929158" lon="4.813118">
        <ele>0.912371</ele>
        <time>2026-03-03T17:15:51.945Z</time>
      </trkpt>
      <trkpt lat="51.929439" lon="4.812938">
        <ele>1.017996</ele>
        <time>2026-03-03T17:15:57.008Z</time>
      </trkpt>
      <trkpt lat="51.929568" lon="4.812908">
        <ele>1.063557</ele>
        <time>2026-03-03T17:15:59.222Z</time>
      </trkpt>
      <trkpt lat="51.929682" lon="4.812928">
        <ele>1.103645</ele>
        <time>2026-03-03T17:16:01.135Z</time>
      </trkpt>
      <trkpt lat="51.929780" lon="4.813000">
        <ele>1.141258</ele>
        <time>2026-03-03T17:16:02.977Z</time>
      </trkpt>
      <trkpt lat="51.929855" lon="4.813105">
        <ele>1.175898</ele>
        <time>2026-03-03T17:16:04.698Z</time>
      </trkpt>
      <trkpt lat="51.930094" lon="4.813740">
        <ele>1.336274</ele>
        <time>2026-03-03T17:16:12.114Z</time>
      </trkpt>
      <trkpt lat="51.930202" lon="4.813901">
        <ele>1.387560</ele>
        <time>2026-03-03T17:16:14.386Z</time>
      </trkpt>
      <trkpt lat="51.930381" lon="4.814079">
        <ele>1.413678</ele>
        <time>2026-03-03T17:16:17.664Z</time>
      </trkpt>
      <trkpt lat="51.930525" lon="4.814156">
        <ele>1.405039</ele>
        <time>2026-03-03T17:16:20.031Z</time>
      </trkpt>
      <trkpt lat="51.930716" lon="4.814176">
        <ele>1.394134</ele>
        <time>2026-03-03T17:16:22.920Z</time>
      </trkpt>
      <trkpt lat="51.931517" lon="4.814157">
        <ele>1.348492</ele>
        <time>2026-03-03T17:16:34.380Z</time>
      </trkpt>
      <trkpt lat="51.931760" lon="4.814204">
        <ele>1.334549</ele>
        <time>2026-03-03T17:16:37.859Z</time>
      </trkpt>
      <trkpt lat="51.931954" lon="4.814296">
        <ele>1.323033</ele>
        <time>2026-03-03T17:16:40.676Z</time>
      </trkpt>
      <trkpt lat="51.932187" lon="4.814498">
        <ele>1.326707</ele>
        <time>2026-03-03T17:16:44.415Z</time>
      </trkpt>
      <trkpt lat="51.932520" lon="4.814886">
        <ele>1.347777</ele>
        <time>2026-03-03T17:16:50.304Z</time>
      </trkpt>
      <trkpt lat="51.933345" lon="4.815582">
        <ele>1.395563</ele>
        <time>2026-03-03T17:17:04.432Z</time>
      </trkpt>
      <trkpt lat="51.933422" lon="4.815718">
        <ele>1.401413</ele>
        <time>2026-03-03T17:17:06.256Z</time>
      </trkpt>
      <trkpt lat="51.933524" lon="4.815995">
        <ele>1.413377</ele>
        <time>2026-03-03T17:17:09.469Z</time>
      </trkpt>
      <trkpt lat="51.933735" lon="4.816555">
        <ele>1.460343</ele>
        <time>2026-03-03T17:17:15.932Z</time>
      </trkpt>
      <trkpt lat="51.933846" lon="4.816745">
        <ele>1.479075</ele>
        <time>2026-03-03T17:17:18.386Z</time>
      </trkpt>
      <trkpt lat="51.934210" lon="4.817099">
        <ele>1.528337</ele>
        <time>2026-03-03T17:17:24.860Z</time>
      </trkpt>
      <trkpt lat="51.934280" lon="4.817192">
        <ele>1.538840</ele>
        <time>2026-03-03T17:17:26.283Z</time>
      </trkpt>
      <trkpt lat="51.934392" lon="4.817448">
        <ele>1.561303</ele>
        <time>2026-03-03T17:17:29.322Z</time>
      </trkpt>
      <trkpt lat="51.934525" lon="4.817948">
        <ele>1.600273</ele>
        <time>2026-03-03T17:17:34.332Z</time>
      </trkpt>
      <trkpt lat="51.934622" lon="4.818472">
        <ele>1.585405</ele>
        <time>2026-03-03T17:17:39.219Z</time>
      </trkpt>
      <trkpt lat="51.934691" lon="4.818982">
        <ele>1.523868</ele>
        <time>2026-03-03T17:17:43.681Z</time>
      </trkpt>
      <trkpt lat="51.934714" lon="4.819467">
        <ele>1.466538</ele>
        <time>2026-03-03T17:17:47.825Z</time>
      </trkpt>
      <trkpt lat="51.934717" lon="4.819578">
        <ele>1.453444</ele>
        <time>2026-03-03T17:17:48.798Z</time>
      </trkpt>
      <trkpt lat="51.934721" lon="4.819696">
        <ele>1.439515</ele>
        <time>2026-03-03T17:17:49.845Z</time>
      </trkpt>
      <trkpt lat="51.934727" lon="4.819930">
        <ele>1.411913</ele>
        <time>2026-03-03T17:17:51.972Z</time>
      </trkpt>
      <trkpt lat="51.934749" lon="4.820359">
        <ele>1.361178</ele>
        <time>2026-03-03T17:17:55.930Z</time>
      </trkpt>
      <trkpt lat="51.934801" lon="4.820707">
        <ele>1.318976</ele>
        <time>2026-03-03T17:17:59.151Z</time>
      </trkpt>
      <trkpt lat="51.934911" lon="4.821378">
        <ele>1.190065</ele>
        <time>2026-03-03T17:18:05.098Z</time>
      </trkpt>
      <trkpt lat="51.934904" lon="4.821861">
        <ele>1.062675</ele>
        <time>2026-03-03T17:18:09.002Z</time>
      </trkpt>
      <trkpt lat="51.934846" lon="4.822418">
        <ele>0.913728</ele>
        <time>2026-03-03T17:18:13.577Z</time>
      </trkpt>
      <trkpt lat="51.934813" lon="4.822871">
        <ele>0.793453</ele>
        <time>2026-03-03T17:18:17.309Z</time>
      </trkpt>
      <trkpt lat="51.934821" lon="4.823484">
        <ele>0.631784</ele>
        <time>2026-03-03T17:18:22.328Z</time>
      </trkpt>
      <trkpt lat="51.934870" lon="4.823823">
        <ele>0.539975</ele>
        <time>2026-03-03T17:18:25.184Z</time>
      </trkpt>
      <trkpt lat="51.934932" lon="4.824036">
        <ele>0.495262</ele>
        <time>2026-03-03T17:18:27.103Z</time>
      </trkpt>
      <trkpt lat="51.935006" lon="4.824183">
        <ele>0.476163</ele>
        <time>2026-03-03T17:18:28.645Z</time>
      </trkpt>
      <trkpt lat="51.935150" lon="4.824378">
        <ele>0.445541</ele>
        <time>2026-03-03T17:18:31.142Z</time>
      </trkpt>
      <trkpt lat="51.935688" lon="4.824904">
        <ele>0.343001</ele>
        <time>2026-03-03T17:18:40.011Z</time>
      </trkpt>
      <trkpt lat="51.936088" lon="4.825242">
        <ele>0.269378</ele>
        <time>2026-03-03T17:18:46.668Z</time>
      </trkpt>
      <trkpt lat="51.936851" lon="4.825842">
        <ele>0.318142</ele>
        <time>2026-03-03T17:18:59.473Z</time>
      </trkpt>
      <trkpt lat="51.937552" lon="4.826251">
        <ele>0.476039</ele>
        <time>2026-03-03T17:19:11.186Z</time>
      </trkpt>
      <trkpt lat="51.938582" lon="4.826840">
        <ele>0.705249</ele>
        <time>2026-03-03T17:19:28.837Z</time>
      </trkpt>
      <trkpt lat="51.938693" lon="4.826880">
        <ele>0.728869</ele>
        <time>2026-03-03T17:19:30.632Z</time>
      </trkpt>
      <trkpt lat="51.938839" lon="4.826917">
        <ele>0.759566</ele>
        <time>2026-03-03T17:19:32.927Z</time>
      </trkpt>
      <trkpt lat="51.939867" lon="4.826971">
        <ele>0.970833</ele>
        <time>2026-03-03T17:19:49.015Z</time>
      </trkpt>
      <trkpt lat="51.940080" lon="4.827013">
        <ele>0.997551</ele>
        <time>2026-03-03T17:19:52.251Z</time>
      </trkpt>
      <trkpt lat="51.940309" lon="4.827138">
        <ele>1.027637</ele>
        <time>2026-03-03T17:19:55.845Z</time>
      </trkpt>
      <trkpt lat="51.940599" lon="4.827400">
        <ele>1.068970</ele>
        <time>2026-03-03T17:20:00.847Z</time>
      </trkpt>
      <trkpt lat="51.940812" lon="4.827548">
        <ele>1.097823</ele>
        <time>2026-03-03T17:20:04.379Z</time>
      </trkpt>
      <trkpt lat="51.941285" lon="4.827723">
        <ele>1.158232</ele>
        <time>2026-03-03T17:20:11.930Z</time>
      </trkpt>
      <trkpt lat="51.941471" lon="4.827841">
        <ele>1.183101</ele>
        <time>2026-03-03T17:20:15.035Z</time>
      </trkpt>
      <trkpt lat="51.941625" lon="4.828002">
        <ele>1.191348</ele>
        <time>2026-03-03T17:20:17.820Z</time>
      </trkpt>
      <trkpt lat="51.941750" lon="4.828195">
        <ele>1.191537</ele>
        <time>2026-03-03T17:20:20.408Z</time>
      </trkpt>
      <trkpt lat="51.941891" lon="4.828538">
        <ele>1.191816</ele>
        <time>2026-03-03T17:20:24.196Z</time>
      </trkpt>
      <trkpt lat="51.941954" lon="4.828916">
        <ele>1.192080</ele>
        <time>2026-03-03T17:20:27.818Z</time>
      </trkpt>
      <trkpt lat="51.941935" lon="4.829167">
        <ele>1.192251</ele>
        <time>2026-03-03T17:20:30.151Z</time>
      </trkpt>
      <trkpt lat="51.941570" lon="4.830438">
        <ele>1.192427</ele>
        <time>2026-03-03T17:20:42.861Z</time>
      </trkpt>
      <trkpt lat="51.941491" lon="4.830740">
        <ele>1.172475</ele>
        <time>2026-03-03T17:20:45.707Z</time>
      </trkpt>
      <trkpt lat="51.941454" lon="4.831163">
        <ele>1.146493</ele>
        <time>2026-03-03T17:20:49.388Z</time>
      </trkpt>
      <trkpt lat="51.941489" lon="4.831434">
        <ele>1.129654</ele>
        <time>2026-03-03T17:20:51.799Z</time>
      </trkpt>
      <trkpt lat="51.941555" lon="4.831655">
        <ele>1.114720</ele>
        <time>2026-03-03T17:20:53.950Z</time>
      </trkpt>
      <trkpt lat="51.941654" lon="4.831806">
        <ele>1.101314</ele>
        <time>2026-03-03T17:20:55.883Z</time>
      </trkpt>
      <trkpt lat="51.941741" lon="4.831834">
        <ele>1.092564</ele>
        <time>2026-03-03T17:20:57.175Z</time>
      </trkpt>
      <trkpt lat="51.941693" lon="4.832168">
        <ele>1.071708</ele>
        <time>2026-03-03T17:21:00.210Z</time>
      </trkpt>
      <trkpt lat="51.941783" lon="4.832741">
        <ele>1.035748</ele>
        <time>2026-03-03T17:21:05.565Z</time>
      </trkpt>
      <trkpt lat="51.941905" lon="4.833944">
        <ele>1.119343</ele>
        <time>2026-03-03T17:21:16.844Z</time>
      </trkpt>
      <trkpt lat="51.942098" lon="4.834966">
        <ele>1.243701</ele>
        <time>2026-03-03T17:21:27.497Z</time>
      </trkpt>
      <trkpt lat="51.942281" lon="4.835774">
        <ele>1.343850</ele>
        <time>2026-03-03T17:21:35.752Z</time>
      </trkpt>
      <trkpt lat="51.942349" lon="4.836363">
        <ele>1.272550</ele>
        <time>2026-03-03T17:21:41.355Z</time>
      </trkpt>
      <trkpt lat="51.942368" lon="4.836620">
        <ele>1.229895</ele>
        <time>2026-03-03T17:21:43.769Z</time>
      </trkpt>
      <trkpt lat="51.942381" lon="4.837203">
        <ele>1.133759</ele>
        <time>2026-03-03T17:21:48.928Z</time>
      </trkpt>
      <trkpt lat="51.942331" lon="4.838005">
        <ele>1.000922</ele>
        <time>2026-03-03T17:21:55.600Z</time>
      </trkpt>
      <trkpt lat="51.942295" lon="4.838385">
        <ele>0.937566</ele>
        <time>2026-03-03T17:21:58.696Z</time>
      </trkpt>
      <trkpt lat="51.942234" lon="4.838871">
        <ele>0.852778</ele>
        <time>2026-03-03T17:22:02.653Z</time>
      </trkpt>
      <trkpt lat="51.942186" lon="4.839307">
        <ele>0.767775</ele>
        <time>2026-03-03T17:22:06.250Z</time>
      </trkpt>
      <trkpt lat="51.942166" lon="4.839599">
        <ele>0.711388</ele>
        <time>2026-03-03T17:22:08.666Z</time>
      </trkpt>
      <trkpt lat="51.942126" lon="4.840609">
        <ele>0.517143</ele>
        <time>2026-03-03T17:22:17.162Z</time>
      </trkpt>
      <trkpt lat="51.942015" lon="4.841970">
        <ele>0.313742</ele>
        <time>2026-03-03T17:22:29.317Z</time>
      </trkpt>
      <trkpt lat="51.941982" lon="4.842595">
        <ele>0.312418</ele>
        <time>2026-03-03T17:22:35.004Z</time>
      </trkpt>
      <trkpt lat="51.941996" lon="4.843121">
        <ele>0.311307</ele>
        <time>2026-03-03T17:22:39.809Z</time>
      </trkpt>
      <trkpt lat="51.942049" lon="4.843759">
        <ele>0.309949</ele>
        <time>2026-03-03T17:22:45.741Z</time>
      </trkpt>
      <trkpt lat="51.942114" lon="4.844234">
        <ele>0.308923</ele>
        <time>2026-03-03T17:22:50.223Z</time>
      </trkpt>
      <trkpt lat="51.942167" lon="4.844539">
        <ele>0.308254</ele>
        <time>2026-03-03T17:22:53.202Z</time>
      </trkpt>
      <trkpt lat="51.942241" lon="4.844967">
        <ele>0.365996</ele>
        <time>2026-03-03T17:22:57.454Z</time>
      </trkpt>
      <trkpt lat="51.942305" lon="4.845272">
        <ele>0.407863</ele>
        <time>2026-03-03T17:23:00.580Z</time>
      </trkpt>
      <trkpt lat="51.942486" lon="4.846057">
        <ele>0.516773</ele>
        <time>2026-03-03T17:23:08.634Z</time>
      </trkpt>
      <trkpt lat="51.942702" lon="4.846855">
        <ele>0.630025</ele>
        <time>2026-03-03T17:23:16.919Z</time>
      </trkpt>
      <trkpt lat="51.942746" lon="4.847035">
        <ele>0.655187</ele>
        <time>2026-03-03T17:23:18.816Z</time>
      </trkpt>
      <trkpt lat="51.942805" lon="4.847257">
        <ele>0.686602</ele>
        <time>2026-03-03T17:23:21.208Z</time>
      </trkpt>
      <trkpt lat="51.942925" lon="4.847807">
        <ele>0.973000</ele>
        <time>2026-03-03T17:23:27.052Z</time>
      </trkpt>
      <trkpt lat="51.943002" lon="4.848389">
        <ele>1.267489</ele>
        <time>2026-03-03T17:23:32.992Z</time>
      </trkpt>
      <trkpt lat="51.943077" lon="4.849340">
        <ele>1.741810</ele>
        <time>2026-03-03T17:23:43.683Z</time>
      </trkpt>
      <trkpt lat="51.943106" lon="4.849538">
        <ele>1.842493</ele>
        <time>2026-03-03T17:23:46.190Z</time>
      </trkpt>
      <trkpt lat="51.943137" lon="4.849701">
        <ele>1.926884</ele>
        <time>2026-03-03T17:23:48.936Z</time>
      </trkpt>
      <trkpt lat="51.943177" lon="4.849872">
        <ele>2.017368</ele>
        <time>2026-03-03T17:23:51.910Z</time>
      </trkpt>
      <trkpt lat="51.943258" lon="4.850132">
        <ele>2.161144</ele>
        <time>2026-03-03T17:23:56.569Z</time>
      </trkpt>
      <trkpt lat="51.943405" lon="4.850557">
        <ele>2.399510</ele>
        <time>2026-03-03T17:24:04.437Z</time>
      </trkpt>
      <trkpt lat="51.943737" lon="4.851171">
        <ele>2.798997</ele>
        <time>2026-03-03T17:24:17.804Z</time>
      </trkpt>
      <trkpt lat="51.944017" lon="4.851682">
        <ele>3.133407</ele>
        <time>2026-03-03T17:24:28.287Z</time>
      </trkpt>
      <trkpt lat="51.944034" lon="4.851760">
        <ele>3.173873</ele>
        <time>2026-03-03T17:24:29.460Z</time>
      </trkpt>
      <trkpt lat="51.944039" lon="4.851821">
        <ele>3.203972</ele>
        <time>2026-03-03T17:24:30.331Z</time>
      </trkpt>
      <trkpt lat="51.944031" lon="4.851914">
        <ele>3.249901</ele>
        <time>2026-03-03T17:24:31.624Z</time>
      </trkpt>
      <trkpt lat="51.944026" lon="4.852004">
        <ele>3.294100</ele>
        <time>2026-03-03T17:24:32.828Z</time>
      </trkpt>
      <trkpt lat="51.944056" lon="4.852358">
        <ele>3.468876</ele>
        <time>2026-03-03T17:24:37.206Z</time>
      </trkpt>
      <trkpt lat="51.943704" lon="4.852509">
        <ele>3.334029</ele>
        <time>2026-03-03T17:24:43.527Z</time>
      </trkpt>
      <trkpt lat="51.943635" lon="4.852559">
        <ele>3.266759</ele>
        <time>2026-03-03T17:24:44.812Z</time>
      </trkpt>
      <trkpt lat="51.943563" lon="4.852615">
        <ele>3.195683</ele>
        <time>2026-03-03T17:24:46.142Z</time>
      </trkpt>
      <trkpt lat="51.943419" lon="4.852726">
        <ele>3.053766</ele>
        <time>2026-03-03T17:24:48.806Z</time>
      </trkpt>
      <trkpt lat="51.943233" lon="4.852856">
        <ele>2.873484</ele>
        <time>2026-03-03T17:24:52.175Z</time>
      </trkpt>
      <trkpt lat="51.943156" lon="4.852891">
        <ele>2.802302</ele>
        <time>2026-03-03T17:24:53.474Z</time>
      </trkpt>
      <trkpt lat="51.943067" lon="4.852893">
        <ele>2.723071</ele>
        <time>2026-03-03T17:24:54.936Z</time>
      </trkpt>
      <trkpt lat="51.943027" lon="4.852889">
        <ele>2.687398</ele>
        <time>2026-03-03T17:24:55.579Z</time>
      </trkpt>
      <trkpt lat="51.942828" lon="4.852899">
        <ele>2.510172</ele>
        <time>2026-03-03T17:24:58.851Z</time>
      </trkpt>
      <trkpt lat="51.942836" lon="4.853247">
        <ele>2.319081</ele>
        <time>2026-03-03T17:25:02.540Z</time>
      </trkpt>
      <trkpt lat="51.942851" lon="4.853909">
        <ele>1.957459</ele>
        <time>2026-03-03T17:25:09.966Z</time>
      </trkpt>
      <trkpt lat="51.942856" lon="4.854208">
        <ele>2.009741</ele>
        <time>2026-03-03T17:25:13.448Z</time>
      </trkpt>
      <trkpt lat="51.942871" lon="4.854426">
        <ele>2.048082</ele>
        <time>2026-03-03T17:25:15.396Z</time>
      </trkpt>
      <trkpt lat="51.942966" lon="4.854623">
        <ele>2.091801</ele>
        <time>2026-03-03T17:25:17.843Z</time>
      </trkpt>
      <trkpt lat="51.942997" lon="4.854763">
        <ele>2.117802</ele>
        <time>2026-03-03T17:25:19.444Z</time>
      </trkpt>
      <trkpt lat="51.942918" lon="4.855503">
        <ele>2.249073</ele>
        <time>2026-03-03T17:25:27.840Z</time>
      </trkpt>
      <trkpt lat="51.942840" lon="4.856346">
        <ele>2.398072</ele>
        <time>2026-03-03T17:25:36.755Z</time>
      </trkpt>
      <trkpt lat="51.942858" lon="4.856789">
        <ele>2.476994</ele>
        <time>2026-03-03T17:25:41.118Z</time>
      </trkpt>
      <trkpt lat="51.942909" lon="4.857346">
        <ele>2.590420</ele>
        <time>2026-03-03T17:25:46.646Z</time>
      </trkpt>
      <trkpt lat="51.942924" lon="4.857443">
        <ele>2.610564</ele>
        <time>2026-03-03T17:25:47.573Z</time>
      </trkpt>
      <trkpt lat="51.943022" lon="4.857898">
        <ele>2.707646</ele>
        <time>2026-03-03T17:25:52.428Z</time>
      </trkpt>
      <trkpt lat="51.943272" lon="4.858588">
        <ele>2.868858</ele>
        <time>2026-03-03T17:26:00.617Z</time>
      </trkpt>
      <trkpt lat="51.943363" lon="4.858774">
        <ele>2.916689</ele>
        <time>2026-03-03T17:26:02.930Z</time>
      </trkpt>
      <trkpt lat="51.943462" lon="4.858974">
        <ele>2.968354</ele>
        <time>2026-03-03T17:26:05.412Z</time>
      </trkpt>
      <trkpt lat="51.943784" lon="4.859426">
        <ele>2.970797</ele>
        <time>2026-03-03T17:26:12.296Z</time>
      </trkpt>
      <trkpt lat="51.943930" lon="4.859577">
        <ele>2.880828</ele>
        <time>2026-03-03T17:26:14.979Z</time>
      </trkpt>
      <trkpt lat="51.943963" lon="4.859618">
        <ele>2.859230</ele>
        <time>2026-03-03T17:26:15.601Z</time>
      </trkpt>
      <trkpt lat="51.943905" lon="4.859868">
        <ele>2.773671</ele>
        <time>2026-03-03T17:26:18.028Z</time>
      </trkpt>
      <trkpt lat="51.943913" lon="4.860276">
        <ele>2.642922</ele>
        <time>2026-03-03T17:26:22.771Z</time>
      </trkpt>
      <trkpt lat="51.943888" lon="4.861519">
        <ele>2.244574</ele>
        <time>2026-03-03T17:26:36.099Z</time>
      </trkpt>
      <trkpt lat="51.943916" lon="4.861510">
        <ele>2.229742</ele>
        <time>2026-03-03T17:26:36.452Z</time>
      </trkpt>
      <trkpt lat="51.944424" lon="4.861342">
        <ele>1.892135</ele>
        <time>2026-03-03T17:26:42.894Z</time>
      </trkpt>
      <trkpt lat="51.944544" lon="4.861254">
        <ele>1.794492</ele>
        <time>2026-03-03T17:26:44.544Z</time>
      </trkpt>
      <trkpt lat="51.944675" lon="4.861077">
        <ele>1.668085</ele>
        <time>2026-03-03T17:26:46.683Z</time>
      </trkpt>
      <trkpt lat="51.944980" lon="4.860479">
        <ele>1.313344</ele>
        <time>2026-03-03T17:26:52.645Z</time>
      </trkpt>
      <trkpt lat="51.945098" lon="4.860148">
        <ele>1.138585</ele>
        <time>2026-03-03T17:26:55.672Z</time>
      </trkpt>
      <trkpt lat="51.945163" lon="4.859870">
        <ele>1.002693</ele>
        <time>2026-03-03T17:26:58.087Z</time>
      </trkpt>
      <trkpt lat="51.945190" lon="4.859746">
        <ele>0.942588</ele>
        <time>2026-03-03T17:26:59.181Z</time>
      </trkpt>
      <trkpt lat="51.945414" lon="4.859744">
        <ele>0.779605</ele>
        <time>2026-03-03T17:27:02.194Z</time>
      </trkpt>
      <trkpt lat="51.945809" lon="4.859674">
        <ele>0.576273</ele>
        <time>2026-03-03T17:27:07.376Z</time>
      </trkpt>
      <trkpt lat="51.946430" lon="4.859506">
        <ele>0.254106</ele>
        <time>2026-03-03T17:27:15.434Z</time>
      </trkpt>
      <trkpt lat="51.946985" lon="4.859339">
        <ele>-0.034743</ele>
        <time>2026-03-03T17:27:23.158Z</time>
      </trkpt>
      <trkpt lat="51.947052" lon="4.859344">
        <ele>-0.069065</ele>
        <time>2026-03-03T17:27:24.082Z</time>
      </trkpt>
      <trkpt lat="51.947187" lon="4.859126">
        <ele>-0.145362</ele>
        <time>2026-03-03T17:27:26.712Z</time>
      </trkpt>
      <trkpt lat="51.947272" lon="4.859119">
        <ele>-0.160674</ele>
        <time>2026-03-03T17:27:27.876Z</time>
      </trkpt>
      <trkpt lat="51.947321" lon="4.859119">
        <ele>-0.169489</ele>
        <time>2026-03-03T17:27:28.547Z</time>
      </trkpt>
      <trkpt lat="51.947416" lon="4.859155">
        <ele>-0.187040</ele>
        <time>2026-03-03T17:27:29.898Z</time>
      </trkpt>
      <trkpt lat="51.947496" lon="4.859244">
        <ele>-0.204490</ele>
        <time>2026-03-03T17:27:31.244Z</time>
      </trkpt>
      <trkpt lat="51.947502" lon="4.859244">
        <ele>-0.205570</ele>
        <time>2026-03-03T17:27:31.325Z</time>
      </trkpt>
      <trkpt lat="51.947825" lon="4.859106">
        <ele>-0.265659</ele>
        <time>2026-03-03T17:27:35.986Z</time>
      </trkpt>
      <trkpt lat="51.948099" lon="4.858989">
        <ele>-0.316631</ele>
        <time>2026-03-03T17:27:40.051Z</time>
      </trkpt>
      <trkpt lat="51.948216" lon="4.858962">
        <ele>-0.337892</ele>
        <time>2026-03-03T17:27:41.729Z</time>
      </trkpt>
      <trkpt lat="51.948645" lon="4.858968">
        <ele>-0.415073</ele>
        <time>2026-03-03T17:27:47.885Z</time>
      </trkpt>
      <trkpt lat="51.948655" lon="4.859104">
        <ele>-0.430260</ele>
        <time>2026-03-03T17:27:49.132Z</time>
      </trkpt>
      <trkpt lat="51.948687" lon="4.859193">
        <ele>-0.441685</ele>
        <time>2026-03-03T17:27:50.050Z</time>
      </trkpt>
      <trkpt lat="51.948730" lon="4.859276">
        <ele>-0.453708</ele>
        <time>2026-03-03T17:27:51.018Z</time>
      </trkpt>
      <trkpt lat="51.948774" lon="4.859349">
        <ele>-0.451929</ele>
        <time>2026-03-03T17:27:51.949Z</time>
      </trkpt>
      <trkpt lat="51.948920" lon="4.859251">
        <ele>-0.431142</ele>
        <time>2026-03-03T17:27:55.140Z</time>
      </trkpt>
      <trkpt lat="51.949138" lon="4.859186">
        <ele>-0.401982</ele>
        <time>2026-03-03T17:27:59.675Z</time>
      </trkpt>
      <trkpt lat="51.949515" lon="4.858992">
        <ele>-0.349948</ele>
        <time>2026-03-03T17:28:08.035Z</time>
      </trkpt>
      <trkpt lat="51.950029" lon="4.858645">
        <ele>-0.276706</ele>
        <time>2026-03-03T17:28:19.924Z</time>
      </trkpt>
      <trkpt lat="51.950174" lon="4.858513">
        <ele>-0.254832</ele>
        <time>2026-03-03T17:28:23.447Z</time>
      </trkpt>
      <trkpt lat="51.950309" lon="4.858835">
        <ele>-0.223254</ele>
        <time>2026-03-03T17:28:27.160Z</time>
      </trkpt>
      <trkpt lat="51.950329" lon="4.858815">
        <ele>-0.221848</ele>
        <time>2026-03-03T17:28:27.625Z</time>
      </trkpt>
      <trkpt lat="51.950409" lon="4.858740">
        <ele>-0.240291</ele>
        <time>2026-03-03T17:28:29.498Z</time>
      </trkpt>
      <trkpt lat="51.950429" lon="4.858693">
        <ele>-0.247317</ele>
        <time>2026-03-03T17:28:30.205Z</time>
      </trkpt>
      <trkpt lat="51.950734" lon="4.859490">
        <ele>-0.362734</ele>
        <time>2026-03-03T17:28:38.311Z</time>
      </trkpt>
      <trkpt lat="51.951140" lon="4.860990">
        <ele>-0.564286</ele>
        <time>2026-03-03T17:28:52.057Z</time>
      </trkpt>
      <trkpt lat="51.951522" lon="4.861835">
        <ele>-0.539130</ele>
        <time>2026-03-03T17:29:01.392Z</time>
      </trkpt>
      <trkpt lat="51.951693" lon="4.862102">
        <ele>-0.522108</ele>
        <time>2026-03-03T17:29:05.033Z</time>
      </trkpt>
      <trkpt lat="51.952243" lon="4.862519">
        <ele>-0.478563</ele>
        <time>2026-03-03T17:29:14.573Z</time>
      </trkpt>
      <trkpt lat="51.952602" lon="4.862943">
        <ele>-0.455810</ele>
        <time>2026-03-03T17:29:21.567Z</time>
      </trkpt>
      <trkpt lat="51.952777" lon="4.863409">
        <ele>-0.484759</ele>
        <time>2026-03-03T17:29:26.783Z</time>
      </trkpt>
      <trkpt lat="51.952860" lon="4.863637">
        <ele>-0.498807</ele>
        <time>2026-03-03T17:29:29.246Z</time>
      </trkpt>
      <trkpt lat="51.953032" lon="4.864121">
        <ele>-0.528446</ele>
        <time>2026-03-03T17:29:34.277Z</time>
      </trkpt>
      <trkpt lat="51.953156" lon="4.864471">
        <ele>-0.549862</ele>
        <time>2026-03-03T17:29:37.825Z</time>
      </trkpt>
      <trkpt lat="51.953208" lon="4.864661">
        <ele>-0.560891</ele>
        <time>2026-03-03T17:29:39.608Z</time>
      </trkpt>
      <trkpt lat="51.953289" lon="4.864998">
        <ele>-0.580080</ele>
        <time>2026-03-03T17:29:42.707Z</time>
      </trkpt>
      <trkpt lat="51.953451" lon="4.865866">
        <ele>-0.646900</ele>
        <time>2026-03-03T17:29:50.446Z</time>
      </trkpt>
      <trkpt lat="51.953559" lon="4.866273">
        <ele>-0.689934</ele>
        <time>2026-03-03T17:29:54.123Z</time>
      </trkpt>
      <trkpt lat="51.953676" lon="4.866458">
        <ele>-0.715677</ele>
        <time>2026-03-03T17:29:56.345Z</time>
      </trkpt>
      <trkpt lat="51.953980" lon="4.866779">
        <ele>-0.772830</ele>
        <time>2026-03-03T17:30:01.390Z</time>
      </trkpt>
      <trkpt lat="51.954233" lon="4.867228">
        <ele>-0.831912</ele>
        <time>2026-03-03T17:30:06.786Z</time>
      </trkpt>
      <trkpt lat="51.954448" lon="4.867941">
        <ele>-0.872421</ele>
        <time>2026-03-03T17:30:14.246Z</time>
      </trkpt>
      <trkpt lat="51.954623" lon="4.868753">
        <ele>-0.802451</ele>
        <time>2026-03-03T17:30:22.662Z</time>
      </trkpt>
      <trkpt lat="51.954701" lon="4.869306">
        <ele>-0.756307</ele>
        <time>2026-03-03T17:30:28.109Z</time>
      </trkpt>
      <trkpt lat="51.954718" lon="4.869917">
        <ele>-0.706557</ele>
        <time>2026-03-03T17:30:33.814Z</time>
      </trkpt>
      <trkpt lat="51.954777" lon="4.870198">
        <ele>-0.682411</ele>
        <time>2026-03-03T17:30:36.587Z</time>
      </trkpt>
      <trkpt lat="51.954952" lon="4.870486">
        <ele>-0.651069</ele>
        <time>2026-03-03T17:30:40.377Z</time>
      </trkpt>
      <trkpt lat="51.955352" lon="4.871068">
        <ele>-0.630624</ele>
        <time>2026-03-03T17:30:48.320Z</time>
      </trkpt>
      <trkpt lat="51.955389" lon="4.871121">
        <ele>-0.628746</ele>
        <time>2026-03-03T17:30:49.045Z</time>
      </trkpt>
      <trkpt lat="51.955663" lon="4.871496">
        <ele>-0.615105</ele>
        <time>2026-03-03T17:30:54.230Z</time>
      </trkpt>
      <trkpt lat="51.955879" lon="4.871832">
        <ele>-0.603718</ele>
        <time>2026-03-03T17:30:58.752Z</time>
      </trkpt>
      <trkpt lat="51.956105" lon="4.872272">
        <ele>-0.590285</ele>
        <time>2026-03-03T17:31:04.222Z</time>
      </trkpt>
      <trkpt lat="51.956228" lon="4.872682">
        <ele>-0.580582</ele>
        <time>2026-03-03T17:31:08.602Z</time>
      </trkpt>
      <trkpt lat="51.956326" lon="4.873222">
        <ele>-0.570956</ele>
        <time>2026-03-03T17:31:13.813Z</time>
      </trkpt>
      <trkpt lat="51.956709" lon="4.874629">
        <ele>-0.544653</ele>
        <time>2026-03-03T17:31:27.771Z</time>
      </trkpt>
      <trkpt lat="51.956937" lon="4.875486">
        <ele>-0.495630</ele>
        <time>2026-03-03T17:31:36.274Z</time>
      </trkpt>
      <trkpt lat="51.957017" lon="4.875713">
        <ele>-0.459374</ele>
        <time>2026-03-03T17:31:38.741Z</time>
      </trkpt>
      <trkpt lat="51.957706" lon="4.877231">
        <ele>-0.197986</ele>
        <time>2026-03-03T17:31:57.351Z</time>
      </trkpt>
      <trkpt lat="51.957725" lon="4.877274">
        <ele>-0.190650</ele>
        <time>2026-03-03T17:31:57.879Z</time>
      </trkpt>
      <trkpt lat="51.957940" lon="4.877717">
        <ele>-0.122740</ele>
        <time>2026-03-03T17:32:03.433Z</time>
      </trkpt>
      <trkpt lat="51.958135" lon="4.878015">
        <ele>-0.100661</ele>
        <time>2026-03-03T17:32:07.640Z</time>
      </trkpt>
      <trkpt lat="51.958272" lon="4.878104">
        <ele>-0.088497</ele>
        <time>2026-03-03T17:32:09.929Z</time>
      </trkpt>
      <trkpt lat="51.958447" lon="4.878134">
        <ele>-0.073991</ele>
        <time>2026-03-03T17:32:12.635Z</time>
      </trkpt>
      <trkpt lat="51.959144" lon="4.878046">
        <ele>-0.016364</ele>
        <time>2026-03-03T17:32:23.109Z</time>
      </trkpt>
      <trkpt lat="51.959626" lon="4.878108">
        <ele>0.013190</ele>
        <time>2026-03-03T17:32:30.107Z</time>
      </trkpt>
      <trkpt lat="51.959857" lon="4.878242">
        <ele>-0.019878</ele>
        <time>2026-03-03T17:32:33.659Z</time>
      </trkpt>
      <trkpt lat="51.960020" lon="4.878467">
        <ele>-0.048724</ele>
        <time>2026-03-03T17:32:36.750Z</time>
      </trkpt>
      <trkpt lat="51.960240" lon="4.878983">
        <ele>-0.100845</ele>
        <time>2026-03-03T17:32:42.275Z</time>
      </trkpt>
      <trkpt lat="51.960623" lon="4.879738">
        <ele>-0.182077</ele>
        <time>2026-03-03T17:32:50.769Z</time>
      </trkpt>
      <trkpt lat="51.961178" lon="4.881069">
        <ele>-0.267058</ele>
        <time>2026-03-03T17:33:05.024Z</time>
      </trkpt>
      <trkpt lat="51.961490" lon="4.881767">
        <ele>-0.301199</ele>
        <time>2026-03-03T17:33:12.816Z</time>
      </trkpt>
      <trkpt lat="51.961907" lon="4.882568">
        <ele>-0.346653</ele>
        <time>2026-03-03T17:33:22.476Z</time>
      </trkpt>
      <trkpt lat="51.962142" lon="4.883066">
        <ele>-0.394381</ele>
        <time>2026-03-03T17:33:28.112Z</time>
      </trkpt>
      <trkpt lat="51.962240" lon="4.883354">
        <ele>-0.419414</ele>
        <time>2026-03-03T17:33:31.000Z</time>
      </trkpt>
      <trkpt lat="51.962722" lon="4.885038">
        <ele>-0.560450</ele>
        <time>2026-03-03T17:33:47.263Z</time>
      </trkpt>
      <trkpt lat="51.962976" lon="4.885973">
        <ele>-0.507931</ele>
        <time>2026-03-03T17:33:56.368Z</time>
      </trkpt>
      <trkpt lat="51.963045" lon="4.886340">
        <ele>-0.488210</ele>
        <time>2026-03-03T17:33:59.919Z</time>
      </trkpt>
      <trkpt lat="51.963108" lon="4.887389">
        <ele>-0.434039</ele>
        <time>2026-03-03T17:34:10.112Z</time>
      </trkpt>
      <trkpt lat="51.963138" lon="4.887599">
        <ele>-0.422960</ele>
        <time>2026-03-03T17:34:12.200Z</time>
      </trkpt>
      <trkpt lat="51.963197" lon="4.887890">
        <ele>-0.407104</ele>
        <time>2026-03-03T17:34:15.163Z</time>
      </trkpt>
      <trkpt lat="51.963507" lon="4.889035">
        <ele>-0.340671</ele>
        <time>2026-03-03T17:34:27.399Z</time>
      </trkpt>
      <trkpt lat="51.963608" lon="4.889517">
        <ele>-0.313628</ele>
        <time>2026-03-03T17:34:32.166Z</time>
      </trkpt>
      <trkpt lat="51.963656" lon="4.890334">
        <ele>-0.270033</ele>
        <time>2026-03-03T17:34:39.503Z</time>
      </trkpt>
      <trkpt lat="51.963696" lon="4.890640">
        <ele>-0.256990</ele>
        <time>2026-03-03T17:34:42.255Z</time>
      </trkpt>
      <trkpt lat="51.963752" lon="4.890871">
        <ele>-0.266849</ele>
        <time>2026-03-03T17:34:44.424Z</time>
      </trkpt>
      <trkpt lat="51.963963" lon="4.891637">
        <ele>-0.300173</ele>
        <time>2026-03-03T17:34:51.838Z</time>
      </trkpt>
      <trkpt lat="51.964280" lon="4.892876">
        <ele>-0.353454</ele>
        <time>2026-03-03T17:35:03.842Z</time>
      </trkpt>
      <trkpt lat="51.964343" lon="4.893260">
        <ele>-0.369236</ele>
        <time>2026-03-03T17:35:07.487Z</time>
      </trkpt>
      <trkpt lat="51.964419" lon="4.894003">
        <ele>-0.314479</ele>
        <time>2026-03-03T17:35:14.472Z</time>
      </trkpt>
      <trkpt lat="51.964549" lon="4.894574">
        <ele>-0.264895</ele>
        <time>2026-03-03T17:35:20.239Z</time>
      </trkpt>
      <trkpt lat="51.964741" lon="4.895181">
        <ele>-0.209318</ele>
        <time>2026-03-03T17:35:26.698Z</time>
      </trkpt>
      <trkpt lat="51.964820" lon="4.895485">
        <ele>-0.182444</ele>
        <time>2026-03-03T17:35:29.852Z</time>
      </trkpt>
      <trkpt lat="51.964882" lon="4.895892">
        <ele>-0.148294</ele>
        <time>2026-03-03T17:35:33.907Z</time>
      </trkpt>
      <trkpt lat="51.964900" lon="4.896293">
        <ele>-0.110216</ele>
        <time>2026-03-03T17:35:37.815Z</time>
      </trkpt>
      <trkpt lat="51.964859" lon="4.897574">
        <ele>0.025075</ele>
        <time>2026-03-03T17:35:50.412Z</time>
      </trkpt>
      <trkpt lat="51.964901" lon="4.897675">
        <ele>0.037927</ele>
        <time>2026-03-03T17:35:51.587Z</time>
      </trkpt>
      <trkpt lat="51.965113" lon="4.897977">
        <ele>0.086213</ele>
        <time>2026-03-03T17:35:55.962Z</time>
      </trkpt>
      <trkpt lat="51.965593" lon="4.898464">
        <ele>0.172139</ele>
        <time>2026-03-03T17:36:04.576Z</time>
      </trkpt>
      <trkpt lat="51.965945" lon="4.899019">
        <ele>0.151875</ele>
        <time>2026-03-03T17:36:11.645Z</time>
      </trkpt>
      <trkpt lat="51.966151" lon="4.899322">
        <ele>0.140395</ele>
        <time>2026-03-03T17:36:15.653Z</time>
      </trkpt>
      <trkpt lat="51.966600" lon="4.899965">
        <ele>0.115669</ele>
        <time>2026-03-03T17:36:24.429Z</time>
      </trkpt>
      <trkpt lat="51.966980" lon="4.900653">
        <ele>0.085683</ele>
        <time>2026-03-03T17:36:32.809Z</time>
      </trkpt>
      <trkpt lat="51.967366" lon="4.901636">
        <ele>0.031517</ele>
        <time>2026-03-03T17:36:43.409Z</time>
      </trkpt>
      <trkpt lat="51.967439" lon="4.902246">
        <ele>0.002642</ele>
        <time>2026-03-03T17:36:49.043Z</time>
      </trkpt>
      <trkpt lat="51.967493" lon="4.902540">
        <ele>-0.011613</ele>
        <time>2026-03-03T17:36:51.782Z</time>
      </trkpt>
      <trkpt lat="51.967578" lon="4.902805">
        <ele>-0.025496</ele>
        <time>2026-03-03T17:36:54.402Z</time>
      </trkpt>
      <trkpt lat="51.967976" lon="4.903396">
        <ele>-0.104576</ele>
        <time>2026-03-03T17:37:01.915Z</time>
      </trkpt>
      <trkpt lat="51.968247" lon="4.903781">
        <ele>-0.165903</ele>
        <time>2026-03-03T17:37:06.843Z</time>
      </trkpt>
      <trkpt lat="51.968364" lon="4.904016">
        <ele>-0.197601</ele>
        <time>2026-03-03T17:37:09.430Z</time>
      </trkpt>
      <trkpt lat="51.968499" lon="4.904457">
        <ele>-0.249264</ele>
        <time>2026-03-03T17:37:13.710Z</time>
      </trkpt>
      <trkpt lat="51.968542" lon="4.904682">
        <ele>-0.273978</ele>
        <time>2026-03-03T17:37:15.785Z</time>
      </trkpt>
      <trkpt lat="51.968557" lon="4.905017">
        <ele>-0.309216</ele>
        <time>2026-03-03T17:37:18.789Z</time>
      </trkpt>
      <trkpt lat="51.968545" lon="4.905205">
        <ele>-0.329045</ele>
        <time>2026-03-03T17:37:20.497Z</time>
      </trkpt>
      <trkpt lat="51.968309" lon="4.906328">
        <ele>-0.301519</ele>
        <time>2026-03-03T17:37:31.592Z</time>
      </trkpt>
      <trkpt lat="51.968297" lon="4.906771">
        <ele>-0.284670</ele>
        <time>2026-03-03T17:37:35.771Z</time>
      </trkpt>
      <trkpt lat="51.968401" lon="4.907325">
        <ele>-0.262663</ele>
        <time>2026-03-03T17:37:41.260Z</time>
      </trkpt>
      <trkpt lat="51.968496" lon="4.907677">
        <ele>-0.248061</ele>
        <time>2026-03-03T17:37:44.889Z</time>
      </trkpt>
      <trkpt lat="51.968608" lon="4.907875">
        <ele>-0.237847</ele>
        <time>2026-03-03T17:37:47.410Z</time>
      </trkpt>
      <trkpt lat="51.968794" lon="4.908090">
        <ele>-0.253754</ele>
        <time>2026-03-03T17:37:50.851Z</time>
      </trkpt>
      <trkpt lat="51.969497" lon="4.908931">
        <ele>-0.422995</ele>
        <time>2026-03-03T17:38:03.285Z</time>
      </trkpt>
      <trkpt lat="51.969957" lon="4.909326">
        <ele>-0.523846</ele>
        <time>2026-03-03T17:38:10.344Z</time>
      </trkpt>
      <trkpt lat="51.970057" lon="4.909456">
        <ele>-0.548675</ele>
        <time>2026-03-03T17:38:12.075Z</time>
      </trkpt>
      <trkpt lat="51.970168" lon="4.909643">
        <ele>-0.579748</ele>
        <time>2026-03-03T17:38:14.305Z</time>
      </trkpt>
      <trkpt lat="51.970468" lon="4.910296">
        <ele>-0.740313</ele>
        <time>2026-03-03T17:38:21.276Z</time>
      </trkpt>
      <trkpt lat="51.970786" lon="4.910760">
        <ele>-0.877123</ele>
        <time>2026-03-03T17:38:27.014Z</time>
      </trkpt>
      <trkpt lat="51.970889" lon="4.910925">
        <ele>-0.923425</ele>
        <time>2026-03-03T17:38:28.926Z</time>
      </trkpt>
      <trkpt lat="51.971035" lon="4.911080">
        <ele>-0.979242</ele>
        <time>2026-03-03T17:38:32.130Z</time>
      </trkpt>
      <trkpt lat="51.971197" lon="4.911193">
        <ele>-1.035658</ele>
        <time>2026-03-03T17:38:35.404Z</time>
      </trkpt>
      <trkpt lat="51.972150" lon="4.911744">
        <ele>-1.009002</ele>
        <time>2026-03-03T17:38:55.693Z</time>
      </trkpt>
      <trkpt lat="51.972336" lon="4.911940">
        <ele>-0.958276</ele>
        <time>2026-03-03T17:39:00.329Z</time>
      </trkpt>
      <trkpt lat="51.972535" lon="4.912290">
        <ele>-0.891158</ele>
        <time>2026-03-03T17:39:06.679Z</time>
      </trkpt>
      <trkpt lat="51.972644" lon="4.912559">
        <ele>-0.845786</ele>
        <time>2026-03-03T17:39:11.033Z</time>
      </trkpt>
      <trkpt lat="51.972691" lon="4.912806">
        <ele>-0.809357</ele>
        <time>2026-03-03T17:39:14.605Z</time>
      </trkpt>
      <trkpt lat="51.972695" lon="4.912941">
        <ele>-0.790311</ele>
        <time>2026-03-03T17:39:16.532Z</time>
      </trkpt>
      <trkpt lat="51.972692" lon="4.913650">
        <ele>-0.690863</ele>
        <time>2026-03-03T17:39:26.565Z</time>
      </trkpt>
      <trkpt lat="51.972714" lon="4.913817">
        <ele>-0.667007</ele>
        <time>2026-03-03T17:39:28.909Z</time>
      </trkpt>
      <trkpt lat="51.972955" lon="4.914681">
        <ele>-0.534521</ele>
        <time>2026-03-03T17:39:41.611Z</time>
      </trkpt>
      <trkpt lat="51.973160" lon="4.915659">
        <ele>-0.390215</ele>
        <time>2026-03-03T17:39:51.130Z</time>
      </trkpt>
      <trkpt lat="51.973230" lon="4.915888">
        <ele>-0.354505</ele>
        <time>2026-03-03T17:39:53.410Z</time>
      </trkpt>
      <trkpt lat="51.973660" lon="4.916741">
        <ele>-0.387307</ele>
        <time>2026-03-03T17:40:03.147Z</time>
      </trkpt>
      <trkpt lat="51.973984" lon="4.917499">
        <ele>-0.436425</ele>
        <time>2026-03-03T17:40:11.385Z</time>
      </trkpt>
      <trkpt lat="51.974137" lon="4.917923">
        <ele>-0.462585</ele>
        <time>2026-03-03T17:40:15.737Z</time>
      </trkpt>
      <trkpt lat="51.974269" lon="4.918411">
        <ele>-0.490959</ele>
        <time>2026-03-03T17:40:20.409Z</time>
      </trkpt>
      <trkpt lat="51.974279" lon="4.918560">
        <ele>-0.507586</ele>
        <time>2026-03-03T17:40:21.739Z</time>
      </trkpt>
      <trkpt lat="51.974830" lon="4.918220">
        <ele>-0.615539</ele>
        <time>2026-03-03T17:40:30.078Z</time>
      </trkpt>
      <trkpt lat="51.975195" lon="4.917910">
        <ele>-0.690980</ele>
        <time>2026-03-03T17:40:35.861Z</time>
      </trkpt>
      <trkpt lat="51.975426" lon="4.917661">
        <ele>-0.741761</ele>
        <time>2026-03-03T17:40:39.698Z</time>
      </trkpt>
      <trkpt lat="51.977624" lon="4.916210">
        <ele>-1.014799</ele>
        <time>2026-03-03T17:41:13.958Z</time>
      </trkpt>
      <trkpt lat="51.977681" lon="4.916173">
        <ele>-1.023502</ele>
        <time>2026-03-03T17:41:14.865Z</time>
      </trkpt>
      <trkpt lat="51.982055" lon="4.913347">
        <ele>-1.656700</ele>
        <time>2026-03-03T17:42:22.224Z</time>
      </trkpt>
      <trkpt lat="51.984552" lon="4.911755">
        <ele>-1.672938</ele>
        <time>2026-03-03T17:43:01.674Z</time>
      </trkpt>
      <trkpt lat="51.984578" lon="4.911739">
        <ele>-1.667071</ele>
        <time>2026-03-03T17:43:02.148Z</time>
      </trkpt>
      <trkpt lat="51.984788" lon="4.911604">
        <ele>-1.619415</ele>
        <time>2026-03-03T17:43:10.820Z</time>
      </trkpt>
      <trkpt lat="51.984822" lon="4.911579">
        <ele>-1.611540</ele>
        <time>2026-03-03T17:43:11.416Z</time>
      </trkpt>
      <trkpt lat="51.985036" lon="4.911424">
        <ele>-1.562098</ele>
        <time>2026-03-03T17:43:15.221Z</time>
      </trkpt>
      <trkpt lat="51.985140" lon="4.911310">
        <ele>-1.535622</ele>
        <time>2026-03-03T17:43:17.262Z</time>
      </trkpt>
      <trkpt lat="51.985217" lon="4.911051">
        <ele>-1.498250</ele>
        <time>2026-03-03T17:43:20.137Z</time>
      </trkpt>
      <trkpt lat="51.985282" lon="4.910585">
        <ele>-1.436162</ele>
        <time>2026-03-03T17:43:24.949Z</time>
      </trkpt>
      <trkpt lat="51.985366" lon="4.910356">
        <ele>-1.401527</ele>
        <time>2026-03-03T17:43:27.613Z</time>
      </trkpt>
      <trkpt lat="51.985479" lon="4.910200">
        <ele>-1.377622</ele>
        <time>2026-03-03T17:43:29.966Z</time>
      </trkpt>
      <trkpt lat="51.988162" lon="4.908526">
        <ele>-1.414095</ele>
        <time>2026-03-03T17:44:12.164Z</time>
      </trkpt>
      <trkpt lat="51.989522" lon="4.907632">
        <ele>-1.417118</ele>
        <time>2026-03-03T17:44:33.471Z</time>
      </trkpt>
      <trkpt lat="51.993685" lon="4.905038">
        <ele>-1.181576</ele>
        <time>2026-03-03T17:45:40.801Z</time>
      </trkpt>
      <trkpt lat="51.993741" lon="4.904825">
        <ele>-1.170381</ele>
        <time>2026-03-03T17:45:42.984Z</time>
      </trkpt>
      <trkpt lat="51.993887" lon="4.904716">
        <ele>-1.145648</ele>
        <time>2026-03-03T17:45:46.318Z</time>
      </trkpt>
      <trkpt lat="51.994168" lon="4.904352">
        <ele>-1.087820</ele>
        <time>2026-03-03T17:45:53.830Z</time>
      </trkpt>
      <trkpt lat="51.994578" lon="4.903989">
        <ele>-1.012692</ele>
        <time>2026-03-03T17:46:03.774Z</time>
      </trkpt>
      <trkpt lat="51.994869" lon="4.903615">
        <ele>-0.952988</ele>
        <time>2026-03-03T17:46:11.594Z</time>
      </trkpt>
      <trkpt lat="51.995430" lon="4.903143">
        <ele>-0.904284</ele>
        <time>2026-03-03T17:46:24.885Z</time>
      </trkpt>
      <trkpt lat="51.995520" lon="4.903074">
        <ele>-0.917915</ele>
        <time>2026-03-03T17:46:26.338Z</time>
      </trkpt>
      <trkpt lat="51.996396" lon="4.902514">
        <ele>-1.046849</ele>
        <time>2026-03-03T17:46:39.533Z</time>
      </trkpt>
      <trkpt lat="51.996466" lon="4.902384">
        <ele>-1.061412</ele>
        <time>2026-03-03T17:46:41.511Z</time>
      </trkpt>
      <trkpt lat="51.996594" lon="4.902293">
        <ele>-1.080549</ele>
        <time>2026-03-03T17:46:44.148Z</time>
      </trkpt>
      <trkpt lat="52.005180" lon="4.897006">
        <ele>-2.361082</ele>
        <time>2026-03-03T17:49:44.835Z</time>
      </trkpt>
      <trkpt lat="52.005439" lon="4.896711">
        <ele>-2.382106</ele>
        <time>2026-03-03T17:49:51.175Z</time>
      </trkpt>
      <trkpt lat="52.005508" lon="4.896558">
        <ele>-2.384780</ele>
        <time>2026-03-03T17:49:53.512Z</time>
      </trkpt>
      <trkpt lat="52.005556" lon="4.896385">
        <ele>-2.387456</ele>
        <time>2026-03-03T17:49:55.850Z</time>
      </trkpt>
      <trkpt lat="52.005596" lon="4.896087">
        <ele>-2.391756</ele>
        <time>2026-03-03T17:49:59.602Z</time>
      </trkpt>
      <trkpt lat="52.005553" lon="4.895714">
        <ele>-2.397107</ele>
        <time>2026-03-03T17:50:04.278Z</time>
      </trkpt>
      <trkpt lat="52.005433" lon="4.895351">
        <ele>-2.402916</ele>
        <time>2026-03-03T17:50:09.367Z</time>
      </trkpt>
      <trkpt lat="52.004918" lon="4.894056">
        <ele>-2.385187</ele>
        <time>2026-03-03T17:50:28.758Z</time>
      </trkpt>
      <trkpt lat="52.004422" lon="4.892792">
        <ele>-2.248314</ele>
        <time>2026-03-03T17:50:47.997Z</time>
      </trkpt>
      <trkpt lat="52.004363" lon="4.892585">
        <ele>-2.227485</ele>
        <time>2026-03-03T17:50:51.021Z</time>
      </trkpt>
      <trkpt lat="52.004334" lon="4.892305">
        <ele>-2.201558</ele>
        <time>2026-03-03T17:50:54.747Z</time>
      </trkpt>
      <trkpt lat="52.004369" lon="4.891958">
        <ele>-2.169450</ele>
        <time>2026-03-03T17:50:59.309Z</time>
      </trkpt>
      <trkpt lat="52.004485" lon="4.891639">
        <ele>-2.140208</ele>
        <time>2026-03-03T17:51:04.004Z</time>
      </trkpt>
      <trkpt lat="52.004699" lon="4.891361">
        <ele>-2.110560</ele>
        <time>2026-03-03T17:51:09.609Z</time>
      </trkpt>
      <trkpt lat="52.004838" lon="4.891198">
        <ele>-2.092011</ele>
        <time>2026-03-03T17:51:12.179Z</time>
      </trkpt>
      <trkpt lat="52.005278" lon="4.890453">
        <ele>-2.023245</ele>
        <time>2026-03-03T17:51:21.969Z</time>
      </trkpt>
      <trkpt lat="52.006403" lon="4.889225">
        <ele>-1.934544</ele>
        <time>2026-03-03T17:51:42.245Z</time>
      </trkpt>
      <trkpt lat="52.007537" lon="4.887986">
        <ele>-1.907858</ele>
        <time>2026-03-03T17:52:02.688Z</time>
      </trkpt>
      <trkpt lat="52.011514" lon="4.883642">
        <ele>-1.947853</ele>
        <time>2026-03-03T17:53:13.484Z</time>
      </trkpt>
      <trkpt lat="52.015707" lon="4.879035">
        <ele>-1.223779</ele>
        <time>2026-03-03T17:54:31.186Z</time>
      </trkpt>
      <trkpt lat="52.015870" lon="4.878993">
        <ele>-1.190304</ele>
        <time>2026-03-03T17:54:33.808Z</time>
      </trkpt>
      <trkpt lat="52.015983" lon="4.878985">
        <ele>-1.167361</ele>
        <time>2026-03-03T17:54:35.620Z</time>
      </trkpt>
      <trkpt lat="52.016360" lon="4.878570">
        <ele>-1.087303</ele>
        <time>2026-03-03T17:54:43.017Z</time>
      </trkpt>
      <trkpt lat="52.016624" lon="4.878202">
        <ele>-1.053730</ele>
        <time>2026-03-03T17:54:48.395Z</time>
      </trkpt>
      <trkpt lat="52.016938" lon="4.877733">
        <ele>-1.012563</ele>
        <time>2026-03-03T17:54:54.983Z</time>
      </trkpt>
      <trkpt lat="52.016947" lon="4.877631">
        <ele>-1.006442</ele>
        <time>2026-03-03T17:54:56.325Z</time>
      </trkpt>
      <trkpt lat="52.016976" lon="4.877604">
        <ele>-1.003216</ele>
        <time>2026-03-03T17:54:57.012Z</time>
      </trkpt>
      <trkpt lat="52.017026" lon="4.877564">
        <ele>-0.997837</ele>
        <time>2026-03-03T17:54:58.143Z</time>
      </trkpt>
      <trkpt lat="52.017064" lon="4.877530">
        <ele>-0.993650</ele>
        <time>2026-03-03T17:54:59.079Z</time>
      </trkpt>
      <trkpt lat="52.016996" lon="4.877353">
        <ele>-0.981255</ele>
        <time>2026-03-03T17:55:01.683Z</time>
      </trkpt>
      <trkpt lat="52.016947" lon="4.876983">
        <ele>-0.958774</ele>
        <time>2026-03-03T17:55:06.424Z</time>
      </trkpt>
      <trkpt lat="52.016951" lon="4.876708">
        <ele>-0.942434</ele>
        <time>2026-03-03T17:55:09.841Z</time>
      </trkpt>
      <trkpt lat="52.017017" lon="4.876014">
        <ele>-0.942847</ele>
        <time>2026-03-03T17:55:18.455Z</time>
      </trkpt>
      <trkpt lat="52.017036" lon="4.875359">
        <ele>-0.971840</ele>
        <time>2026-03-03T17:55:26.297Z</time>
      </trkpt>
      <trkpt lat="52.017037" lon="4.875320">
        <ele>-0.973566</ele>
        <time>2026-03-03T17:55:26.780Z</time>
      </trkpt>
      <trkpt lat="52.017073" lon="4.874542">
        <ele>-1.008063</ele>
        <time>2026-03-03T17:55:36.365Z</time>
      </trkpt>
      <trkpt lat="52.017095" lon="4.874383">
        <ele>-1.015268</ele>
        <time>2026-03-03T17:55:38.361Z</time>
      </trkpt>
      <trkpt lat="52.017172" lon="4.874136">
        <ele>-1.027511</ele>
        <time>2026-03-03T17:55:41.748Z</time>
      </trkpt>
      <trkpt lat="52.017493" lon="4.873249">
        <ele>-1.000872</ele>
        <time>2026-03-03T17:55:54.492Z</time>
      </trkpt>
      <trkpt lat="52.017854" lon="4.872666">
        <ele>-0.897977</ele>
        <time>2026-03-03T17:56:04.951Z</time>
      </trkpt>
      <trkpt lat="52.018078" lon="4.872448">
        <ele>-0.845192</ele>
        <time>2026-03-03T17:56:10.426Z</time>
      </trkpt>
      <trkpt lat="52.018255" lon="4.872173">
        <ele>-0.795685</ele>
        <time>2026-03-03T17:56:15.571Z</time>
      </trkpt>
      <trkpt lat="52.018921" lon="4.871431">
        <ele>-0.563879</ele>
        <time>2026-03-03T17:56:33.189Z</time>
      </trkpt>
      <trkpt lat="52.019051" lon="4.871155">
        <ele>-0.469560</ele>
        <time>2026-03-03T17:56:37.980Z</time>
      </trkpt>
      <trkpt lat="52.019154" lon="4.871011">
        <ele>-0.409644</ele>
        <time>2026-03-03T17:56:41.022Z</time>
      </trkpt>
      <trkpt lat="52.019728" lon="4.870276">
        <ele>-0.087386</ele>
        <time>2026-03-03T17:56:57.158Z</time>
      </trkpt>
      <trkpt lat="52.020089" lon="4.869582">
        <ele>0.123864</ele>
        <time>2026-03-03T17:57:09.633Z</time>
      </trkpt>
      <trkpt lat="52.020281" lon="4.869140">
        <ele>0.178902</ele>
        <time>2026-03-03T17:57:16.904Z</time>
      </trkpt>
      <trkpt lat="52.020425" lon="4.868917">
        <ele>0.211784</ele>
        <time>2026-03-03T17:57:21.052Z</time>
      </trkpt>
      <trkpt lat="52.020639" lon="4.868742">
        <ele>0.251387</ele>
        <time>2026-03-03T17:57:25.925Z</time>
      </trkpt>
      <trkpt lat="52.020927" lon="4.868674">
        <ele>0.299496</ele>
        <time>2026-03-03T17:57:31.756Z</time>
      </trkpt>
      <trkpt lat="52.021043" lon="4.868660">
        <ele>0.318725</ele>
        <time>2026-03-03T17:57:34.076Z</time>
      </trkpt>
      <trkpt lat="52.021102" lon="4.868615">
        <ele>0.329499</ele>
        <time>2026-03-03T17:57:35.351Z</time>
      </trkpt>
      <trkpt lat="52.021126" lon="4.868541">
        <ele>0.338008</ele>
        <time>2026-03-03T17:57:36.383Z</time>
      </trkpt>
      <trkpt lat="52.021272" lon="4.867966">
        <ele>0.400586</ele>
        <time>2026-03-03T17:57:44.175Z</time>
      </trkpt>
      <trkpt lat="52.021347" lon="4.867766">
        <ele>0.411465</ele>
        <time>2026-03-03T17:57:47.164Z</time>
      </trkpt>
      <trkpt lat="52.021397" lon="4.867710">
        <ele>0.416048</ele>
        <time>2026-03-03T17:57:48.401Z</time>
      </trkpt>
      <trkpt lat="52.021508" lon="4.867350">
        <ele>0.434750</ele>
        <time>2026-03-03T17:57:53.515Z</time>
      </trkpt>
      <trkpt lat="52.021677" lon="4.866924">
        <ele>0.458292</ele>
        <time>2026-03-03T17:57:59.771Z</time>
      </trkpt>
      <trkpt lat="52.021693" lon="4.866638">
        <ele>0.471630</ele>
        <time>2026-03-03T17:58:03.339Z</time>
      </trkpt>
      <trkpt lat="52.021767" lon="4.866548">
        <ele>0.478606</ele>
        <time>2026-03-03T17:58:05.235Z</time>
      </trkpt>
      <trkpt lat="52.022349" lon="4.866405">
        <ele>0.523034</ele>
        <time>2026-03-03T17:58:17.415Z</time>
      </trkpt>
      <trkpt lat="52.022880" lon="4.866394">
        <ele>0.577754</ele>
        <time>2026-03-03T17:58:28.706Z</time>
      </trkpt>
      <trkpt lat="52.023399" lon="4.866366">
        <ele>0.637921</ele>
        <time>2026-03-03T17:58:39.501Z</time>
      </trkpt>
      <trkpt lat="52.023488" lon="4.866361">
        <ele>0.648239</ele>
        <time>2026-03-03T17:58:41.298Z</time>
      </trkpt>
      <trkpt lat="52.023698" lon="4.866347">
        <ele>0.672591</ele>
        <time>2026-03-03T17:58:44.476Z</time>
      </trkpt>
      <trkpt lat="52.023826" lon="4.866341">
        <ele>0.687428</ele>
        <time>2026-03-03T17:58:46.445Z</time>
      </trkpt>
      <trkpt lat="52.024396" lon="4.866423">
        <ele>0.720844</ele>
        <time>2026-03-03T17:58:58.512Z</time>
      </trkpt>
      <trkpt lat="52.024420" lon="4.866426">
        <ele>0.714053</ele>
        <time>2026-03-03T17:58:59.005Z</time>
      </trkpt>
      <trkpt lat="52.024664" lon="4.866492">
        <ele>0.644261</ele>
        <time>2026-03-03T17:59:03.972Z</time>
      </trkpt>
      <trkpt lat="52.025302" lon="4.866820">
        <ele>0.455457</ele>
        <time>2026-03-03T17:59:16.728Z</time>
      </trkpt>
      <trkpt lat="52.025730" lon="4.867034">
        <ele>0.329110</ele>
        <time>2026-03-03T17:59:25.014Z</time>
      </trkpt>
      <trkpt lat="52.025764" lon="4.867051">
        <ele>0.319074</ele>
        <time>2026-03-03T17:59:25.671Z</time>
      </trkpt>
      <trkpt lat="52.025856" lon="4.867250">
        <ele>0.275860</ele>
        <time>2026-03-03T17:59:28.497Z</time>
      </trkpt>
      <trkpt lat="52.025911" lon="4.867249">
        <ele>0.260341</ele>
        <time>2026-03-03T17:59:29.508Z</time>
      </trkpt>
      <trkpt lat="52.025975" lon="4.867240">
        <ele>0.242216</ele>
        <time>2026-03-03T17:59:30.702Z</time>
      </trkpt>
      <trkpt lat="52.026027" lon="4.867231">
        <ele>0.228927</ele>
        <time>2026-03-03T17:59:31.649Z</time>
      </trkpt>
      <trkpt lat="52.026111" lon="4.867261">
        <ele>0.208526</ele>
        <time>2026-03-03T17:59:33.232Z</time>
      </trkpt>
      <trkpt lat="52.026187" lon="4.867233">
        <ele>0.190039</ele>
        <time>2026-03-03T17:59:34.662Z</time>
      </trkpt>
      <trkpt lat="52.026413" lon="4.867064">
        <ele>0.131025</ele>
        <time>2026-03-03T17:59:39.209Z</time>
      </trkpt>
      <trkpt lat="52.027465" lon="4.866334">
        <ele>-0.140324</ele>
        <time>2026-03-03T18:00:01.524Z</time>
      </trkpt>
      <trkpt lat="52.027494" lon="4.866315">
        <ele>-0.147741</ele>
        <time>2026-03-03T18:00:02.163Z</time>
      </trkpt>
      <trkpt lat="52.027627" lon="4.866278">
        <ele>-0.179750</ele>
        <time>2026-03-03T18:00:04.980Z</time>
      </trkpt>
      <trkpt lat="52.027703" lon="4.866255">
        <ele>-0.190898</ele>
        <time>2026-03-03T18:00:06.587Z</time>
      </trkpt>
      <trkpt lat="52.027724" lon="4.866197">
        <ele>-0.191983</ele>
        <time>2026-03-03T18:00:07.458Z</time>
      </trkpt>
      <trkpt lat="52.027785" lon="4.866103">
        <ele>-0.194187</ele>
        <time>2026-03-03T18:00:09.211Z</time>
      </trkpt>
      <trkpt lat="52.027828" lon="4.866075">
        <ele>-0.195401</ele>
        <time>2026-03-03T18:00:10.154Z</time>
      </trkpt>
      <trkpt lat="52.028006" lon="4.865938">
        <ele>-0.200564</ele>
        <time>2026-03-03T18:00:14.268Z</time>
      </trkpt>
      <trkpt lat="52.028279" lon="4.865719">
        <ele>-0.208544</ele>
        <time>2026-03-03T18:00:20.611Z</time>
      </trkpt>
      <trkpt lat="52.028666" lon="4.865439">
        <ele>-0.219649</ele>
        <time>2026-03-03T18:00:29.428Z</time>
      </trkpt>
      <trkpt lat="52.029184" lon="4.865068">
        <ele>-0.234488</ele>
        <time>2026-03-03T18:00:40.614Z</time>
      </trkpt>
      <trkpt lat="52.029609" lon="4.864720">
        <ele>-0.438679</ele>
        <time>2026-03-03T18:00:49.569Z</time>
      </trkpt>
      <trkpt lat="52.029713" lon="4.864771">
        <ele>-0.497185</ele>
        <time>2026-03-03T18:00:51.543Z</time>
      </trkpt>
      <trkpt lat="52.029770" lon="4.864737">
        <ele>-0.529886</ele>
        <time>2026-03-03T18:00:52.658Z</time>
      </trkpt>
      <trkpt lat="52.029843" lon="4.864540">
        <ele>-0.606090</ele>
        <time>2026-03-03T18:00:55.242Z</time>
      </trkpt>
      <trkpt lat="52.030214" lon="4.864483">
        <ele>-0.806794</ele>
        <time>2026-03-03T18:01:01.987Z</time>
      </trkpt>
      <trkpt lat="52.030414" lon="4.864474">
        <ele>-0.914551</ele>
        <time>2026-03-03T18:01:05.587Z</time>
      </trkpt>
      <trkpt lat="52.030410" lon="4.864340">
        <ele>-0.959005</ele>
        <time>2026-03-03T18:01:07.061Z</time>
      </trkpt>
      <trkpt lat="52.030409" lon="4.864220">
        <ele>-0.998772</ele>
        <time>2026-03-03T18:01:08.405Z</time>
      </trkpt>
      <trkpt lat="52.030407" lon="4.864100">
        <ele>-1.038549</ele>
        <time>2026-03-03T18:01:09.724Z</time>
      </trkpt>
      <trkpt lat="52.030942" lon="4.863755">
        <ele>-1.284237</ele>
        <time>2026-03-03T18:01:17.218Z</time>
      </trkpt>
      <trkpt lat="52.032990" lon="4.862262">
        <ele>-1.738157</ele>
        <time>2026-03-03T18:01:48.604Z</time>
      </trkpt>
      <trkpt lat="52.034834" lon="4.860923">
        <ele>-1.683105</ele>
        <time>2026-03-03T18:02:19.757Z</time>
      </trkpt>
      <trkpt lat="52.034923" lon="4.860576">
        <ele>-1.669378</ele>
        <time>2026-03-03T18:02:24.585Z</time>
      </trkpt>
      <trkpt lat="52.034950" lon="4.860470">
        <ele>-1.665189</ele>
        <time>2026-03-03T18:02:25.998Z</time>
      </trkpt>
      <trkpt lat="52.034976" lon="4.860416">
        <ele>-1.662685</ele>
        <time>2026-03-03T18:02:26.881Z</time>
      </trkpt>
      <trkpt lat="52.035031" lon="4.860354">
        <ele>-1.658713</ele>
        <time>2026-03-03T18:02:28.254Z</time>
      </trkpt>
      <trkpt lat="52.035232" lon="4.860253">
        <ele>-1.646226</ele>
        <time>2026-03-03T18:02:32.515Z</time>
      </trkpt>
      <trkpt lat="52.035304" lon="4.860216">
        <ele>-1.641744</ele>
        <time>2026-03-03T18:02:34.091Z</time>
      </trkpt>
      <trkpt lat="52.036201" lon="4.859482">
        <ele>-1.692621</ele>
        <time>2026-03-03T18:02:48.661Z</time>
      </trkpt>
      <trkpt lat="52.038990" lon="4.857448">
        <ele>-1.844856</ele>
        <time>2026-03-03T18:03:33.224Z</time>
      </trkpt>
      <trkpt lat="52.044265" lon="4.853558">
        <ele>-1.579367</ele>
        <time>2026-03-03T18:05:00.841Z</time>
      </trkpt>
      <trkpt lat="52.044669" lon="4.853288">
        <ele>-1.654523</ele>
        <time>2026-03-03T18:05:07.400Z</time>
      </trkpt>
      <trkpt lat="52.044919" lon="4.853102">
        <ele>-1.701828</ele>
        <time>2026-03-03T18:05:12.609Z</time>
      </trkpt>
      <trkpt lat="52.044994" lon="4.852915">
        <ele>-1.725453</ele>
        <time>2026-03-03T18:05:15.095Z</time>
      </trkpt>
      <trkpt lat="52.044974" lon="4.852777">
        <ele>-1.740456</ele>
        <time>2026-03-03T18:05:16.685Z</time>
      </trkpt>
      <trkpt lat="52.045007" lon="4.852497">
        <ele>-1.771004</ele>
        <time>2026-03-03T18:05:19.879Z</time>
      </trkpt>
      <trkpt lat="52.044905" lon="4.852055">
        <ele>-1.856731</ele>
        <time>2026-03-03T18:05:25.194Z</time>
      </trkpt>
      <trkpt lat="52.044853" lon="4.851885">
        <ele>-1.891209</ele>
        <time>2026-03-03T18:05:27.319Z</time>
      </trkpt>
      <trkpt lat="52.044832" lon="4.851722">
        <ele>-1.921451</ele>
        <time>2026-03-03T18:05:29.180Z</time>
      </trkpt>
      <trkpt lat="52.044866" lon="4.851417">
        <ele>-1.977739</ele>
        <time>2026-03-03T18:05:32.707Z</time>
      </trkpt>
      <trkpt lat="52.044908" lon="4.851274">
        <ele>-2.006515</ele>
        <time>2026-03-03T18:05:34.582Z</time>
      </trkpt>
      <trkpt lat="52.045031" lon="4.851073">
        <ele>-2.058004</ele>
        <time>2026-03-03T18:05:37.980Z</time>
      </trkpt>
      <trkpt lat="52.045138" lon="4.851009">
        <ele>-2.091665</ele>
        <time>2026-03-03T18:05:39.576Z</time>
      </trkpt>
      <trkpt lat="52.045313" lon="4.850987">
        <ele>-2.143488</ele>
        <time>2026-03-03T18:05:41.973Z</time>
      </trkpt>
      <trkpt lat="52.045704" lon="4.851076">
        <ele>-2.260057</ele>
        <time>2026-03-03T18:05:47.443Z</time>
      </trkpt>
      <trkpt lat="52.046046" lon="4.851143">
        <ele>-2.257017</ele>
        <time>2026-03-03T18:05:52.790Z</time>
      </trkpt>
      <trkpt lat="52.046928" lon="4.851336">
        <ele>-2.065718</ele>
        <time>2026-03-03T18:06:07.566Z</time>
      </trkpt>
      <trkpt lat="52.046974" lon="4.851265">
        <ele>-2.052085</ele>
        <time>2026-03-03T18:06:08.602Z</time>
      </trkpt>
      <trkpt lat="52.047359" lon="4.851315">
        <ele>-1.969063</ele>
        <time>2026-03-03T18:06:16.473Z</time>
      </trkpt>
      <trkpt lat="52.047437" lon="4.851303">
        <ele>-1.952222</ele>
        <time>2026-03-03T18:06:18.044Z</time>
      </trkpt>
      <trkpt lat="52.047574" lon="4.851255">
        <ele>-1.922097</ele>
        <time>2026-03-03T18:06:20.854Z</time>
      </trkpt>
      <trkpt lat="52.048128" lon="4.850843">
        <ele>-1.864919</ele>
        <time>2026-03-03T18:06:33.304Z</time>
      </trkpt>
      <trkpt lat="52.049046" lon="4.850183">
        <ele>-1.778175</ele>
        <time>2026-03-03T18:06:54.195Z</time>
      </trkpt>
      <trkpt lat="52.049325" lon="4.849963">
        <ele>-1.757101</ele>
        <time>2026-03-03T18:07:00.523Z</time>
      </trkpt>
      <trkpt lat="52.050607" lon="4.849007">
        <ele>-1.725790</ele>
        <time>2026-03-03T18:07:29.148Z</time>
      </trkpt>
      <trkpt lat="52.051160" lon="4.848606">
        <ele>-1.777080</ele>
        <time>2026-03-03T18:07:41.258Z</time>
      </trkpt>
      <trkpt lat="52.051624" lon="4.848264">
        <ele>-1.873420</ele>
        <time>2026-03-03T18:07:51.317Z</time>
      </trkpt>
      <trkpt lat="52.052140" lon="4.847877">
        <ele>-1.980879</ele>
        <time>2026-03-03T18:08:02.533Z</time>
      </trkpt>
      <trkpt lat="52.053160" lon="4.847124">
        <ele>-2.164271</ele>
        <time>2026-03-03T18:08:23.800Z</time>
      </trkpt>
      <trkpt lat="52.053464" lon="4.846902">
        <ele>-2.213856</ele>
        <time>2026-03-03T18:08:30.222Z</time>
      </trkpt>
      <trkpt lat="52.053930" lon="4.846574">
        <ele>-2.289409</ele>
        <time>2026-03-03T18:08:40.154Z</time>
      </trkpt>
      <trkpt lat="52.054513" lon="4.846136">
        <ele>-2.282623</ele>
        <time>2026-03-03T18:08:53.571Z</time>
      </trkpt>
      <trkpt lat="52.055034" lon="4.845761">
        <ele>-2.217940</ele>
        <time>2026-03-03T18:09:05.902Z</time>
      </trkpt>
      <trkpt lat="52.055484" lon="4.845435">
        <ele>-2.162013</ele>
        <time>2026-03-03T18:09:15.908Z</time>
      </trkpt>
      <trkpt lat="52.055726" lon="4.845280">
        <ele>-2.132485</ele>
        <time>2026-03-03T18:09:21.219Z</time>
      </trkpt>
      <trkpt lat="52.055777" lon="4.845249">
        <ele>-2.126303</ele>
        <time>2026-03-03T18:09:22.307Z</time>
      </trkpt>
      <trkpt lat="52.056023" lon="4.845092">
        <ele>-2.146656</ele>
        <time>2026-03-03T18:09:27.690Z</time>
      </trkpt>
      <trkpt lat="52.056515" lon="4.844776">
        <ele>-2.201081</ele>
        <time>2026-03-03T18:09:38.112Z</time>
      </trkpt>
      <trkpt lat="52.056642" lon="4.844621">
        <ele>-2.217418</ele>
        <time>2026-03-03T18:09:41.175Z</time>
      </trkpt>
      <trkpt lat="52.056690" lon="4.844498">
        <ele>-2.226635</ele>
        <time>2026-03-03T18:09:42.910Z</time>
      </trkpt>
      <trkpt lat="52.056678" lon="4.844309">
        <ele>-2.238655</ele>
        <time>2026-03-03T18:09:45.144Z</time>
      </trkpt>
      <trkpt lat="52.056298" lon="4.843528">
        <ele>-2.301662</ele>
        <time>2026-03-03T18:09:57.506Z</time>
      </trkpt>
      <trkpt lat="52.056250" lon="4.843411">
        <ele>-2.311269</ele>
        <time>2026-03-03T18:09:59.261Z</time>
      </trkpt>
      <trkpt lat="52.056218" lon="4.843234">
        <ele>-2.325913</ele>
        <time>2026-03-03T18:10:01.590Z</time>
      </trkpt>
      <trkpt lat="52.056256" lon="4.843080">
        <ele>-2.339083</ele>
        <time>2026-03-03T18:10:03.680Z</time>
      </trkpt>
      <trkpt lat="52.056318" lon="4.843007">
        <ele>-2.348964</ele>
        <time>2026-03-03T18:10:05.228Z</time>
      </trkpt>
      <trkpt lat="52.057799" lon="4.841882">
        <ele>-2.539325</ele>
        <time>2026-03-03T18:10:37.131Z</time>
      </trkpt>
      <trkpt lat="52.061991" lon="4.838731">
        <ele>-2.340152</ele>
        <time>2026-03-03T18:11:45.859Z</time>
      </trkpt>
      <trkpt lat="52.062177" lon="4.838508">
        <ele>-2.303734</ele>
        <time>2026-03-03T18:11:50.800Z</time>
      </trkpt>
      <trkpt lat="52.063565" lon="4.837414">
        <ele>-1.855248</ele>
        <time>2026-03-03T18:12:24.605Z</time>
      </trkpt>
      <trkpt lat="52.063811" lon="4.837028">
        <ele>-1.740358</ele>
        <time>2026-03-03T18:12:32.022Z</time>
      </trkpt>
      <trkpt lat="52.063883" lon="4.837017">
        <ele>-1.716051</ele>
        <time>2026-03-03T18:12:33.534Z</time>
      </trkpt>
      <trkpt lat="52.063743" lon="4.836534">
        <ele>-1.634558</ele>
        <time>2026-03-03T18:12:38.721Z</time>
      </trkpt>
      <trkpt lat="52.063496" lon="4.835700">
        <ele>-1.617326</ele>
        <time>2026-03-03T18:12:47.342Z</time>
      </trkpt>
      <trkpt lat="52.062797" lon="4.833639">
        <ele>-1.620602</ele>
        <time>2026-03-03T18:13:08.446Z</time>
      </trkpt>
      <trkpt lat="52.062296" lon="4.832500">
        <ele>-1.724518</ele>
        <time>2026-03-03T18:13:20.695Z</time>
      </trkpt>
      <trkpt lat="52.061596" lon="4.831100">
        <ele>-1.781825</ele>
        <time>2026-03-03T18:13:36.686Z</time>
      </trkpt>
      <trkpt lat="52.060993" lon="4.830053">
        <ele>-1.748629</ele>
        <time>2026-03-03T18:13:50.077Z</time>
      </trkpt>
      <trkpt lat="52.060094" lon="4.828472">
        <ele>-1.632303</ele>
        <time>2026-03-03T18:14:10.544Z</time>
      </trkpt>
      <trkpt lat="52.060022" lon="4.828350">
        <ele>-1.620632</ele>
        <time>2026-03-03T18:14:12.665Z</time>
      </trkpt>
      <trkpt lat="52.059924" lon="4.828176">
        <ele>-1.604346</ele>
        <time>2026-03-03T18:14:15.620Z</time>
      </trkpt>
      <trkpt lat="52.059511" lon="4.827439">
        <ele>-1.535523</ele>
        <time>2026-03-03T18:14:28.248Z</time>
      </trkpt>
      <trkpt lat="52.059337" lon="4.827130">
        <ele>-1.538851</ele>
        <time>2026-03-03T18:14:33.586Z</time>
      </trkpt>
      <trkpt lat="52.058386" lon="4.825490">
        <ele>-1.593781</ele>
        <time>2026-03-03T18:15:01.696Z</time>
      </trkpt>
      <trkpt lat="52.057946" lon="4.824687">
        <ele>-1.705462</ele>
        <time>2026-03-03T18:15:14.297Z</time>
      </trkpt>
      <trkpt lat="52.057869" lon="4.824548">
        <ele>-1.731346</ele>
        <time>2026-03-03T18:15:16.433Z</time>
      </trkpt>
      <trkpt lat="52.057388" lon="4.823685">
        <ele>-1.892491</ele>
        <time>2026-03-03T18:15:29.733Z</time>
      </trkpt>
      <trkpt lat="52.057370" lon="4.823592">
        <ele>-1.905980</ele>
        <time>2026-03-03T18:15:30.901Z</time>
      </trkpt>
      <trkpt lat="52.057326" lon="4.823485">
        <ele>-1.923788</ele>
        <time>2026-03-03T18:15:32.446Z</time>
      </trkpt>
      <trkpt lat="52.057462" lon="4.823381">
        <ele>-1.957602</ele>
        <time>2026-03-03T18:15:35.437Z</time>
      </trkpt>
      <trkpt lat="52.057602" lon="4.823308">
        <ele>-1.990682</ele>
        <time>2026-03-03T18:15:38.462Z</time>
      </trkpt>
      <trkpt lat="52.058950" lon="4.822235">
        <ele>-1.662212</ele>
        <time>2026-03-03T18:16:10.396Z</time>
      </trkpt>
      <trkpt lat="52.059759" lon="4.821588">
        <ele>-1.435926</ele>
        <time>2026-03-03T18:16:29.842Z</time>
      </trkpt>
      <trkpt lat="52.060367" lon="4.821117">
        <ele>-1.262039</ele>
        <time>2026-03-03T18:16:44.159Z</time>
      </trkpt>
      <trkpt lat="52.060438" lon="4.821059">
        <ele>-1.241524</ele>
        <time>2026-03-03T18:16:45.846Z</time>
      </trkpt>
      <trkpt lat="52.061318" lon="4.820353">
        <ele>-1.124219</ele>
        <time>2026-03-03T18:17:06.379Z</time>
      </trkpt>
      <trkpt lat="52.061373" lon="4.820281">
        <ele>-1.126461</ele>
        <time>2026-03-03T18:17:07.832Z</time>
      </trkpt>
      <trkpt lat="52.061469" lon="4.820374">
        <ele>-1.130010</ele>
        <time>2026-03-03T18:17:09.469Z</time>
      </trkpt>
      <trkpt lat="52.061570" lon="4.820410">
        <ele>-1.133294</ele>
        <time>2026-03-03T18:17:10.970Z</time>
      </trkpt>
      <trkpt lat="52.061716" lon="4.820463">
        <ele>-1.138045</ele>
        <time>2026-03-03T18:17:13.125Z</time>
      </trkpt>
      <trkpt lat="52.061783" lon="4.820487">
        <ele>-1.140224</ele>
        <time>2026-03-03T18:17:14.129Z</time>
      </trkpt>
      <trkpt lat="52.061964" lon="4.820564">
        <ele>-1.146165</ele>
        <time>2026-03-03T18:17:16.790Z</time>
      </trkpt>
      <trkpt lat="52.062162" lon="4.820566">
        <ele>-1.152454</ele>
        <time>2026-03-03T18:17:19.604Z</time>
      </trkpt>
      <trkpt lat="52.062447" lon="4.820646">
        <ele>-1.161639</ele>
        <time>2026-03-03T18:17:23.749Z</time>
      </trkpt>
      <trkpt lat="52.062905" lon="4.820806">
        <ele>-1.153095</ele>
        <time>2026-03-03T18:17:30.614Z</time>
      </trkpt>
      <trkpt lat="52.063262" lon="4.821044">
        <ele>-1.136866</ele>
        <time>2026-03-03T18:17:36.333Z</time>
      </trkpt>
      <trkpt lat="52.063637" lon="4.821322">
        <ele>-1.119530</ele>
        <time>2026-03-03T18:17:42.562Z</time>
      </trkpt>
      <trkpt lat="52.063985" lon="4.821597">
        <ele>-1.103256</ele>
        <time>2026-03-03T18:17:48.303Z</time>
      </trkpt>
      <trkpt lat="52.064104" lon="4.821689">
        <ele>-1.097713</ele>
        <time>2026-03-03T18:17:50.287Z</time>
      </trkpt>
      <trkpt lat="52.064160" lon="4.821661">
        <ele>-1.095249</ele>
        <time>2026-03-03T18:17:51.485Z</time>
      </trkpt>
      <trkpt lat="52.064236" lon="4.821691">
        <ele>-1.091959</ele>
        <time>2026-03-03T18:17:53.082Z</time>
      </trkpt>
      <trkpt lat="52.064367" lon="4.821737">
        <ele>-1.075096</ele>
        <time>2026-03-03T18:17:55.838Z</time>
      </trkpt>
      <trkpt lat="52.064454" lon="4.821674">
        <ele>-1.061006</ele>
        <time>2026-03-03T18:17:57.792Z</time>
      </trkpt>
      <trkpt lat="52.064510" lon="4.821622">
        <ele>-1.051465</ele>
        <time>2026-03-03T18:17:59.147Z</time>
      </trkpt>
      <trkpt lat="52.064716" lon="4.821647">
        <ele>-1.020900</ele>
        <time>2026-03-03T18:18:03.578Z</time>
      </trkpt>
      <trkpt lat="52.064957" lon="4.821760">
        <ele>-0.983789</ele>
        <time>2026-03-03T18:18:09.081Z</time>
      </trkpt>
      <trkpt lat="52.065020" lon="4.821757">
        <ele>-0.974463</ele>
        <time>2026-03-03T18:18:10.454Z</time>
      </trkpt>
      <trkpt lat="52.065095" lon="4.821779">
        <ele>-0.963187</ele>
        <time>2026-03-03T18:18:12.118Z</time>
      </trkpt>
      <trkpt lat="52.065219" lon="4.822173">
        <ele>-0.922925</ele>
        <time>2026-03-03T18:18:17.924Z</time>
      </trkpt>
      <trkpt lat="52.065305" lon="4.822234">
        <ele>-0.909043</ele>
        <time>2026-03-03T18:18:19.837Z</time>
      </trkpt>
      <trkpt lat="52.065683" lon="4.822258">
        <ele>-0.853071</ele>
        <time>2026-03-03T18:18:27.635Z</time>
      </trkpt>
      <trkpt lat="52.065883" lon="4.822276">
        <ele>-0.826431</ele>
        <time>2026-03-03T18:18:31.694Z</time>
      </trkpt>
      <trkpt lat="52.066321" lon="4.822319">
        <ele>-0.921511</ele>
        <time>2026-03-03T18:18:40.269Z</time>
      </trkpt>
      <trkpt lat="52.066559" lon="4.822175">
        <ele>-0.976533</ele>
        <time>2026-03-03T18:18:45.216Z</time>
      </trkpt>
      <trkpt lat="52.066627" lon="4.822154">
        <ele>-0.991531</ele>
        <time>2026-03-03T18:18:46.546Z</time>
      </trkpt>
      <trkpt lat="52.066697" lon="4.822125">
        <ele>-1.007183</ele>
        <time>2026-03-03T18:18:47.899Z</time>
      </trkpt>
      <trkpt lat="52.066781" lon="4.822209">
        <ele>-1.028549</ele>
        <time>2026-03-03T18:18:49.750Z</time>
      </trkpt>
      <trkpt lat="52.066860" lon="4.822199">
        <ele>-1.045718</ele>
        <time>2026-03-03T18:18:51.215Z</time>
      </trkpt>
      <trkpt lat="52.066846" lon="4.822148">
        <ele>-1.053158</ele>
        <time>2026-03-03T18:18:51.851Z</time>
      </trkpt>
      <trkpt lat="52.066823" lon="4.822051">
        <ele>-1.067007</ele>
        <time>2026-03-03T18:18:53.013Z</time>
      </trkpt>
      <trkpt lat="52.066725" lon="4.821670">
        <ele>-1.122021</ele>
        <time>2026-03-03T18:18:57.717Z</time>
      </trkpt>
      <trkpt lat="52.066310" lon="4.820035">
        <ele>-1.284328</ele>
        <time>2026-03-03T18:19:19.274Z</time>
      </trkpt>
      <trkpt lat="52.065735" lon="4.817794">
        <ele>-1.551429</ele>
        <time>2026-03-03T18:19:49.231Z</time>
      </trkpt>
      <trkpt lat="52.065698" lon="4.817599">
        <ele>-1.603246</ele>
        <time>2026-03-03T18:19:51.566Z</time>
      </trkpt>
      <trkpt lat="52.065735" lon="4.817432">
        <ele>-1.648318</ele>
        <time>2026-03-03T18:19:53.607Z</time>
      </trkpt>
      <trkpt lat="52.065779" lon="4.817361">
        <ele>-1.673916</ele>
        <time>2026-03-03T18:19:54.738Z</time>
      </trkpt>
      <trkpt lat="52.065861" lon="4.817347">
        <ele>-1.707969</ele>
        <time>2026-03-03T18:19:56.293Z</time>
      </trkpt>
      <trkpt lat="52.066188" lon="4.817440">
        <ele>-1.845075</ele>
        <time>2026-03-03T18:20:02.374Z</time>
      </trkpt>
      <trkpt lat="52.066273" lon="4.817419">
        <ele>-1.880585</ele>
        <time>2026-03-03T18:20:03.947Z</time>
      </trkpt>
      <trkpt lat="52.066340" lon="4.817332">
        <ele>-1.915992</ele>
        <time>2026-03-03T18:20:05.491Z</time>
      </trkpt>
      <trkpt lat="52.066365" lon="4.817151">
        <ele>-1.963094</ele>
        <time>2026-03-03T18:20:07.547Z</time>
      </trkpt>
      <trkpt lat="52.066468" lon="4.816397">
        <ele>-2.152036</ele>
        <time>2026-03-03T18:20:16.058Z</time>
      </trkpt>
      <trkpt lat="52.066586" lon="4.815424">
        <ele>-2.249122</ele>
        <time>2026-03-03T18:20:28.064Z</time>
      </trkpt>
      <trkpt lat="52.066789" lon="4.813760">
        <ele>-2.415192</ele>
        <time>2026-03-03T18:20:49.061Z</time>
      </trkpt>
      <trkpt lat="52.066948" lon="4.812435">
        <ele>-2.596510</ele>
        <time>2026-03-03T18:21:05.447Z</time>
      </trkpt>
      <trkpt lat="52.066972" lon="4.812235">
        <ele>-2.625107</ele>
        <time>2026-03-03T18:21:07.822Z</time>
      </trkpt>
      <trkpt lat="52.067101" lon="4.811159">
        <ele>-2.778951</ele>
        <time>2026-03-03T18:21:20.605Z</time>
      </trkpt>
      <trkpt lat="52.067202" lon="4.810323">
        <ele>-2.887737</ele>
        <time>2026-03-03T18:21:30.873Z</time>
      </trkpt>
      <trkpt lat="52.067268" lon="4.809769">
        <ele>-2.951112</ele>
        <time>2026-03-03T18:21:37.343Z</time>
      </trkpt>
      <trkpt lat="52.067355" lon="4.809046">
        <ele>-3.033850</ele>
        <time>2026-03-03T18:21:45.843Z</time>
      </trkpt>
      <trkpt lat="52.067446" lon="4.808255">
        <ele>-3.124225</ele>
        <time>2026-03-03T18:21:55.440Z</time>
      </trkpt>
      <trkpt lat="52.067418" lon="4.808097">
        <ele>-3.142692</ele>
        <time>2026-03-03T18:21:57.468Z</time>
      </trkpt>
      <trkpt lat="52.067375" lon="4.808048">
        <ele>-3.152284</ele>
        <time>2026-03-03T18:21:58.491Z</time>
      </trkpt>
      <trkpt lat="52.066302" lon="4.807606">
        <ele>-2.761860</ele>
        <time>2026-03-03T18:22:22.648Z</time>
      </trkpt>
      <trkpt lat="52.066241" lon="4.807554">
        <ele>-2.733326</ele>
        <time>2026-03-03T18:22:24.298Z</time>
      </trkpt>
      <trkpt lat="52.066196" lon="4.807495">
        <ele>-2.709379</ele>
        <time>2026-03-03T18:22:25.648Z</time>
      </trkpt>
      <trkpt lat="52.066138" lon="4.807276">
        <ele>-2.648642</ele>
        <time>2026-03-03T18:22:29.060Z</time>
      </trkpt>
      <trkpt lat="52.066138" lon="4.807142">
        <ele>-2.614511</ele>
        <time>2026-03-03T18:22:30.961Z</time>
      </trkpt>
      <trkpt lat="52.066205" lon="4.806723">
        <ele>-2.504238</ele>
        <time>2026-03-03T18:22:36.957Z</time>
      </trkpt>
      <trkpt lat="52.066209" lon="4.806697">
        <ele>-2.497411</ele>
        <time>2026-03-03T18:22:37.333Z</time>
      </trkpt>
      <trkpt lat="52.066288" lon="4.806202">
        <ele>-2.414038</ele>
        <time>2026-03-03T18:22:44.325Z</time>
      </trkpt>
      <trkpt lat="52.066355" lon="4.805757">
        <ele>-2.387375</ele>
        <time>2026-03-03T18:22:50.544Z</time>
      </trkpt>
      <trkpt lat="52.066438" lon="4.805398">
        <ele>-2.365054</ele>
        <time>2026-03-03T18:22:55.502Z</time>
      </trkpt>
      <trkpt lat="52.066775" lon="4.804042">
        <ele>-2.279934</ele>
        <time>2026-03-03T18:23:12.853Z</time>
      </trkpt>
      <trkpt lat="52.067658" lon="4.800462">
        <ele>-2.180907</ele>
        <time>2026-03-03T18:24:01.334Z</time>
      </trkpt>
      <trkpt lat="52.068233" lon="4.798108">
        <ele>-2.084758</ele>
        <time>2026-03-03T18:24:33.521Z</time>
      </trkpt>
      <trkpt lat="52.068620" lon="4.796511">
        <ele>-2.254314</ele>
        <time>2026-03-03T18:24:54.150Z</time>
      </trkpt>
      <trkpt lat="52.069825" lon="4.791529">
        <ele>-3.092118</ele>
        <time>2026-03-03T18:25:57.872Z</time>
      </trkpt>
      <trkpt lat="52.069878" lon="4.791382">
        <ele>-3.129032</ele>
        <time>2026-03-03T18:26:00.017Z</time>
      </trkpt>
      <trkpt lat="52.070255" lon="4.791570">
        <ele>-3.267981</ele>
        <time>2026-03-03T18:26:05.056Z</time>
      </trkpt>
      <trkpt lat="52.070512" lon="4.791720">
        <ele>-3.364194</ele>
        <time>2026-03-03T18:26:08.553Z</time>
      </trkpt>
      <trkpt lat="52.070903" lon="4.791846">
        <ele>-3.365896</ele>
        <time>2026-03-03T18:26:13.960Z</time>
      </trkpt>
      <trkpt lat="52.071191" lon="4.791928">
        <ele>-3.281766</ele>
        <time>2026-03-03T18:26:18.290Z</time>
      </trkpt>
      <trkpt lat="52.071273" lon="4.791952">
        <ele>-3.257792</ele>
        <time>2026-03-03T18:26:19.513Z</time>
      </trkpt>
      <trkpt lat="52.072999" lon="4.792471">
        <ele>-2.663583</ele>
        <time>2026-03-03T18:26:49.484Z</time>
      </trkpt>
      <trkpt lat="52.073311" lon="4.792556">
        <ele>-2.521191</ele>
        <time>2026-03-03T18:26:55.159Z</time>
      </trkpt>
      <trkpt lat="52.073904" lon="4.792742">
        <ele>-2.249358</ele>
        <time>2026-03-03T18:27:05.079Z</time>
      </trkpt>
      <trkpt lat="52.074310" lon="4.792827">
        <ele>-2.087381</ele>
        <time>2026-03-03T18:27:11.258Z</time>
      </trkpt>
      <trkpt lat="52.075163" lon="4.792801">
        <ele>-1.940891</ele>
        <time>2026-03-03T18:27:24.711Z</time>
      </trkpt>
      <trkpt lat="52.075193" lon="4.792794">
        <ele>-1.935687</ele>
        <time>2026-03-03T18:27:25.183Z</time>
      </trkpt>
      <trkpt lat="52.075581" lon="4.792788">
        <ele>-1.869063</ele>
        <time>2026-03-03T18:27:31.179Z</time>
      </trkpt>
      <trkpt lat="52.075716" lon="4.792751">
        <ele>-1.845556</ele>
        <time>2026-03-03T18:27:33.288Z</time>
      </trkpt>
      <trkpt lat="52.077551" lon="4.792621">
        <ele>-1.561762</ele>
        <time>2026-03-03T18:28:01.143Z</time>
      </trkpt>
      <trkpt lat="52.077822" lon="4.792596">
        <ele>-1.520771</ele>
        <time>2026-03-03T18:28:05.640Z</time>
      </trkpt>
      <trkpt lat="52.078101" lon="4.792572">
        <ele>-1.463754</ele>
        <time>2026-03-03T18:28:10.237Z</time>
      </trkpt>
      <trkpt lat="52.078287" lon="4.792518">
        <ele>-1.425171</ele>
        <time>2026-03-03T18:28:13.352Z</time>
      </trkpt>
      <trkpt lat="52.078421" lon="4.792403">
        <ele>-1.394233</ele>
        <time>2026-03-03T18:28:15.846Z</time>
      </trkpt>
      <trkpt lat="52.078617" lon="4.792099">
        <ele>-1.338936</ele>
        <time>2026-03-03T18:28:20.274Z</time>
      </trkpt>
      <trkpt lat="52.079135" lon="4.791217">
        <ele>-1.185824</ele>
        <time>2026-03-03T18:28:31.862Z</time>
      </trkpt>
      <trkpt lat="52.079281" lon="4.791033">
        <ele>-1.152740</ele>
        <time>2026-03-03T18:28:34.514Z</time>
      </trkpt>
      <trkpt lat="52.079490" lon="4.790940">
        <ele>-1.147552</ele>
        <time>2026-03-03T18:28:37.536Z</time>
      </trkpt>
      <trkpt lat="52.079873" lon="4.790904">
        <ele>-1.138365</ele>
        <time>2026-03-03T18:28:42.868Z</time>
      </trkpt>
      <trkpt lat="52.080162" lon="4.790875">
        <ele>-1.131432</ele>
        <time>2026-03-03T18:28:46.973Z</time>
      </trkpt>
      <trkpt lat="52.082021" lon="4.790693">
        <ele>-0.886502</ele>
        <time>2026-03-03T18:29:16.164Z</time>
      </trkpt>
      <trkpt lat="52.082354" lon="4.790659">
        <ele>-0.810255</ele>
        <time>2026-03-03T18:29:21.666Z</time>
      </trkpt>
      <trkpt lat="52.084208" lon="4.790477">
        <ele>-0.536985</ele>
        <time>2026-03-03T18:29:50.723Z</time>
      </trkpt>
      <trkpt lat="52.084559" lon="4.790442">
        <ele>-0.495382</ele>
        <time>2026-03-03T18:29:55.848Z</time>
      </trkpt>
      <trkpt lat="52.084576" lon="4.790440">
        <ele>-0.493366</ele>
        <time>2026-03-03T18:29:56.073Z</time>
      </trkpt>
      <trkpt lat="52.084839" lon="4.790417">
        <ele>-0.508356</ele>
        <time>2026-03-03T18:29:59.778Z</time>
      </trkpt>
      <trkpt lat="52.085005" lon="4.790340">
        <ele>-0.526778</ele>
        <time>2026-03-03T18:30:02.138Z</time>
      </trkpt>
      <trkpt lat="52.084740" lon="4.789544">
        <ele>-0.586151</ele>
        <time>2026-03-03T18:30:09.868Z</time>
      </trkpt>
      <trkpt lat="52.084713" lon="4.789459">
        <ele>-0.592426</ele>
        <time>2026-03-03T18:30:10.733Z</time>
      </trkpt>
      <trkpt lat="52.084487" lon="4.788701">
        <ele>-0.647680</ele>
        <time>2026-03-03T18:30:18.560Z</time>
      </trkpt>
      <trkpt lat="52.084150" lon="4.787608">
        <ele>-0.730710</ele>
        <time>2026-03-03T18:30:29.322Z</time>
      </trkpt>
      <trkpt lat="52.083979" lon="4.787066">
        <ele>-0.772955</ele>
        <time>2026-03-03T18:30:34.697Z</time>
      </trkpt>
      <trkpt lat="52.083874" lon="4.786714">
        <ele>-0.800085</ele>
        <time>2026-03-03T18:30:38.300Z</time>
      </trkpt>
      <trkpt lat="52.083694" lon="4.786104">
        <ele>-0.847004</ele>
        <time>2026-03-03T18:30:44.306Z</time>
      </trkpt>
      <trkpt lat="52.083668" lon="4.785948">
        <ele>-0.858212</ele>
        <time>2026-03-03T18:30:45.702Z</time>
      </trkpt>
      <trkpt lat="52.083648" lon="4.785778">
        <ele>-0.870213</ele>
        <time>2026-03-03T18:30:47.189Z</time>
      </trkpt>
      <trkpt lat="52.083619" lon="4.785174">
        <ele>-0.876443</ele>
        <time>2026-03-03T18:30:52.467Z</time>
      </trkpt>
      <trkpt lat="52.083564" lon="4.784829">
        <ele>-0.872488</ele>
        <time>2026-03-03T18:30:55.655Z</time>
      </trkpt>
      <trkpt lat="52.082886" lon="4.782490">
        <ele>-0.810114</ele>
        <time>2026-03-03T18:31:19.652Z</time>
      </trkpt>
      <trkpt lat="52.082571" lon="4.781068">
        <ele>-0.682787</ele>
        <time>2026-03-03T18:31:33.660Z</time>
      </trkpt>
      <trkpt lat="52.082476" lon="4.780640">
        <ele>-0.644454</ele>
        <time>2026-03-03T18:31:38.093Z</time>
      </trkpt>
      <trkpt lat="52.082392" lon="4.780380">
        <ele>-0.619710</ele>
        <time>2026-03-03T18:31:40.958Z</time>
      </trkpt>
      <trkpt lat="52.082268" lon="4.780130">
        <ele>-0.580172</ele>
        <time>2026-03-03T18:31:44.129Z</time>
      </trkpt>
      <trkpt lat="52.082157" lon="4.779916">
        <ele>-0.526255</ele>
        <time>2026-03-03T18:31:46.917Z</time>
      </trkpt>
      <trkpt lat="52.082137" lon="4.779866">
        <ele>-0.514768</ele>
        <time>2026-03-03T18:31:47.514Z</time>
      </trkpt>
      <trkpt lat="52.082056" lon="4.779606">
        <ele>-0.458644</ele>
        <time>2026-03-03T18:31:50.466Z</time>
      </trkpt>
      <trkpt lat="52.081847" lon="4.778484">
        <ele>-0.232914</ele>
        <time>2026-03-03T18:32:02.606Z</time>
      </trkpt>
      <trkpt lat="52.081815" lon="4.778310">
        <ele>-0.197945</ele>
        <time>2026-03-03T18:32:04.424Z</time>
      </trkpt>
      <trkpt lat="52.081707" lon="4.777726">
        <ele>-0.080523</ele>
        <time>2026-03-03T18:32:10.162Z</time>
      </trkpt>
      <trkpt lat="52.081498" lon="4.776676">
        <ele>-0.009862</ele>
        <time>2026-03-03T18:32:20.435Z</time>
      </trkpt>
      <trkpt lat="52.081294" lon="4.775687">
        <ele>0.024205</ele>
        <time>2026-03-03T18:32:30.207Z</time>
      </trkpt>
      <trkpt lat="52.081221" lon="4.775356">
        <ele>0.035689</ele>
        <time>2026-03-03T18:32:33.489Z</time>
      </trkpt>
      <trkpt lat="52.081207" lon="4.775289">
        <ele>0.038000</ele>
        <time>2026-03-03T18:32:34.147Z</time>
      </trkpt>
      <trkpt lat="52.081138" lon="4.774970">
        <ele>0.049044</ele>
        <time>2026-03-03T18:32:37.219Z</time>
      </trkpt>
      <trkpt lat="52.080925" lon="4.773952">
        <ele>-0.009878</ele>
        <time>2026-03-03T18:32:46.685Z</time>
      </trkpt>
      <trkpt lat="52.080837" lon="4.773523">
        <ele>-0.045766</ele>
        <time>2026-03-03T18:32:50.614Z</time>
      </trkpt>
      <trkpt lat="52.080833" lon="4.773494">
        <ele>-0.048124</ele>
        <time>2026-03-03T18:32:50.882Z</time>
      </trkpt>
      <trkpt lat="52.080806" lon="4.773331">
        <ele>-0.061520</ele>
        <time>2026-03-03T18:32:52.336Z</time>
      </trkpt>
      <trkpt lat="52.080799" lon="4.773290">
        <ele>-0.064896</ele>
        <time>2026-03-03T18:32:52.691Z</time>
      </trkpt>
      <trkpt lat="52.080725" lon="4.772804">
        <ele>-0.104627</ele>
        <time>2026-03-03T18:32:57.002Z</time>
      </trkpt>
      <trkpt lat="52.080683" lon="4.772569">
        <ele>-0.124047</ele>
        <time>2026-03-03T18:32:59.152Z</time>
      </trkpt>
      <trkpt lat="52.080637" lon="4.772307">
        <ele>-0.145668</ele>
        <time>2026-03-03T18:33:01.555Z</time>
      </trkpt>
      <trkpt lat="52.080613" lon="4.772172">
        <ele>-0.156820</ele>
        <time>2026-03-03T18:33:02.793Z</time>
      </trkpt>
      <trkpt lat="52.080529" lon="4.771595">
        <ele>-0.183282</ele>
        <time>2026-03-03T18:33:07.972Z</time>
      </trkpt>
      <trkpt lat="52.080504" lon="4.771422">
        <ele>-0.187151</ele>
        <time>2026-03-03T18:33:09.536Z</time>
      </trkpt>
      <trkpt lat="52.080412" lon="4.770689">
        <ele>-0.203438</ele>
        <time>2026-03-03T18:33:16.059Z</time>
      </trkpt>
      <trkpt lat="52.080299" lon="4.769563">
        <ele>-0.228276</ele>
        <time>2026-03-03T18:33:26.509Z</time>
      </trkpt>
      <trkpt lat="52.080233" lon="4.768904">
        <ele>-0.226603</ele>
        <time>2026-03-03T18:33:32.913Z</time>
      </trkpt>
      <trkpt lat="52.080223" lon="4.768791">
        <ele>-0.217894</ele>
        <time>2026-03-03T18:33:33.968Z</time>
      </trkpt>
      <trkpt lat="52.080157" lon="4.767955">
        <ele>-0.153598</ele>
        <time>2026-03-03T18:33:41.760Z</time>
      </trkpt>
      <trkpt lat="52.080132" lon="4.767562">
        <ele>-0.123458</ele>
        <time>2026-03-03T18:33:45.566Z</time>
      </trkpt>
      <trkpt lat="52.080123" lon="4.767422">
        <ele>-0.112720</ele>
        <time>2026-03-03T18:33:46.913Z</time>
      </trkpt>
      <trkpt lat="52.080093" lon="4.766926">
        <ele>-0.074701</ele>
        <time>2026-03-03T18:33:51.967Z</time>
      </trkpt>
      <trkpt lat="52.080064" lon="4.766154">
        <ele>-0.016042</ele>
        <time>2026-03-03T18:33:59.336Z</time>
      </trkpt>
      <trkpt lat="52.080043" lon="4.765572">
        <ele>-0.031174</ele>
        <time>2026-03-03T18:34:04.308Z</time>
      </trkpt>
      <trkpt lat="52.080036" lon="4.765213">
        <ele>-0.040497</ele>
        <time>2026-03-03T18:34:07.314Z</time>
      </trkpt>
      <trkpt lat="52.080030" lon="4.764250">
        <ele>-0.065494</ele>
        <time>2026-03-03T18:34:15.999Z</time>
      </trkpt>
      <trkpt lat="52.080042" lon="4.763637">
        <ele>-0.081413</ele>
        <time>2026-03-03T18:34:21.641Z</time>
      </trkpt>
      <trkpt lat="52.080102" lon="4.762698">
        <ele>-0.051868</ele>
        <time>2026-03-03T18:34:30.417Z</time>
      </trkpt>
      <trkpt lat="52.080168" lon="4.762253">
        <ele>-0.017866</ele>
        <time>2026-03-03T18:34:34.609Z</time>
      </trkpt>
      <trkpt lat="52.080301" lon="4.761359">
        <ele>0.050457</ele>
        <time>2026-03-03T18:34:43.506Z</time>
      </trkpt>
      <trkpt lat="52.080318" lon="4.761258">
        <ele>0.058236</ele>
        <time>2026-03-03T18:34:44.520Z</time>
      </trkpt>
      <trkpt lat="52.080329" lon="4.761152">
        <ele>0.066220</ele>
        <time>2026-03-03T18:34:45.925Z</time>
      </trkpt>
      <trkpt lat="52.080458" lon="4.761199">
        <ele>0.082198</ele>
        <time>2026-03-03T18:34:47.961Z</time>
      </trkpt>
      <trkpt lat="52.080498" lon="4.761228">
        <ele>0.087491</ele>
        <time>2026-03-03T18:34:48.625Z</time>
      </trkpt>
      <trkpt lat="52.080522" lon="4.761252">
        <ele>0.090896</ele>
        <time>2026-03-03T18:34:49.177Z</time>
      </trkpt>
      <trkpt lat="52.080576" lon="4.761324">
        <ele>0.099333</ele>
        <time>2026-03-03T18:34:50.621Z</time>
      </trkpt>
      <trkpt lat="52.080842" lon="4.761441">
        <ele>0.131108</ele>
        <time>2026-03-03T18:34:56.260Z</time>
      </trkpt>
      <trkpt lat="52.081320" lon="4.761609">
        <ele>0.177602</ele>
        <time>2026-03-03T18:35:06.392Z</time>
      </trkpt>
      <trkpt lat="52.081376" lon="4.761591">
        <ele>0.183029</ele>
        <time>2026-03-03T18:35:07.546Z</time>
      </trkpt>
      <trkpt lat="52.081445" lon="4.761495">
        <ele>0.191660</ele>
        <time>2026-03-03T18:35:09.399Z</time>
      </trkpt>
      <trkpt lat="52.081457" lon="4.761420">
        <ele>0.196188</ele>
        <time>2026-03-03T18:35:10.354Z</time>
      </trkpt>
      <trkpt lat="52.081533" lon="4.761426">
        <ele>0.203422</ele>
        <time>2026-03-03T18:35:11.904Z</time>
      </trkpt>
      <trkpt lat="52.081619" lon="4.761431">
        <ele>0.211604</ele>
        <time>2026-03-03T18:35:13.660Z</time>
      </trkpt>
      <trkpt lat="52.081580" lon="4.760894">
        <ele>0.243197</ele>
        <time>2026-03-03T18:35:20.516Z</time>
      </trkpt>
      <trkpt lat="52.081640" lon="4.760513">
        <ele>0.266177</ele>
        <time>2026-03-03T18:35:24.220Z</time>
      </trkpt>
      <trkpt lat="52.081907" lon="4.759443">
        <ele>0.308141</ele>
        <time>2026-03-03T18:35:34.882Z</time>
      </trkpt>
      <trkpt lat="52.082453" lon="4.757739">
        <ele>0.343373</ele>
        <time>2026-03-03T18:35:52.676Z</time>
      </trkpt>
      <trkpt lat="52.082559" lon="4.757633">
        <ele>0.347084</ele>
        <time>2026-03-03T18:35:55.254Z</time>
      </trkpt>
      <trkpt lat="52.082608" lon="4.757622">
        <ele>0.348560</ele>
        <time>2026-03-03T18:35:56.254Z</time>
      </trkpt>
      <trkpt lat="52.082760" lon="4.757700">
        <ele>0.314137</ele>
        <time>2026-03-03T18:35:59.472Z</time>
      </trkpt>
      <trkpt lat="52.082811" lon="4.757549">
        <ele>0.278374</ele>
        <time>2026-03-03T18:36:01.596Z</time>
      </trkpt>
      <trkpt lat="52.082854" lon="4.757393">
        <ele>0.242886</ele>
        <time>2026-03-03T18:36:03.634Z</time>
      </trkpt>
      <trkpt lat="52.083302" lon="4.757679">
        <ele>0.080343</ele>
        <time>2026-03-03T18:36:12.869Z</time>
      </trkpt>
      <trkpt lat="52.084120" lon="4.758205">
        <ele>-0.216733</ele>
        <time>2026-03-03T18:36:29.058Z</time>
      </trkpt>
      <trkpt lat="52.084355" lon="4.758291">
        <ele>-0.264364</ele>
        <time>2026-03-03T18:36:33.545Z</time>
      </trkpt>
      <trkpt lat="52.084612" lon="4.758397">
        <ele>-0.279738</ele>
        <time>2026-03-03T18:36:37.159Z</time>
      </trkpt>
      <trkpt lat="52.084832" lon="4.758533">
        <ele>-0.293384</ele>
        <time>2026-03-03T18:36:40.488Z</time>
      </trkpt>
      <trkpt lat="52.085937" lon="4.759209">
        <ele>-0.361384</ele>
        <time>2026-03-03T18:36:58.393Z</time>
      </trkpt>
      <trkpt lat="52.086203" lon="4.759236">
        <ele>-0.334637</ele>
        <time>2026-03-03T18:37:02.693Z</time>
      </trkpt>
      <trkpt lat="52.086327" lon="4.759209">
        <ele>-0.322081</ele>
        <time>2026-03-03T18:37:04.680Z</time>
      </trkpt>
      <trkpt lat="52.086425" lon="4.759147">
        <ele>-0.311529</ele>
        <time>2026-03-03T18:37:06.344Z</time>
      </trkpt>
      <trkpt lat="52.086624" lon="4.758881">
        <ele>-0.285685</ele>
        <time>2026-03-03T18:37:10.355Z</time>
      </trkpt>
      <trkpt lat="52.086794" lon="4.758512">
        <ele>-0.257244</ele>
        <time>2026-03-03T18:37:14.677Z</time>
      </trkpt>
      <trkpt lat="52.087401" lon="4.756984">
        <ele>-0.084004</ele>
        <time>2026-03-03T18:37:31.274Z</time>
      </trkpt>
      <trkpt lat="52.087559" lon="4.756384">
        <ele>0.024269</ele>
        <time>2026-03-03T18:37:37.354Z</time>
      </trkpt>
      <trkpt lat="52.087733" lon="4.756022">
        <ele>0.100500</ele>
        <time>2026-03-03T18:37:43.364Z</time>
      </trkpt>
      <trkpt lat="52.088073" lon="4.755160">
        <ele>0.270397</ele>
        <time>2026-03-03T18:37:57.190Z</time>
      </trkpt>
      <trkpt lat="52.088374" lon="4.754393">
        <ele>0.411227</ele>
        <time>2026-03-03T18:38:09.896Z</time>
      </trkpt>
      <trkpt lat="52.088382" lon="4.754366">
        <ele>0.415769</ele>
        <time>2026-03-03T18:38:10.320Z</time>
      </trkpt>
      <trkpt lat="52.088850" lon="4.752733">
        <ele>0.688781</ele>
        <time>2026-03-03T18:38:34.010Z</time>
      </trkpt>
      <trkpt lat="52.089066" lon="4.752080">
        <ele>0.648192</ele>
        <time>2026-03-03T18:38:42.870Z</time>
      </trkpt>
      <trkpt lat="52.089465" lon="4.751035">
        <ele>0.299283</ele>
        <time>2026-03-03T18:38:56.682Z</time>
      </trkpt>
      <trkpt lat="52.089497" lon="4.750862">
        <ele>0.248047</ele>
        <time>2026-03-03T18:38:58.678Z</time>
      </trkpt>
      <trkpt lat="52.089514" lon="4.750528">
        <ele>0.153004</ele>
        <time>2026-03-03T18:39:02.398Z</time>
      </trkpt>
      <trkpt lat="52.089591" lon="4.750388">
        <ele>0.099719</ele>
        <time>2026-03-03T18:39:04.532Z</time>
      </trkpt>
      <trkpt lat="52.089645" lon="4.750300">
        <ele>0.064449</ele>
        <time>2026-03-03T18:39:05.927Z</time>
      </trkpt>
      <trkpt lat="52.089691" lon="4.750283">
        <ele>0.042678</ele>
        <time>2026-03-03T18:39:06.812Z</time>
      </trkpt>
      <trkpt lat="52.089781" lon="4.750360">
        <ele>-0.004251</ele>
        <time>2026-03-03T18:39:08.689Z</time>
      </trkpt>
      <trkpt lat="52.089889" lon="4.750335">
        <ele>-0.054600</ele>
        <time>2026-03-03T18:39:10.721Z</time>
      </trkpt>
      <trkpt lat="52.089914" lon="4.750329">
        <ele>-0.066263</ele>
        <time>2026-03-03T18:39:11.187Z</time>
      </trkpt>
      <trkpt lat="52.090849" lon="4.748943">
        <ele>-0.384314</ele>
        <time>2026-03-03T18:39:35.190Z</time>
      </trkpt>
      <trkpt lat="52.091318" lon="4.748252">
        <ele>-0.517894</ele>
        <time>2026-03-03T18:39:48.066Z</time>
      </trkpt>
      <trkpt lat="52.091532" lon="4.747826">
        <ele>-0.485873</ele>
        <time>2026-03-03T18:39:54.890Z</time>
      </trkpt>
      <trkpt lat="52.091603" lon="4.747397">
        <ele>-0.460019</ele>
        <time>2026-03-03T18:40:00.478Z</time>
      </trkpt>
      <trkpt lat="52.091591" lon="4.746927">
        <ele>-0.432645</ele>
        <time>2026-03-03T18:40:06.439Z</time>
      </trkpt>
      <trkpt lat="52.091544" lon="4.746669">
        <ele>-0.416985</ele>
        <time>2026-03-03T18:40:09.849Z</time>
      </trkpt>
      <trkpt lat="52.091447" lon="4.746425">
        <ele>-0.400073</ele>
        <time>2026-03-03T18:40:13.566Z</time>
      </trkpt>
      <trkpt lat="52.091252" lon="4.745981">
        <ele>-0.368313</ele>
        <time>2026-03-03T18:40:20.587Z</time>
      </trkpt>
      <trkpt lat="52.090690" lon="4.744700">
        <ele>-0.149887</ele>
        <time>2026-03-03T18:40:41.072Z</time>
      </trkpt>
      <trkpt lat="52.090264" lon="4.743887">
        <ele>0.014867</ele>
        <time>2026-03-03T18:40:54.894Z</time>
      </trkpt>
      <trkpt lat="52.090034" lon="4.743360">
        <ele>0.102283</ele>
        <time>2026-03-03T18:41:03.388Z</time>
      </trkpt>
      <trkpt lat="52.090118" lon="4.743243">
        <ele>0.109732</ele>
        <time>2026-03-03T18:41:05.746Z</time>
      </trkpt>
      <trkpt lat="52.090170" lon="4.743171">
        <ele>0.114332</ele>
        <time>2026-03-03T18:41:07.223Z</time>
      </trkpt>
      <trkpt lat="52.090225" lon="4.743094">
        <ele>0.119221</ele>
        <time>2026-03-03T18:41:08.799Z</time>
      </trkpt>
      <trkpt lat="52.090235" lon="4.743025">
        <ele>0.122156</ele>
        <time>2026-03-03T18:41:09.762Z</time>
      </trkpt>
      <trkpt lat="52.090226" lon="4.742760">
        <ele>0.133143</ele>
        <time>2026-03-03T18:41:13.349Z</time>
      </trkpt>
      <trkpt lat="52.090328" lon="4.742458">
        <ele>0.147410</ele>
        <time>2026-03-03T18:41:17.880Z</time>
      </trkpt>
      <trkpt lat="52.090323" lon="4.742177">
        <ele>0.159048</ele>
        <time>2026-03-03T18:41:21.508Z</time>
      </trkpt>
      <trkpt lat="52.090217" lon="4.741915">
        <ele>0.172035</ele>
        <time>2026-03-03T18:41:25.416Z</time>
      </trkpt>
      <trkpt lat="52.090113" lon="4.741770">
        <ele>0.181262</ele>
        <time>2026-03-03T18:41:28.098Z</time>
      </trkpt>
      <trkpt lat="52.089974" lon="4.741306">
        <ele>0.202632</ele>
        <time>2026-03-03T18:41:32.697Z</time>
      </trkpt>
      <trkpt lat="52.089790" lon="4.740432">
        <ele>0.031612</ele>
        <time>2026-03-03T18:41:40.639Z</time>
      </trkpt>
      <trkpt lat="52.089773" lon="4.740343">
        <ele>-0.001390</ele>
        <time>2026-03-03T18:41:41.387Z</time>
      </trkpt>
      <trkpt lat="52.089723" lon="4.740088">
        <ele>-0.096170</ele>
        <time>2026-03-03T18:41:43.522Z</time>
      </trkpt>
      <trkpt lat="52.089719" lon="4.739996">
        <ele>-0.128828</ele>
        <time>2026-03-03T18:41:44.255Z</time>
      </trkpt>
      <trkpt lat="52.089761" lon="4.739849">
        <ele>-0.186233</ele>
        <time>2026-03-03T18:41:45.516Z</time>
      </trkpt>
      <trkpt lat="52.089833" lon="4.739791">
        <ele>-0.232531</ele>
        <time>2026-03-03T18:41:46.527Z</time>
      </trkpt>
      <trkpt lat="52.089970" lon="4.739712">
        <ele>-0.316293</ele>
        <time>2026-03-03T18:41:48.314Z</time>
      </trkpt>
      <trkpt lat="52.090177" lon="4.739621">
        <ele>-0.439862</ele>
        <time>2026-03-03T18:41:50.923Z</time>
      </trkpt>
      <trkpt lat="52.090680" lon="4.739467">
        <ele>-0.734825</ele>
        <time>2026-03-03T18:41:57.446Z</time>
      </trkpt>
      <trkpt lat="52.091221" lon="4.739324">
        <ele>-0.844582</ele>
        <time>2026-03-03T18:42:04.886Z</time>
      </trkpt>
      <trkpt lat="52.092370" lon="4.739100">
        <ele>-0.921821</ele>
        <time>2026-03-03T18:42:22.529Z</time>
      </trkpt>
      <trkpt lat="52.092712" lon="4.739022">
        <ele>-0.937627</ele>
        <time>2026-03-03T18:42:27.709Z</time>
      </trkpt>
      <trkpt lat="52.092837" lon="4.739009">
        <ele>-0.937617</ele>
        <time>2026-03-03T18:42:29.562Z</time>
      </trkpt>
      <trkpt lat="52.093580" lon="4.738947">
        <ele>-0.937557</ele>
        <time>2026-03-03T18:42:40.222Z</time>
      </trkpt>
      <trkpt lat="52.095029" lon="4.738851">
        <ele>-0.831430</ele>
        <time>2026-03-03T18:43:02.072Z</time>
      </trkpt>
      <trkpt lat="52.096193" lon="4.738697">
        <ele>-0.634571</ele>
        <time>2026-03-03T18:43:20.956Z</time>
      </trkpt>
      <trkpt lat="52.097367" lon="4.738589">
        <ele>-0.873283</ele>
        <time>2026-03-03T18:43:37.474Z</time>
      </trkpt>
      <trkpt lat="52.097673" lon="4.738651">
        <ele>-0.936042</ele>
        <time>2026-03-03T18:43:41.558Z</time>
      </trkpt>
      <trkpt lat="52.097738" lon="4.738761">
        <ele>-0.955124</ele>
        <time>2026-03-03T18:43:42.802Z</time>
      </trkpt>
      <trkpt lat="52.097807" lon="4.738758">
        <ele>-0.969172</ele>
        <time>2026-03-03T18:43:43.745Z</time>
      </trkpt>
      <trkpt lat="52.097854" lon="4.738695">
        <ele>-0.981563</ele>
        <time>2026-03-03T18:43:44.566Z</time>
      </trkpt>
      <trkpt lat="52.097870" lon="4.738599">
        <ele>-0.994000</ele>
        <time>2026-03-03T18:43:45.402Z</time>
      </trkpt>
      <trkpt lat="52.098161" lon="4.738398">
        <ele>-1.001557</ele>
        <time>2026-03-03T18:43:49.798Z</time>
      </trkpt>
      <trkpt lat="52.098544" lon="4.738196">
        <ele>-1.003248</ele>
        <time>2026-03-03T18:43:55.862Z</time>
      </trkpt>
      <trkpt lat="52.099071" lon="4.737858">
        <ele>-1.005628</ele>
        <time>2026-03-03T18:44:04.536Z</time>
      </trkpt>
      <trkpt lat="52.099361" lon="4.737634">
        <ele>-1.006976</ele>
        <time>2026-03-03T18:44:09.387Z</time>
      </trkpt>
      <trkpt lat="52.099386" lon="4.737611">
        <ele>-1.007097</ele>
        <time>2026-03-03T18:44:09.819Z</time>
      </trkpt>
      <trkpt lat="52.099581" lon="4.737468">
        <ele>-1.006785</ele>
        <time>2026-03-03T18:44:13.080Z</time>
      </trkpt>
      <trkpt lat="52.100512" lon="4.736713">
        <ele>-0.944285</ele>
        <time>2026-03-03T18:44:28.966Z</time>
      </trkpt>
      <trkpt lat="52.101474" lon="4.735757">
        <ele>-0.889891</ele>
        <time>2026-03-03T18:44:45.716Z</time>
      </trkpt>
      <trkpt lat="52.101672" lon="4.735553">
        <ele>-0.883875</ele>
        <time>2026-03-03T18:44:49.262Z</time>
      </trkpt>
      <trkpt lat="52.103805" lon="4.733309">
        <ele>-0.752403</ele>
        <time>2026-03-03T18:45:26.990Z</time>
      </trkpt>
      <trkpt lat="52.104414" lon="4.732838">
        <ele>-0.682085</ele>
        <time>2026-03-03T18:45:37.515Z</time>
      </trkpt>
      <trkpt lat="52.105166" lon="4.732018">
        <ele>-0.538018</ele>
        <time>2026-03-03T18:45:51.593Z</time>
      </trkpt>
      <trkpt lat="52.105402" lon="4.731827">
        <ele>-0.496068</ele>
        <time>2026-03-03T18:45:55.755Z</time>
      </trkpt>
      <trkpt lat="52.105908" lon="4.731604">
        <ele>-0.438157</ele>
        <time>2026-03-03T18:46:03.737Z</time>
      </trkpt>
      <trkpt lat="52.106183" lon="4.731487">
        <ele>-0.447705</ele>
        <time>2026-03-03T18:46:08.094Z</time>
      </trkpt>
      <trkpt lat="52.106350" lon="4.731416">
        <ele>-0.453502</ele>
        <time>2026-03-03T18:46:10.764Z</time>
      </trkpt>
      <trkpt lat="52.106497" lon="4.731306">
        <ele>-0.458937</ele>
        <time>2026-03-03T18:46:13.282Z</time>
      </trkpt>
      <trkpt lat="52.106581" lon="4.731333">
        <ele>-0.461813</ele>
        <time>2026-03-03T18:46:14.614Z</time>
      </trkpt>
      <trkpt lat="52.106828" lon="4.731272">
        <ele>-0.470205</ele>
        <time>2026-03-03T18:46:18.408Z</time>
      </trkpt>
      <trkpt lat="52.106934" lon="4.731240">
        <ele>-0.473826</ele>
        <time>2026-03-03T18:46:20.020Z</time>
      </trkpt>
      <trkpt lat="52.107124" lon="4.731172">
        <ele>-0.480360</ele>
        <time>2026-03-03T18:46:22.886Z</time>
      </trkpt>
      <trkpt lat="52.107169" lon="4.731140">
        <ele>-0.482010</ele>
        <time>2026-03-03T18:46:23.592Z</time>
      </trkpt>
      <trkpt lat="52.107274" lon="4.731076">
        <ele>-0.485776</ele>
        <time>2026-03-03T18:46:25.174Z</time>
      </trkpt>
      <trkpt lat="52.107356" lon="4.731007">
        <ele>-0.488876</ele>
        <time>2026-03-03T18:46:26.457Z</time>
      </trkpt>
      <trkpt lat="52.107444" lon="4.731211">
        <ele>-0.494019</ele>
        <time>2026-03-03T18:46:29.366Z</time>
      </trkpt>
      <trkpt lat="52.107459" lon="4.731361">
        <ele>-0.535868</ele>
        <time>2026-03-03T18:46:31.097Z</time>
      </trkpt>
      <trkpt lat="52.107444" lon="4.733098">
        <ele>-1.029727</ele>
        <time>2026-03-03T18:46:50.746Z</time>
      </trkpt>
      <trkpt lat="52.107512" lon="4.734156">
        <ele>-1.328296</ele>
        <time>2026-03-03T18:47:02.707Z</time>
      </trkpt>
      <trkpt lat="52.107611" lon="4.735120">
        <ele>-1.410801</ele>
        <time>2026-03-03T18:47:14.325Z</time>
      </trkpt>
      <trkpt lat="52.107635" lon="4.735669">
        <ele>-1.457261</ele>
        <time>2026-03-03T18:47:21.061Z</time>
      </trkpt>
      <trkpt lat="52.107633" lon="4.736101">
        <ele>-1.493729</ele>
        <time>2026-03-03T18:47:26.425Z</time>
      </trkpt>
      <trkpt lat="52.107587" lon="4.736580">
        <ele>-1.534654</ele>
        <time>2026-03-03T18:47:32.467Z</time>
      </trkpt>
      <trkpt lat="52.107476" lon="4.737217">
        <ele>-1.564782</ele>
        <time>2026-03-03T18:47:40.761Z</time>
      </trkpt>
      <trkpt lat="52.107227" lon="4.738135">
        <ele>-1.518565</ele>
        <time>2026-03-03T18:47:53.370Z</time>
      </trkpt>
      <trkpt lat="52.106915" lon="4.738789">
        <ele>-1.480426</ele>
        <time>2026-03-03T18:48:03.796Z</time>
      </trkpt>
      <trkpt lat="52.106881" lon="4.739003">
        <ele>-1.470246</ele>
        <time>2026-03-03T18:48:06.606Z</time>
      </trkpt>
      <trkpt lat="52.106895" lon="4.739257">
        <ele>-1.458501</ele>
        <time>2026-03-03T18:48:09.847Z</time>
      </trkpt>
      <trkpt lat="52.106943" lon="4.739444">
        <ele>-1.449167</ele>
        <time>2026-03-03T18:48:12.438Z</time>
      </trkpt>
      <trkpt lat="52.107042" lon="4.739630">
        <ele>-1.438752</ele>
        <time>2026-03-03T18:48:15.574Z</time>
      </trkpt>
      <trkpt lat="52.107173" lon="4.739788">
        <ele>-1.436104</ele>
        <time>2026-03-03T18:48:18.989Z</time>
      </trkpt>
      <trkpt lat="52.108960" lon="4.741480">
        <ele>-1.538691</ele>
        <time>2026-03-03T18:49:00.923Z</time>
      </trkpt>
      <trkpt lat="52.109102" lon="4.741628">
        <ele>-1.587282</ele>
        <time>2026-03-03T18:49:04.109Z</time>
      </trkpt>
      <trkpt lat="52.109294" lon="4.741829">
        <ele>-1.653067</ele>
        <time>2026-03-03T18:49:08.362Z</time>
      </trkpt>
      <trkpt lat="52.110816" lon="4.743337">
        <ele>-2.164397</ele>
        <time>2026-03-03T18:49:41.664Z</time>
      </trkpt>
      <trkpt lat="52.112015" lon="4.744580">
        <ele>-2.529701</ele>
        <time>2026-03-03T18:50:09.796Z</time>
      </trkpt>
      <trkpt lat="52.113439" lon="4.746142">
        <ele>-2.791531</ele>
        <time>2026-03-03T18:50:43.090Z</time>
      </trkpt>
      <trkpt lat="52.117937" lon="4.750760">
        <ele>-2.759160</ele>
        <time>2026-03-03T18:52:31.199Z</time>
      </trkpt>
      <trkpt lat="52.118419" lon="4.751222">
        <ele>-2.844906</ele>
        <time>2026-03-03T18:52:42.755Z</time>
      </trkpt>
      <trkpt lat="52.119023" lon="4.751823">
        <ele>-2.953424</ele>
        <time>2026-03-03T18:52:56.762Z</time>
      </trkpt>
      <trkpt lat="52.119231" lon="4.752168">
        <ele>-3.021717</ele>
        <time>2026-03-03T18:53:02.183Z</time>
      </trkpt>
      <trkpt lat="52.119360" lon="4.752421">
        <ele>-3.136555</ele>
        <time>2026-03-03T18:53:05.746Z</time>
      </trkpt>
      <trkpt lat="52.119562" lon="4.752656">
        <ele>-3.277735</ele>
        <time>2026-03-03T18:53:10.049Z</time>
      </trkpt>
      <trkpt lat="52.120402" lon="4.753470">
        <ele>-3.833627</ele>
        <time>2026-03-03T18:53:27.215Z</time>
      </trkpt>
      <trkpt lat="52.122993" lon="4.755552">
        <ele>-3.535659</ele>
        <time>2026-03-03T18:54:28.366Z</time>
      </trkpt>
      <trkpt lat="52.124118" lon="4.756225">
        <ele>-3.300535</ele>
        <time>2026-03-03T18:54:53.596Z</time>
      </trkpt>
      <trkpt lat="52.124840" lon="4.756611">
        <ele>-3.153559</ele>
        <time>2026-03-03T18:55:09.377Z</time>
      </trkpt>
      <trkpt lat="52.124999" lon="4.756649">
        <ele>-3.122476</ele>
        <time>2026-03-03T18:55:12.764Z</time>
      </trkpt>
      <trkpt lat="52.125397" lon="4.756862">
        <ele>-3.041448</ele>
        <time>2026-03-03T18:55:21.625Z</time>
      </trkpt>
      <trkpt lat="52.127825" lon="4.758263">
        <ele>-2.334832</ele>
        <time>2026-03-03T18:56:17.245Z</time>
      </trkpt>
      <trkpt lat="52.128032" lon="4.758361">
        <ele>-2.318138</ele>
        <time>2026-03-03T18:56:21.667Z</time>
      </trkpt>
      <trkpt lat="52.129296" lon="4.759162">
        <ele>-2.183805</ele>
        <time>2026-03-03T18:56:48.570Z</time>
      </trkpt>
      <trkpt lat="52.130284" lon="4.759698">
        <ele>-1.988246</ele>
        <time>2026-03-03T18:57:09.991Z</time>
      </trkpt>
      <trkpt lat="52.130923" lon="4.759967">
        <ele>-1.788949</ele>
        <time>2026-03-03T18:57:24.591Z</time>
      </trkpt>
      <trkpt lat="52.131376" lon="4.759961">
        <ele>-1.500884</ele>
        <time>2026-03-03T18:57:35.157Z</time>
      </trkpt>
      <trkpt lat="52.131442" lon="4.760116">
        <ele>-1.427250</ele>
        <time>2026-03-03T18:57:37.881Z</time>
      </trkpt>
      <trkpt lat="52.131498" lon="4.760249">
        <ele>-1.364296</ele>
        <time>2026-03-03T18:57:40.231Z</time>
      </trkpt>
      <trkpt lat="52.131576" lon="4.760434">
        <ele>-1.276690</ele>
        <time>2026-03-03T18:57:43.452Z</time>
      </trkpt>
      <trkpt lat="52.131623" lon="4.760546">
        <ele>-1.223733</ele>
        <time>2026-03-03T18:57:45.342Z</time>
      </trkpt>
      <trkpt lat="52.131684" lon="4.760692">
        <ele>-1.154795</ele>
        <time>2026-03-03T18:57:47.877Z</time>
      </trkpt>
      <trkpt lat="52.131736" lon="4.760815">
        <ele>-1.096499</ele>
        <time>2026-03-03T18:57:50.006Z</time>
      </trkpt>
      <trkpt lat="52.131913" lon="4.761236">
        <ele>-0.897318</ele>
        <time>2026-03-03T18:57:57.164Z</time>
      </trkpt>
      <trkpt lat="52.132068" lon="4.761606">
        <ele>-0.752152</ele>
        <time>2026-03-03T18:58:03.363Z</time>
      </trkpt>
      <trkpt lat="52.132129" lon="4.761750">
        <ele>-0.752152</ele>
        <time>2026-03-03T18:58:05.706Z</time>
      </trkpt>
      <trkpt lat="52.132219" lon="4.761967">
        <ele>-0.752152</ele>
        <time>2026-03-03T18:58:09.190Z</time>
      </trkpt>
      <trkpt lat="52.132380" lon="4.762353">
        <ele>-0.752152</ele>
        <time>2026-03-03T18:58:15.398Z</time>
      </trkpt>
      <trkpt lat="52.132495" lon="4.762599">
        <ele>-0.752152</ele>
        <time>2026-03-03T18:58:19.363Z</time>
      </trkpt>
      <trkpt lat="52.132551" lon="4.762695">
        <ele>-0.752152</ele>
        <time>2026-03-03T18:58:21.026Z</time>
      </trkpt>
      <trkpt lat="52.132640" lon="4.762831">
        <ele>-0.752152</ele>
        <time>2026-03-03T18:58:23.492Z</time>
      </trkpt>
    </trkseg>
  </trk>
</gpx>